[[{"header":{"parameterUnit":"m.s-1","parameterCategory":1,"la1":30.6,"la2":29.2853,"lo1":-89.7004,"lo2":-87.6739,"dy":0.0162,"dx":0.0183,"nx":112,"ny":82,"refTime":"2024-08-18T12:00:00:Z","depth":0,"parameterNumber":2,"parameterNumberName":"U-component_of_WINDS"},"data":[0.0,0.0,0.0,0.0,0.0,0.0,0.0,0.0,0.0,0.0,0.0,0.0,0.0,0.0,0.0,0.0,0.0,0.0,0.0,0.0,0.0,0.0,0.0,0.0,0.0,0.0,0.0,0.0,0.0,0.0,0.0,0.0,0.0,0.0,0.0,0.0,0.0,0.0,0.0,0.0,0.0,0.0,0.0,0.0,0.0,0.0,0.0,0.0,0.0,0.0,0.0,0.0,0.0,0.0,0.0,0.0,0.0,0.0,0.0,0.0,0.0,0.0,0.0,0.0,0.0,0.0,0.0,0.0,0.0,0.0,0.0,0.0,0.0,0.0,0.0,0.0,0.0,0.0,0.0,0.0,0.0,0.0,0.0,0.0,0.0,0.0,0.0,0.0,0.0,0.0,-1.3049,-1.409,-1.4896,-1.5226,-1.506,-1.4712,-1.4058,-1.2907,0.0,0.0,0.0,0.0,0.0,0.0,0.0,0.0,0.0,0.0,0.0,0.0,0.0,0.0,0.0,0.0,0.0,0.0,0.0,0.0,0.0,0.0,0.0,0.0,0.0,0.0,0.0,0.0,0.0,0.0,0.0,0.0,0.0,0.0,0.0,0.0,0.0,0.0,0.0,0.0,0.0,0.0,0.0,0.0,0.0,0.0,0.0,0.0,0.0,0.0,0.0,0.0,0.0,0.0,0.0,0.0,0.0,0.0,0.0,0.0,0.0,0.0,0.0,0.0,0.0,0.0,0.0,0.0,0.0,0.0,0.0,0.0,0.0,0.0,0.0,0.0,0.0,0.0,0.0,0.0,0.0,0.0,0.0,0.0,0.0,0.0,0.0,0.0,0.0,0.0,0.0,0.0,0.0,0.0,0.0,0.0,0.0,0.0,0.0,0.0,0.0,0.0,0.0,0.0,-1.3804,-1.5039,-1.5053,-1.4892,-1.4689,-1.4138,-1.3416,-1.2542,0.0,0.0,0.0,0.0,0.0,0.0,0.0,0.0,0.0,0.0,0.0,0.0,0.0,0.0,0.0,0.0,0.0,0.0,0.0,0.0,0.0,0.0,0.0,0.0,0.0,0.0,0.0,0.0,0.0,0.0,0.0,0.0,0.0,0.0,0.0,0.0,0.0,0.0,0.0,0.0,0.0,0.0,0.0,0.0,0.0,0.0,0.0,0.0,0.0,0.0,0.0,0.0,0.0,0.0,0.0,0.0,0.0,0.0,0.0,0.0,0.0,0.0,0.0,0.0,0.0,0.0,0.0,0.0,0.0,0.0,0.0,0.0,0.0,0.0,0.0,0.0,0.0,0.0,0.0,0.0,0.0,0.0,0.0,0.0,0.0,0.0,0.0,0.0,0.0,0.0,0.0,0.0,0.0,0.0,0.0,0.0,0.0,0.0,0.0,0.0,0.0,0.0,0.0,-1.3148,-1.3923,-1.5002,-1.4874,-1.4718,-1.4764,-1.4205,-1.3603,-1.3035,-1.2142,0.0,0.0,0.0,0.0,0.0,0.0,0.0,0.0,0.0,0.0,0.0,0.0,0.0,0.0,0.0,0.0,0.0,0.0,0.0,0.0,0.0,0.0,0.0,0.0,0.0,0.0,0.0,0.0,0.0,0.0,0.0,0.0,0.0,0.0,0.0,0.0,0.0,0.0,0.0,0.0,0.0,0.0,0.0,0.0,0.0,0.0,0.0,0.0,0.0,0.0,0.0,0.0,0.0,0.0,0.0,0.0,0.0,0.0,0.0,0.0,0.0,0.0,0.0,0.0,0.0,0.0,0.0,0.0,0.0,0.0,0.0,0.0,0.0,0.0,0.0,0.0,0.0,0.0,0.0,0.0,0.0,0.0,0.0,0.0,0.0,0.0,0.0,0.0,0.0,0.0,0.0,0.0,0.0,0.0,0.0,0.0,0.0,0.0,0.0,0.0,0.0,0.0,-1.3718,-1.3953,-1.4805,-1.4589,-1.4479,-1.4761,-1.4073,-1.3556,-1.3375,-1.2085,0.0,0.0,0.0,0.0,0.0,0.0,0.0,0.0,0.0,0.0,0.0,0.0,0.0,0.0,0.0,0.0,0.0,0.0,0.0,0.0,0.0,0.0,0.0,0.0,0.0,0.0,0.0,0.0,0.0,0.0,0.0,0.0,0.0,0.0,0.0,0.0,0.0,0.0,0.0,0.0,0.0,0.0,0.0,0.0,0.0,0.0,0.0,0.0,0.0,0.0,0.0,0.0,0.0,0.0,0.0,0.0,0.0,0.0,0.0,0.0,0.0,0.0,0.0,0.0,0.0,0.0,0.0,0.0,0.0,0.0,0.0,0.0,0.0,0.0,0.0,0.0,0.0,0.0,0.0,0.0,0.0,0.0,0.0,0.0,0.0,0.0,0.0,0.0,0.0,0.0,0.0,0.0,0.0,0.0,0.0,0.0,0.0,0.0,0.0,0.0,0.0,0.0,-1.3777,-1.4201,-1.4827,-1.4384,-1.4188,-1.4518,-1.3077,-1.2394,-1.301,-1.1274,0.0,0.0,0.0,0.0,0.0,0.0,0.0,0.0,0.0,0.0,0.0,0.0,0.0,0.0,0.0,0.0,0.0,0.0,0.0,0.0,0.0,0.0,0.0,0.0,0.0,0.0,0.0,0.0,0.0,0.0,0.0,0.0,0.0,0.0,0.0,0.0,0.0,0.0,0.0,0.0,0.0,0.0,0.0,0.0,0.0,0.0,0.0,0.0,0.0,0.0,0.0,0.0,0.0,0.0,0.0,0.0,0.0,0.0,0.0,0.0,0.0,0.0,0.0,0.0,0.0,0.0,0.0,0.0,0.0,0.0,0.0,0.0,0.0,0.0,0.0,0.0,0.0,0.0,0.0,0.0,0.0,0.0,0.0,0.0,0.0,0.0,0.0,0.0,0.0,0.0,0.0,0.0,0.0,0.0,0.0,0.0,0.0,0.0,0.0,0.0,0.0,0.0,-1.3426,-1.3548,0.0,-1.3522,-1.3158,-1.3251,-1.226,-1.1828,-1.2353,0.0,0.0,0.0,0.0,0.0,0.0,0.0,0.0,0.0,0.0,0.0,0.0,0.0,0.0,0.0,0.0,0.0,0.0,0.0,0.0,0.0,0.0,0.0,0.0,0.0,0.0,0.0,0.0,0.0,0.0,0.0,0.0,0.0,0.0,0.0,0.0,0.0,0.0,0.0,0.0,0.0,0.0,0.0,0.0,0.0,0.0,0.0,0.0,0.0,0.0,0.0,0.0,0.0,0.0,0.0,0.0,0.0,0.0,0.0,0.0,0.0,0.0,0.0,0.0,0.0,0.0,0.0,0.0,0.0,0.0,0.0,0.0,0.0,0.0,0.0,0.0,0.0,0.0,0.0,0.0,0.0,0.0,0.0,0.0,0.0,0.0,0.0,0.0,0.0,0.0,0.0,0.0,0.0,0.0,0.0,0.0,0.0,0.0,0.0,0.0,0.0,0.0,-1.3162,-1.3057,-1.3011,0.0,-1.275,-1.2348,-1.2401,-1.1597,-1.1246,-1.1668,0.0,0.0,0.0,0.0,0.0,0.0,0.0,0.0,0.0,0.0,0.0,0.0,0.0,0.0,0.0,0.0,0.0,0.0,0.0,0.0,0.0,0.0,0.0,0.0,0.0,0.0,0.0,0.0,0.0,0.0,0.0,0.0,0.0,0.0,0.0,0.0,0.0,0.0,0.0,0.0,0.0,0.0,0.0,0.0,0.0,0.0,0.0,0.0,0.0,0.0,0.0,0.0,0.0,0.0,0.0,0.0,0.0,0.0,0.0,0.0,0.0,0.0,0.0,0.0,0.0,0.0,0.0,0.0,0.0,0.0,0.0,0.0,0.0,0.0,0.0,0.0,0.0,0.0,0.0,0.0,0.0,0.0,0.0,0.0,0.0,0.0,0.0,0.0,0.0,0.0,0.0,0.0,0.0,0.0,0.0,0.0,0.0,0.0,0.0,0.0,0.0,0.0,-1.2884,-1.274,-1.2716,-1.3023,-1.2254,-1.1821,-1.2145,-1.1067,-1.0575,0.0,0.0,0.0,0.0,0.0,0.0,0.0,0.0,0.0,0.0,0.0,0.0,0.0,0.0,0.0,0.0,0.0,0.0,0.0,0.0,0.0,0.0,0.0,0.0,0.0,0.0,0.0,0.0,0.0,0.0,0.0,0.0,0.0,0.0,0.0,0.0,0.0,0.0,0.0,0.0,0.0,0.0,0.0,0.0,0.0,0.0,0.0,0.0,0.0,0.0,0.0,0.0,0.0,0.0,0.0,0.0,0.0,0.0,0.0,0.0,0.0,0.0,0.0,0.0,0.0,0.0,0.0,0.0,0.0,0.0,0.0,0.0,0.0,0.0,0.0,0.0,0.0,0.0,0.0,0.0,0.0,0.0,0.0,0.0,0.0,0.0,0.0,0.0,0.0,0.0,0.0,0.0,0.0,0.0,0.0,0.0,0.0,0.0,0.0,0.0,0.0,0.0,0.0,-1.2242,-1.2118,-1.1927,-1.1826,-1.1388,-1.1,-1.0884,-1.0064,-0.957,-0.9652,0.0,0.0,0.0,0.0,0.0,0.0,0.0,0.0,0.0,0.0,0.0,0.0,0.0,0.0,0.0,0.0,0.0,0.0,0.0,0.0,0.0,0.0,0.0,0.0,0.0,0.0,0.0,0.0,0.0,0.0,0.0,0.0,0.0,0.0,0.0,0.0,0.0,0.0,0.0,0.0,0.0,0.0,0.0,0.0,0.0,0.0,0.0,0.0,0.0,0.0,0.0,0.0,0.0,0.0,0.0,0.0,0.0,0.0,0.0,0.0,0.0,0.0,0.0,0.0,0.0,0.0,0.0,0.0,0.0,0.0,0.0,0.0,0.0,0.0,0.0,0.0,0.0,0.0,0.0,0.0,0.0,0.0,0.0,0.0,0.0,0.0,0.0,0.0,0.0,0.0,0.0,0.0,0.0,0.0,0.0,0.0,0.0,0.0,0.0,0.0,0.0,0.0,-1.1791,-1.1574,-1.1284,-1.1106,-1.068,-1.0355,-1.017,-0.9658,-0.9256,-0.9041,0.0,0.0,0.0,0.0,0.0,0.0,0.0,0.0,0.0,0.0,0.0,0.0,0.0,0.0,0.0,0.0,0.0,0.0,0.0,0.0,0.0,0.0,0.0,0.0,0.0,0.0,0.0,0.0,0.0,0.0,0.0,0.0,0.0,0.0,0.0,0.0,0.0,0.0,0.0,0.0,0.0,0.0,0.0,0.0,0.0,0.0,0.0,0.0,0.0,0.0,0.0,0.0,0.0,0.0,0.0,0.0,0.0,0.0,0.0,0.0,0.0,0.0,0.0,0.0,0.0,0.0,0.0,0.0,0.0,0.0,0.0,0.0,0.0,0.0,0.0,0.0,0.0,0.0,0.0,0.0,0.0,0.0,0.0,0.0,0.0,0.0,0.0,0.0,0.0,0.0,0.0,0.0,0.0,0.0,0.0,0.0,0.0,0.0,0.0,0.0,0.0,0.0,-1.1383,-1.1057,-1.0729,-1.0706,-1.0218,-0.9884,-0.9884,-0.9728,-0.943,-0.8927,0.0,0.0,0.0,0.0,0.0,0.0,0.0,0.0,0.0,0.0,0.0,0.0,0.0,0.0,0.0,0.0,0.0,0.0,0.0,0.0,0.0,0.0,0.0,0.0,0.0,0.0,0.0,0.0,0.0,0.0,0.0,0.0,0.0,0.0,0.0,0.0,0.0,0.0,0.0,0.0,0.0,0.0,0.0,0.0,0.0,0.0,0.0,0.0,0.0,0.0,0.0,0.0,0.0,0.0,0.0,0.0,0.0,0.0,0.0,0.0,-1.5618,0.0,0.0,0.0,0.0,0.0,0.0,0.0,0.0,0.0,0.0,0.0,0.0,0.0,0.0,0.0,0.0,0.0,0.0,0.0,0.0,0.0,0.0,0.0,0.0,0.0,0.0,0.0,0.0,0.0,0.0,0.0,0.0,0.0,0.0,0.0,0.0,0.0,0.0,0.0,0.0,0.0,-1.0378,-1.0393,-1.033,-1.0127,-0.9992,-0.9884,-0.9884,-0.9873,-0.9567,-0.8938,-0.8501,0.0,0.0,0.0,0.0,0.0,0.0,0.0,0.0,0.0,0.0,0.0,0.0,0.0,0.0,0.0,0.0,0.0,0.0,0.0,0.0,0.0,0.0,0.0,0.0,0.0,0.0,0.0,0.0,0.0,0.0,0.0,0.0,0.0,0.0,0.0,0.0,0.0,0.0,0.0,0.0,0.0,0.0,0.0,0.0,0.0,0.0,0.0,0.0,0.0,0.0,0.0,0.0,0.0,0.0,0.0,0.0,0.0,0.0,0.0,0.0,-1.5575,0.0,0.0,0.0,0.0,0.0,0.0,0.0,0.0,0.0,0.0,0.0,0.0,0.0,0.0,0.0,0.0,0.0,0.0,0.0,0.0,0.0,0.0,0.0,0.0,0.0,0.0,0.0,0.0,0.0,0.0,0.0,0.0,0.0,0.0,0.0,0.0,0.0,0.0,0.0,0.0,-1.0002,-1.0077,-1.0062,-0.9895,-0.9884,-0.9884,-0.9884,-0.9884,-0.9717,-0.9273,-0.8911,0.0,0.0,0.0,0.0,0.0,0.0,0.0,0.0,0.0,0.0,0.0,0.0,0.0,0.0,0.0,0.0,0.0,0.0,0.0,0.0,0.0,0.0,0.0,0.0,0.0,0.0,0.0,0.0,0.0,0.0,0.0,0.0,0.0,0.0,0.0,0.0,0.0,0.0,0.0,0.0,0.0,0.0,0.0,0.0,0.0,0.0,0.0,0.0,0.0,0.0,0.0,0.0,0.0,-1.644,-1.6517,-1.6662,-1.6718,-1.6642,-1.6415,-1.5051,-1.4964,-1.5756,-1.5657,0.0,0.0,0.0,0.0,0.0,0.0,0.0,0.0,0.0,0.0,0.0,0.0,0.0,0.0,0.0,0.0,0.0,0.0,0.0,0.0,0.0,0.0,0.0,0.0,-1.2354,-1.2413,0.0,0.0,0.0,0.0,0.0,0.0,0.0,0.0,0.0,0.0,0.0,0.0,-1.0013,-1.0003,-0.9986,-0.9986,-0.9943,-0.9884,-0.9884,-0.996,-0.9884,-0.9653,-0.93,-0.8942,0.0,0.0,0.0,0.0,0.0,0.0,0.0,0.0,0.0,0.0,0.0,0.0,0.0,0.0,0.0,0.0,0.0,0.0,0.0,0.0,0.0,0.0,0.0,0.0,0.0,0.0,0.0,0.0,0.0,0.0,0.0,0.0,-1.2261,-1.2719,0.0,0.0,0.0,0.0,0.0,0.0,0.0,0.0,0.0,0.0,0.0,0.0,0.0,-1.6907,-1.7462,-1.7194,-1.6954,-1.6762,-1.6684,-1.619,-1.5336,-1.5584,-1.5271,-1.456,-1.4339,0.0,-1.6456,-1.6461,0.0,0.0,0.0,0.0,0.0,0.0,0.0,0.0,0.0,0.0,0.0,0.0,0.0,0.0,0.0,0.0,0.0,0.0,0.0,0.0,0.0,0.0,-1.2158,-1.2097,-1.1948,-1.1751,0.0,-1.1228,-1.1136,-1.0548,-1.07,0.0,0.0,0.0,0.0,0.0,0.0,0.0,-1.0275,-1.0246,-1.0245,-1.0245,-1.0051,-0.9884,-0.9884,-1.0121,-1.0137,-0.989,-0.9814,-0.968,-0.9448,-0.9041,0.0,0.0,0.0,0.0,0.0,0.0,0.0,0.0,0.0,0.0,0.0,0.0,0.0,0.0,0.0,0.0,0.0,0.0,0.0,0.0,0.0,0.0,0.0,0.0,0.0,0.0,0.0,0.0,0.0,-1.2607,-1.2741,-1.3115,-1.3055,-1.3058,0.0,0.0,0.0,0.0,0.0,0.0,0.0,0.0,0.0,-1.6037,-1.6004,-1.6234,-1.6689,-1.6457,-1.6272,-1.6163,-1.6136,-1.5896,-1.5462,-1.5583,-1.5399,-1.5067,-1.4919,-1.5209,-1.5694,-1.5627,-1.5152,-1.4412,0.0,0.0,0.0,0.0,-1.3584,-1.3609,-1.3722,-1.367,-1.3536,-1.3098,0.0,0.0,0.0,0.0,0.0,0.0,0.0,0.0,0.0,0.0,-1.2253,-1.2253,-1.2274,-1.2231,-1.2,-1.186,-1.1553,0.0,-1.0653,-1.0499,-0.9479,0.0,0.0,0.0,0.0,-1.0224,-1.0105,-1.032,-1.0439,-1.0309,-1.0196,-1.0073,-0.9933,-1.0019,-1.004,-0.9927,-0.9884,-0.982,-0.9625,-0.9414,-0.9152,0.0,0.0,0.0,0.0,0.0,0.0,0.0,0.0,0.0,0.0,0.0,0.0,0.0,0.0,0.0,0.0,0.0,0.0,0.0,0.0,0.0,0.0,0.0,0.0,0.0,0.0,0.0,0.0,-1.3083,-1.3359,-1.3694,-1.376,-1.3677,0.0,0.0,0.0,0.0,0.0,0.0,-1.4943,-1.5277,-1.5612,-1.5832,-1.5814,-1.5925,-1.6175,-1.6144,-1.6091,-1.6023,-1.6023,-1.5898,-1.5722,-1.5722,-1.5631,-1.5502,-1.5367,-1.5181,-1.4939,-1.4791,-1.4527,-1.4192,-1.441,-1.4287,-1.398,-1.3894,-1.3842,-1.3859,-1.4084,-1.4088,-1.3973,-1.3547,-1.3343,-1.3206,-1.2559,0.0,0.0,0.0,0.0,-1.2225,-1.2501,-1.242,-1.231,-1.231,-1.2346,-1.2308,-1.2036,-1.1895,-1.1528,0.0,-1.0699,-1.0512,-0.9712,0.0,0.0,0.0,0.0,-1.0109,-1.0227,-1.0447,-1.0554,-1.0482,-1.0417,-1.0304,-1.0116,-1.0051,-1.0013,-1.0013,-0.9954,-0.9841,-0.9674,-0.9728,-0.9611,-0.9215,0.0,0.0,0.0,0.0,0.0,0.0,0.0,0.0,0.0,0.0,0.0,0.0,0.0,0.0,0.0,0.0,0.0,0.0,0.0,0.0,0.0,0.0,0.0,0.0,0.0,0.0,0.0,0.0,0.0,-1.4208,-1.4435,0.0,0.0,0.0,0.0,-1.4623,-1.536,-1.5809,-1.5764,-1.6269,-1.6605,-1.6806,-1.6834,-1.696,-1.7205,-1.7222,-1.7103,-1.6851,-1.6851,-1.6422,-1.5682,-1.5682,-1.544,-1.4942,-1.4926,-1.4915,-1.4906,-1.4708,-1.4316,-1.381,-1.3639,-1.3383,-1.3123,-1.2947,-1.285,-1.2856,-1.2883,-1.2741,-1.2541,-1.279,-1.2707,-1.2603,-1.2806,-1.2489,0.0,0.0,-1.2496,-1.2413,-1.2424,-1.2225,-1.2009,-1.2009,-1.1629,-1.119,-1.0934,-1.0882,-1.1022,0.0,-1.1413,-1.1112,-1.0608,0.0,-1.0832,-1.0544,-1.0533,-1.0726,-1.1177,-1.086,-1.0678,-1.0929,-1.0751,-1.0571,-1.056,-1.0401,-1.0277,-1.0277,-1.0051,-0.9879,-0.99,-1.0132,-0.9944,-0.921,-0.8846,0.0,0.0,0.0,0.0,0.0,0.0,0.0,0.0,0.0,0.0,0.0,0.0,0.0,0.0,0.0,0.0,0.0,0.0,0.0,0.0,0.0,0.0,0.0,0.0,0.0,0.0,0.0,0.0,-1.4716,-1.5083,0.0,-1.5227,-1.5258,-1.5396,-1.558,-1.6042,-1.6344,-1.6494,-1.6839,-1.711,-1.7165,-1.692,-1.6898,-1.6982,-1.6746,-1.664,-1.6485,-1.6485,-1.6315,-1.5872,-1.5872,-1.5682,-1.5338,-1.5187,-1.5065,-1.509,-1.4899,-1.4499,-1.4038,-1.3669,-1.3449,-1.3373,-1.3272,-1.3272,-1.3251,-1.3039,-1.2926,-1.285,-1.2835,-1.273,-1.2723,-1.2805,-1.2717,-1.2601,-1.2684,-1.2458,-1.2154,-1.2154,-1.1823,-1.1487,-1.1487,-1.1345,-1.1175,-1.1099,-1.1036,-1.1139,-1.132,-1.1051,-1.0622,-1.0152,-1.0218,-1.0149,-0.9758,-1.0105,-1.0465,-1.063,-1.089,-1.1026,-1.0993,-1.0907,-1.0547,-0.9785,-0.9612,-0.937,-0.9055,-0.8851,-0.8694,-0.8546,-0.8659,-0.8347,-0.7655,-0.7414,-0.7032,0.0,0.0,0.0,0.0,0.0,0.0,0.0,0.0,0.0,0.0,0.0,0.0,0.0,0.0,0.0,0.0,0.0,0.0,0.0,0.0,0.0,0.0,0.0,0.0,0.0,-1.3992,-1.4663,-1.5084,-1.5558,-1.5859,-1.583,-1.5976,-1.6162,-1.6364,-1.6672,-1.6873,-1.6993,-1.7236,-1.7303,-1.7172,-1.6978,-1.6853,-1.6853,-1.6669,-1.6506,-1.6431,-1.6431,-1.6307,-1.6131,-1.6044,-1.5926,-1.5704,-1.5467,-1.5306,-1.529,-1.5106,-1.4826,-1.4503,-1.4024,-1.3787,-1.3712,-1.3626,-1.3593,-1.3556,-1.3313,-1.3179,-1.3077,-1.2926,-1.2726,-1.2516,-1.2516,-1.2419,-1.2273,-1.2273,-1.198,-1.1736,-1.1736,-1.134,-1.0949,-1.0949,-1.0801,-1.0654,-1.0654,-1.0654,-1.0654,-1.0654,-1.0628,-1.0496,-1.0184,-1.0121,-1.0064,-0.9923,-1.0109,-1.0325,-1.0497,-1.0735,-1.0811,-1.0693,-1.0418,-0.9978,-0.9159,-0.8755,-0.8371,-0.799,-0.783,-0.7696,-0.7522,-0.7575,-0.7328,-0.6734,-0.643,-0.6091,-0.5683,0.0,0.0,0.0,0.0,0.0,0.0,0.0,0.0,0.0,0.0,0.0,0.0,0.0,0.0,0.0,0.0,0.0,0.0,0.0,0.0,0.0,0.0,0.0,-1.343,-1.4445,-1.5221,-1.5343,-1.5914,-1.6237,-1.6123,-1.6524,-1.6848,-1.6928,-1.7349,-1.7427,-1.7122,-1.7343,-1.7335,-1.7007,-1.7001,-1.7001,-1.7001,-1.7001,-1.6894,-1.6736,-1.6736,-1.6554,-1.6317,-1.6136,-1.6023,-1.6007,-1.5715,-1.5612,-1.5591,-1.5301,-1.5199,-1.5145,-1.4673,-1.4406,-1.4175,-1.3933,-1.383,-1.3787,-1.3566,-1.3324,-1.3064,-1.3064,-1.2613,-1.1991,-1.1991,-1.1644,-1.1194,-1.1194,-1.1194,-1.1198,-1.1198,-1.0806,-1.0364,-1.0364,-0.9969,-0.9579,-0.9579,-0.9579,-0.9579,-0.9579,-1.0215,-1.0758,-1.0758,-1.058,-1.0626,-1.118,-1.0632,0.0,-1.091,-1.0406,-1.0013,-0.996,-0.934,-0.8894,-0.8846,-0.7975,-0.7376,-0.7263,-0.7128,-0.7019,-0.6947,-0.7123,-0.7001,-0.6516,-0.6016,-0.5505,-0.5069,0.0,0.0,0.0,0.0,0.0,0.0,0.0,0.0,0.0,0.0,0.0,0.0,0.0,0.0,0.0,0.0,0.0,0.0,0.0,0.0,0.0,-1.4746,-1.4418,-1.4458,-1.5057,-1.5628,-1.597,-1.6387,-1.6617,-1.6711,-1.6885,-1.6977,-1.6976,-1.709,-1.7097,-1.7038,-1.7098,-1.7071,-1.7001,-1.7001,-1.7001,-1.7001,-1.7001,-1.6974,-1.691,-1.691,-1.6791,-1.6565,-1.6558,-1.6371,-1.6204,-1.6017,-1.5909,-1.5893,-1.5601,-1.5402,-1.5161,-1.4912,-1.4649,-1.4433,-1.4309,-1.4062,-1.3809,-1.375,-1.3308,-1.2756,-1.2756,-1.2249,-1.163,-1.163,-1.142,-1.1194,-1.1194,-1.09,-1.0609,-1.0609,-1.0216,-0.9826,-0.9826,-0.9727,-0.9579,-0.9579,-0.9579,-0.9579,-0.9579,-0.9784,-0.9943,-0.9943,-0.9786,-0.9754,-0.9897,-0.9923,0.0,-1.0122,-1.0255,-1.0112,-0.9504,-0.9219,-0.8581,-0.7217,-0.6718,-0.6354,-0.5999,-0.5782,-0.5618,-0.5553,-0.5587,-0.5358,-0.474,-0.4515,-0.4392,0.0,0.0,0.0,0.0,0.0,0.0,0.0,0.0,0.0,0.0,0.0,0.0,0.0,0.0,0.0,0.0,0.0,0.0,0.0,0.0,0.0,0.0,-1.651,-1.6048,-1.6232,-1.6139,-1.6145,-1.6431,-1.6662,-1.6861,-1.699,-1.7001,-1.7001,-1.7001,-1.7001,-1.7001,-1.7001,-1.7001,-1.7001,-1.7001,-1.7001,-1.7001,-1.7001,-1.7001,-1.7001,-1.7001,-1.7001,-1.6937,-1.6802,-1.6769,-1.6587,-1.6447,-1.6204,-1.6102,-1.6081,-1.5844,-1.5487,0.0,0.0,0.0,0.0,0.0,-1.3912,-1.3545,-1.3273,-1.2861,-1.2415,-1.2415,-1.1855,-1.1216,-1.1189,-1.0925,-1.0658,-1.0529,-1.0314,-1.0068,-1.0068,-0.9821,-0.9579,-0.9579,-0.9579,-0.9579,-0.9579,-0.9579,-0.9579,-0.9579,-0.9579,0.0,-0.9579,-0.9539,-0.9567,-0.9805,-0.9697,-0.9716,-0.9904,-0.9643,-0.9225,-0.87,-0.8068,-0.7218,-0.6104,-0.5613,0.0,0.0,0.0,-0.4746,-0.4681,-0.4678,0.0,0.0,0.0,0.0,0.0,0.0,0.0,0.0,-0.4531,-0.4461,0.0,0.0,0.0,0.0,0.0,0.0,0.0,0.0,0.0,0.0,0.0,0.0,0.0,0.0,0.0,0.0,-1.8431,-1.7887,-1.8199,-1.7455,-1.689,-1.6763,-1.6883,-1.7001,-1.7001,-1.7001,-1.7001,-1.7001,-1.7001,-1.7001,-1.7001,-1.7001,0.0,0.0,0.0,-1.7001,-1.7001,-1.7001,-1.7001,-1.7001,-1.7001,-1.7001,-1.6996,-1.6727,-1.6636,-1.6625,-1.6264,-1.6101,-1.608,-1.5902,-1.5425,-1.4872,-1.4959,-1.4881,-1.4607,-1.3872,-1.3487,-1.3187,-1.2638,0.0,0.0,-1.2046,-1.1489,-1.0832,-1.0723,-1.0332,-0.9851,-0.9701,-0.9595,-0.9579,-0.9579,-0.9579,-0.9579,-0.9579,-0.9579,-0.9579,-0.9579,-0.9579,-0.9579,-0.9579,-0.9579,-0.9579,-0.9579,-0.9579,-0.9776,-1.0216,-0.9782,-0.9529,-0.9857,-0.8767,-0.787,-0.7712,0.0,0.0,-0.5412,-0.4727,-0.4285,-0.4266,-0.4289,-0.4295,-0.4266,-0.4289,-0.433,-0.433,-0.441,-0.4496,-0.4587,-0.4669,-0.4671,-0.4596,-0.4359,-0.4369,0.0,0.0,0.0,0.0,0.0,0.0,0.0,0.0,0.0,0.0,0.0,0.0,0.0,0.0,0.0,-1.9427,-1.9376,-1.9056,-1.8546,-1.8273,-1.7825,-1.7065,-1.698,-1.7001,-1.7001,-1.7001,-1.7001,-1.7001,-1.7001,-1.7001,-1.7001,-1.7001,-1.7001,-1.7001,-1.7001,-1.7001,-1.7001,-1.7001,-1.7001,-1.7001,0.0,0.0,-1.7001,-1.6382,-1.6167,-1.6087,-1.5283,-1.4935,-1.492,-1.4644,-1.4389,-1.4066,-1.3764,-1.363,-1.3568,-1.3246,-1.2979,-1.2793,-1.2682,-1.2215,-1.1674,-1.1674,-1.1168,-1.0482,-1.0445,-1.0223,0.0,-0.9843,-0.9734,-0.9579,-0.9579,-0.9579,-0.9579,-0.9579,-0.9579,-0.9579,-0.9579,-0.9579,-0.9579,-0.9579,-0.9579,-0.9579,-0.9579,-0.9579,-0.9628,-0.9727,-0.9645,-0.9375,-0.878,-0.8459,-0.7805,-0.6429,-0.601,-0.553,-0.4834,-0.4553,-0.4432,-0.4538,-0.4557,-0.4559,-0.4542,-0.4557,-0.452,-0.452,-0.4536,-0.4591,-0.4683,-0.47,-0.4734,-0.4781,-0.473,-0.4698,0.0,0.0,0.0,0.0,0.0,0.0,0.0,0.0,0.0,0.0,0.0,-1.838,-1.9527,0.0,-2.003,-2.0944,-2.0601,-1.9916,-1.9346,-1.8688,-1.7963,-1.7066,-1.7001,-1.7001,-1.7001,-1.7001,-1.7001,-1.7001,-1.7001,-1.7001,-1.7001,-1.7001,-1.7001,-1.7001,-1.7001,-1.6812,-1.6488,-1.6488,-1.6294,-1.5969,-1.5969,-1.5969,-1.5969,-1.5578,-1.5453,-1.5443,-1.4947,-1.477,-1.4692,-1.4102,-1.3716,-1.3421,-1.2855,-1.2894,-1.3231,-1.291,-1.2625,-1.2373,-1.2001,-1.1625,-1.1257,-1.116,-1.0904,-1.055,-1.0407,-1.0306,-1.0123,-0.9937,-0.9823,-0.9738,-0.9648,-0.9579,-0.9579,-0.9579,-0.9579,-0.9579,-0.9579,-0.9579,-0.9579,-0.9579,-0.9579,-0.9579,-0.9579,-0.9579,-0.9579,-0.9579,-0.9579,-0.9327,-0.8482,-0.8035,-0.731,-0.6062,-0.5564,-0.5125,-0.4693,-0.4557,-0.4524,-0.4616,-0.4621,-0.4621,-0.4621,-0.4616,-0.464,-0.464,-0.4683,-0.4726,-0.4771,-0.4771,-0.4744,-0.4784,-0.4784,-0.4762,0.0,0.0,0.0,0.0,0.0,0.0,0.0,-1.745,-1.7905,-1.8621,-1.8947,-1.9451,-2.0548,-2.0886,-2.1289,-2.2348,-2.1717,-2.083,-2.028,-1.9271,-1.8284,-1.7529,-1.7195,-1.7001,-1.7001,-1.7001,-1.7023,-1.7071,-1.7077,-1.7093,-1.7141,-1.7011,-1.6945,-1.6945,-1.675,-1.6402,-1.5839,-1.5839,-1.5558,-1.4866,-1.4866,-1.4866,-1.4866,-1.48,-1.4735,-1.467,-1.4539,-1.4473,-1.446,-1.3742,-1.3223,-1.2875,-1.2242,-1.2452,-1.3008,-1.2513,-1.2201,-1.1891,-1.1289,-1.1025,-1.0944,-1.0794,-1.072,-1.0668,-1.0526,-1.0407,-1.0322,-1.0075,-0.9965,-0.9896,-0.9726,-0.9677,-0.9669,-0.9587,-0.9579,-0.9579,-0.9579,-0.9579,-0.9579,-0.9579,-0.9579,-0.9579,-0.9579,-0.948,-0.9426,-0.9579,-0.9476,-0.908,-0.8283,-0.7487,-0.6639,-0.5842,-0.5122,-0.4732,-0.4732,-0.4665,-0.4624,-0.4624,-0.4624,-0.4624,-0.4624,-0.4694,-0.4732,-0.4732,-0.475,-0.4784,-0.4784,-0.4784,-0.4784,-0.4784,-0.4784,-0.4784,-1.6043,-1.5906,-1.669,-1.8003,-1.7756,-1.756,0.0,-1.9062,-1.9088,-2.0174,-2.0476,-2.0598,-2.0972,-2.1561,-2.1972,-2.2103,-2.2452,-2.2319,-2.1058,-2.0741,-2.0238,-1.9032,-1.7781,-1.7001,-1.7001,-1.7001,-1.7098,-1.7319,-1.7335,-1.7426,-1.7626,-1.7032,-1.6628,-1.6628,-1.6025,-1.5524,-1.5267,-1.5262,-1.5172,-1.4866,-1.4866,-1.4866,-1.4866,-1.4272,-1.401,-1.401,-1.3293,-1.3034,-1.3021,-1.2771,-1.2668,-1.2599,-1.2154,-1.2065,-1.2135,-1.1922,-1.1749,-1.1581,-1.1447,-1.1236,-1.102,-1.0944,-1.0826,-1.0688,-1.0668,-1.0558,-1.0375,-1.033,-1.0257,-1.0143,-0.9904,-0.9855,-0.9819,-0.9665,-0.9579,-0.9579,-0.9579,-0.9579,-0.9579,-0.9579,-0.9579,-0.9579,-0.9579,-0.9031,-0.8783,-0.948,-0.8981,-0.8233,-0.7437,-0.6639,-0.5839,-0.5035,-0.4826,-0.477,-0.477,-0.4762,-0.4756,-0.4756,-0.4756,-0.4756,-0.4756,-0.4764,-0.477,-0.477,-0.4778,-0.4784,-0.4784,-0.4784,-0.4784,-0.4784,-0.4784,-0.4784,-1.8557,-1.8086,-1.8004,-1.8185,-1.851,-1.8844,-1.9419,-1.9619,-1.984,-2.0557,-2.0846,-2.0991,-2.1047,-2.146,-2.1862,-2.2038,-2.2232,-2.2075,-2.1109,-2.0817,-2.0282,-1.9237,-1.8559,-1.791,-1.7071,-1.6294,-1.5864,-1.6088,-1.6103,-1.6198,-1.6423,-1.6162,-1.5958,-1.5958,-1.5691,-1.5236,-1.4738,-1.4625,-1.4325,-1.3847,-1.3739,-1.3687,-1.3687,-1.3358,-1.3293,-1.3227,-1.2902,-1.277,-1.2832,-1.2755,-1.2661,-1.254,-1.2288,-1.2125,-1.2008,-1.1841,-1.1727,-1.1646,-1.1537,-1.1403,-1.1244,-1.1037,-1.0915,-1.0834,-1.0724,-1.0643,-1.0562,-1.0411,-1.0379,-1.0278,-1.0147,-0.9965,-0.9868,-0.9795,-0.9701,-0.9579,-0.9579,-0.9579,-0.9579,-0.9579,-0.9579,-0.9579,-0.9579,-0.8931,-0.8531,-0.8829,-0.863,-0.8134,-0.7288,-0.6889,-0.6187,-0.4935,-0.4784,-0.4784,-0.4784,-0.4784,-0.4784,-0.4784,-0.4784,-0.4784,-0.4784,-0.4784,-0.4784,-0.4784,-0.4784,-0.4784,-0.4784,-0.4784,-0.4784,-0.4786,-0.489,-0.4914,-2.0345,-1.9727,-1.9069,-1.872,-1.9277,-1.9887,-1.976,-2.0114,-2.0535,-2.0748,-2.0962,-2.1109,-2.1109,-2.1349,-2.1715,-2.1937,-2.2051,-2.1879,-2.1343,-2.109,-2.0624,-1.9755,-1.9322,-1.8676,-1.7641,-1.6289,-1.5429,-1.53,-1.5256,-1.5374,-1.5711,-1.545,-1.5376,-1.5376,-1.5174,-1.4802,-1.419,-1.4062,-1.3671,-1.3092,-1.2966,-1.2881,-1.277,-1.277,-1.277,-1.277,-1.277,-1.277,-1.277,-1.277,-1.2759,-1.2621,-1.2446,-1.2296,-1.215,-1.1931,-1.1817,-1.1756,-1.1622,-1.1541,-1.1455,-1.12,-1.1106,-1.0944,-1.081,-1.0733,-1.0668,-1.0542,-1.0505,-1.0465,-1.0282,-1.0136,-1.001,-0.9908,-0.9786,-0.9685,-0.9591,-0.9579,-0.9579,-0.9579,-0.9579,-0.9579,-0.9579,-0.873,-0.8134,-0.8382,-0.8035,-0.7537,-0.6939,-0.6686,-0.6087,-0.4935,-0.4784,-0.4784,-0.4784,-0.4784,-0.4784,-0.4784,-0.4784,-0.4784,-0.4784,-0.4784,-0.4784,-0.4784,-0.4784,-0.4784,-0.4784,-0.4784,-0.4784,-0.4786,-0.4928,-0.4986,-2.0001,-1.971,-1.9395,-2.0168,-2.024,-2.0294,-2.0575,-2.0869,-2.1082,-2.1096,-2.1102,-2.1109,-2.1109,-2.1349,-2.1715,-2.1937,-2.2218,-2.2305,-2.2024,-2.1977,-2.1757,-2.1112,-1.9814,-1.8972,-1.8908,-1.77,-1.654,-1.558,-1.5477,-1.5656,-1.6141,-1.5443,-1.5013,-1.5013,-1.4307,-1.3807,-1.3636,-1.3632,-1.3449,-1.3092,-1.3088,-1.2999,-1.277,-1.277,-1.277,-1.277,-1.277,-1.277,-1.277,-1.277,-1.2832,-1.2808,-1.2625,-1.2616,-1.2503,-1.215,-1.1918,-1.1776,-1.1768,-1.165,-1.1496,-1.1488,-1.1248,-1.1024,-1.0964,-1.0834,-1.0688,-1.0684,-1.0684,-1.0643,-1.0473,-1.037,-1.0274,-0.9969,-0.988,-0.9831,-0.9665,-0.9579,-0.9579,-0.9579,-0.9579,-0.9579,-0.9579,-0.8283,-0.7487,-0.8283,-0.7089,-0.6042,-0.6042,-0.5338,-0.4834,-0.4784,-0.4784,-0.4784,-0.4784,-0.4784,-0.4784,-0.4784,-0.4784,-0.4784,-0.4784,-0.4784,-0.4784,-0.4784,-0.4784,-0.4784,-0.4784,-0.4784,-0.4784,-0.4786,-0.4928,-0.5018,-2.0493,-2.0438,-2.0405,-1.9557,-1.9767,-2.0299,-2.0588,-2.0853,-2.1056,-2.0862,-2.0822,-2.0762,-2.0568,-2.0929,-2.1356,-2.165,-2.2104,-2.2385,-2.2285,-2.2271,-2.2058,-2.1476,-2.1011,-2.0278,-1.9118,-1.7818,-1.6529,-1.5503,-1.54,-1.5238,-1.4666,-1.4395,-1.4252,-1.4252,-1.4043,-1.3872,-1.3815,-1.3701,-1.3522,-1.3275,-1.3039,-1.2893,-1.277,-1.277,-1.277,-1.277,-1.277,-1.277,-1.277,-1.277,-1.277,-1.282,-1.2633,-1.2628,-1.26,-1.23,-1.2101,-1.1926,-1.1817,-1.1736,-1.1663,-1.1541,-1.1334,-1.1118,-1.1005,-1.0838,-1.0692,-1.0692,-1.0692,-1.068,-1.0623,-1.0521,-1.035,-1.0278,-1.0156,-1.0018,-0.9839,-0.9799,-0.9766,-0.9648,-0.9579,-0.9579,-0.9579,-0.873,-0.7733,-0.6939,-0.6339,-0.5992,-0.5992,-0.5288,-0.4784,-0.4784,-0.4784,-0.4784,-0.4784,-0.4784,-0.4784,-0.4784,-0.4784,-0.4784,-0.4784,-0.4784,-0.4784,-0.4784,-0.4784,-0.4784,-0.4784,-0.4784,-0.4867,-0.4928,-0.502,-0.5112,-2.1285,-2.1472,-2.1559,-2.0433,-2.0402,-2.0715,-2.0902,-2.0823,-2.0687,-2.0396,-2.0293,-2.0154,-1.996,-2.0234,-2.0688,-2.1296,-2.1797,-2.2178,-2.2392,-2.2418,-2.2245,-2.1829,-2.171,-2.1299,-2.0192,-1.9261,-1.8076,-1.6383,-1.6342,-1.6127,-1.5566,-1.5026,-1.4675,-1.4675,-1.4185,-1.39,-1.39,-1.379,-1.3612,-1.3368,-1.3072,-1.2897,-1.277,-1.277,-1.277,-1.277,-1.277,-1.277,-1.277,-1.277,-1.277,-1.2758,-1.2706,-1.2661,-1.2637,-1.2462,-1.232,-1.2186,-1.1951,-1.1829,-1.1756,-1.1638,-1.1472,-1.1301,-1.1191,-1.0984,-1.0789,-1.0789,-1.0745,-1.0692,-1.0692,-1.0611,-1.0513,-1.0395,-1.0343,-1.0209,-1.0073,-0.9933,-0.9851,-0.9592,-0.952,-0.943,-0.9327,-0.863,-0.7584,-0.5937,-0.5639,-0.5589,-0.5589,-0.5135,-0.4784,-0.4784,-0.4784,-0.4784,-0.4784,-0.4784,-0.4784,-0.4784,-0.4784,-0.4784,-0.4784,-0.4784,-0.4784,-0.4784,-0.4784,-0.4784,-0.4784,-0.4867,-0.4914,-0.5027,-0.5098,-0.5134,-2.236,-2.2546,-2.2759,-2.2521,-2.1917,-2.1463,-2.1423,-2.0752,-2.0054,-1.9694,-1.9483,-1.9312,-1.9279,-1.9325,-1.974,-2.0875,-2.1349,-2.1784,-2.2385,-2.2465,-2.2358,-2.2084,-2.2038,-2.2024,-2.2011,-2.2004,-2.0867,-1.8177,-1.8121,-1.828,-1.8369,-1.6987,-1.6221,-1.6221,-1.4746,-1.4043,-1.4043,-1.3963,-1.3713,-1.3368,-1.3185,-1.3003,-1.277,-1.277,-1.277,-1.277,-1.277,-1.277,-1.277,-1.277,-1.277,-1.277,-1.277,-1.277,-1.275,-1.2641,-1.2637,-1.2515,-1.2162,-1.1935,-1.1788,-1.178,-1.165,-1.15,-1.15,-1.1256,-1.1037,-1.1028,-1.0842,-1.0704,-1.0692,-1.0692,-1.0651,-1.0485,-1.0395,-1.0396,-1.0213,-1.0038,-0.9861,-0.9548,-0.9369,-0.9107,-0.884,-0.8141,-0.7089,-0.5529,-0.5081,-0.4834,-0.4734,-0.4734,-0.4734,-0.4734,-0.4734,-0.4734,-0.4734,-0.4734,-0.4734,-0.4734,-0.4734,-0.4734,-0.4734,-0.4734,-0.4734,-0.4734,-0.4738,-0.474,-0.474,-0.4832,-0.4928,-0.4938,-0.5056,-0.5138,-2.2503,-2.268,-2.2782,-2.1939,-2.1112,-2.058,-2.0759,-1.9986,-1.9097,-1.8609,-1.8332,-1.8,-1.7579,-1.837,-1.9364,-2.009,-2.1192,-2.2158,-2.2979,-2.3093,-2.3066,-2.2993,-2.2779,-2.2552,-2.2331,-2.2305,-2.197,-2.1286,-2.0262,-1.9313,-1.8438,-1.8035,-1.7825,-1.7825,-1.6362,-1.5518,-1.5518,-1.4335,-1.3595,-1.3368,-1.3185,-1.3003,-1.277,-1.277,-1.277,-1.277,-1.277,-1.277,-1.277,-1.277,-1.277,-1.277,-1.277,-1.277,-1.2832,-1.2783,-1.2682,-1.2532,-1.2312,-1.2117,-1.1947,-1.1817,-1.165,-1.15,-1.15,-1.1342,-1.1131,-1.1005,-1.0936,-1.0867,-1.0729,-1.0692,-1.068,-1.0635,-1.0627,-1.0578,-1.0404,-1.0327,-1.0148,-0.9756,-0.9438,-0.9215,-0.9034,-0.8353,-0.7655,-0.7095,-0.6434,-0.5434,-0.3831,-0.3632,-0.3632,-0.3632,-0.3632,-0.3632,-0.3632,-0.3632,-0.3632,-0.3632,-0.3632,-0.3632,-0.3632,-0.3632,-0.3632,-0.3632,-0.3678,-0.3702,-0.3702,-0.3719,-0.3778,-0.3882,-0.4349,-0.4561,-2.3308,-2.3222,-2.2965,-2.2936,-2.1873,-2.0728,-2.0637,-1.9447,-1.8159,-1.7434,-1.7137,-1.6861,-1.6489,-1.7309,-1.8285,-1.9114,-2.0335,-2.1503,-2.2497,-2.2885,-2.3087,-2.3219,-2.3184,-2.2999,-2.2832,-2.2692,-2.2612,-2.2612,-2.1858,-2.1096,-2.0403,-1.971,-1.9367,-1.9367,-1.7895,-1.7127,-1.7127,-1.6172,-1.532,-1.4509,-1.4395,-1.3865,-1.295,-1.295,-1.2777,-1.2572,0.0,-1.2638,-1.2375,-1.2704,-1.2704,-1.2572,-1.277,-1.277,-1.277,-1.277,-1.2771,-1.2657,-1.2483,-1.2304,-1.2109,-1.1857,-1.1707,-1.1622,-1.1622,-1.1492,-1.1309,-1.1131,-1.1025,-1.0928,-1.0741,-1.0692,-1.0692,-1.0692,-1.0692,-1.0668,-1.0566,-1.0377,-1.0056,-0.9463,-0.9119,-0.8985,-0.8998,-0.8515,-0.8017,-0.7521,-0.6998,-0.6026,-0.4336,-0.3972,-0.3732,-0.323,-0.318,-0.318,-0.318,-0.318,-0.318,-0.318,-0.318,-0.318,-0.318,-0.3204,-0.3267,-0.3267,-0.3272,-0.3302,-0.3302,-0.3362,-0.3408,-0.3497,-0.3851,-0.4052,-2.4369,-2.4016,-2.3496,-2.4535,-2.3116,-2.1292,-2.0791,-1.8982,-1.7154,-1.6326,-1.597,-1.5802,-1.5764,-1.6227,-1.6994,-1.8186,-1.9286,-2.0424,-2.1645,-2.2375,-2.2884,-2.3262,-2.3304,-2.3317,-2.3387,-2.3066,-2.2928,-2.2928,-2.2928,-2.2928,-2.2928,-2.1609,-2.0837,-2.0629,-1.9367,-1.8589,-1.8315,-1.8315,-1.757,-1.6046,-1.6046,-1.5092,-1.3263,-1.3239,-1.2877,-1.2277,-1.2584,-1.2309,-1.1846,-1.2441,-1.2507,-1.2243,-1.2572,-1.2638,-1.2638,-1.2638,-1.2638,-1.268,-1.2495,-1.2339,-1.2158,-1.1926,-1.1797,-1.1776,-1.1776,-1.1663,-1.1437,-1.1251,-1.1036,-1.088,-1.0671,-1.0618,-1.061,-1.0586,-1.0582,-1.0582,-1.0582,-1.0244,-0.9716,-0.9104,-0.8758,-0.8646,-0.8839,-0.8674,-0.8292,-0.758,-0.7264,-0.6737,-0.5629,-0.5006,-0.4248,-0.3342,-0.3083,-0.2981,-0.299,-0.299,-0.2992,-0.3,-0.3,-0.3,-0.3,-0.3044,-0.3067,-0.3067,-0.3122,-0.3097,-0.3097,-0.3207,-0.3289,-0.3291,-0.3396,-0.3475,-2.4369,-2.4646,-2.4535,-2.4765,-2.2863,-2.0847,-2.0527,-1.8245,0.0,-1.5412,-1.5099,-1.4863,-1.4625,-1.545,-1.6496,-1.7604,-1.8703,-2.01,-2.1849,-2.2218,-2.2672,-2.373,-2.351,-2.3332,-2.3694,-2.3187,-2.2928,-2.2928,-2.2928,-2.2928,-2.2928,-2.2654,-2.1953,-2.0629,-2.0346,-1.9437,-1.79,-1.79,-1.7511,-1.6822,-1.6822,-1.5931,-1.4262,-1.4168,-1.3344,-1.2049,-1.1973,0.0,-1.178,-1.1912,-1.1912,-1.1912,-1.1978,-1.1978,-1.1978,-1.1978,-1.1978,-1.1952,-1.1781,-1.1702,-1.1686,-1.1915,-1.189,-1.1776,-1.1776,-1.1563,-1.1315,-1.1087,-1.0844,-1.0518,-1.0213,-1.0134,-1.01,-0.996,-0.9981,-0.9981,-0.9981,-0.9739,-0.9439,-0.9359,-0.9078,-0.8818,-0.875,-0.8672,-0.8571,-0.8338,-0.8269,-0.7846,-0.6737,-0.4902,-0.3557,-0.3403,-0.2496,-0.188,-0.1962,-0.1964,-0.1976,-0.1951,-0.1953,-0.1953,-0.1953,-0.1958,-0.1961,-0.1961,-0.2049,-0.2068,-0.2068,-0.2104,-0.2122,-0.2122,-0.2632,-0.2862,-2.2647,-2.2854,-2.2854,-2.2854,-2.1755,-2.039,-1.9252,0.0,0.0,-1.4953,-1.4702,-1.463,-1.4346,-1.4991,-1.5808,-1.6606,-1.7537,-1.8747,-2.0519,-2.1227,-2.1982,-2.3041,-2.3145,-2.3137,-2.3138,-2.2793,-2.2473,-2.2323,-2.2317,-2.2523,-2.2866,-2.2928,-2.2578,-2.1816,-2.1816,-2.1252,-2.0138,-2.0138,-1.9525,-1.8314,-1.8314,-1.701,-1.4664,-1.4567,-1.3539,-1.1756,-1.1877,-1.1662,-1.1251,-1.1648,-1.1648,-1.1516,-1.1714,-1.178,-1.178,-1.178,-1.178,-1.1769,-1.1687,-1.1601,-1.1486,-1.1626,-1.1619,-1.1646,-1.1744,-1.1712,-1.1487,-1.1134,-1.0905,-1.0675,-1.0252,-1.0069,-0.9987,-0.9909,-0.9824,-0.9761,-0.9596,-0.9489,-0.9323,-0.9158,-0.8995,-0.8861,-0.8842,-0.8828,-0.8804,-0.873,-0.872,-0.8504,-0.8011,-0.6391,-0.5088,-0.4465,-0.3285,-0.2605,-0.2628,-0.2052,-0.1954,-0.2608,-0.2023,-0.197,-0.2609,-0.2041,-0.1728,-0.1728,-0.1758,-0.1774,-0.1774,-0.1788,-0.1795,-0.1795,-0.2076,-0.2592,-2.0985,-2.1123,-2.1123,-2.1123,-2.0619,-1.9727,-1.8068,-1.7417,0.0,-1.4698,-1.4521,-1.463,-1.4346,-1.4648,-1.5143,-1.5783,-1.6519,-1.7581,-1.93,-2.0252,-2.1294,-2.2402,-2.2746,-2.2778,-2.265,-2.2351,-2.2065,-2.1785,-2.1766,-2.2042,-2.266,-2.266,-2.266,-2.266,-2.266,-2.2448,-2.2104,-2.2035,-2.127,-1.975,-1.975,-1.8309,-1.5556,-1.5167,-1.3859,-1.1871,-1.1842,-1.1333,-1.0721,-1.1317,-1.138,-1.1118,-1.1449,-1.1582,-1.1582,-1.1582,-1.1582,-1.1582,-1.1582,-1.1428,-1.1293,-1.1268,-1.1332,-1.1441,-1.1521,-1.153,-1.1378,-1.0998,-1.0781,-1.0625,-1.0226,-1.0033,-0.9924,-0.9854,-0.9741,-0.9584,-0.9331,-0.9268,-0.9213,-0.8937,-0.8885,-0.8885,-0.8885,-0.8885,-0.8885,-0.8885,-0.8885,-0.8885,-0.8885,-0.8063,-0.7137,-0.6183,-0.475,-0.3782,-0.3529,-0.2622,-0.2519,-0.3443,-0.2637,-0.2637,-0.3872,-0.3052,-0.258,-0.258,-0.2337,-0.2297,-0.2576,-0.2297,-0.2297,-0.2577,-0.2587,-0.3174,-2.0701,-2.1123,-2.1123,-2.1123,-1.9886,-1.8529,-1.7861,0.0,-1.5454,-1.4467,-1.4521,-1.463,-1.4346,-1.434,-1.4702,-1.5722,-1.6368,-1.7376,-1.9211,-2.0208,-2.1148,-2.2354,-2.2453,-2.2487,-2.2572,-2.2351,-2.2065,-2.1785,-2.1766,-2.1835,-2.1904,-2.1904,-2.1904,-2.1904,-2.1904,-2.1697,-2.1283,-2.1276,-2.1075,-2.0596,-2.0596,-1.9669,-1.8019,-1.648,-1.4889,-1.3114,-1.1682,-1.086,0.0,-1.0787,-1.0787,-1.0721,-1.0787,-1.0787,-1.0787,-1.0787,-1.0787,-1.0787,-1.0787,-1.0777,-1.0805,-1.0976,-1.1038,-1.1009,-1.0902,-1.0668,-1.0425,-1.0407,-1.0165,-0.9889,-0.9685,-0.9637,-0.9555,-0.9336,-0.9257,-0.9209,-0.8967,-0.8937,-0.8937,-0.8885,-0.8885,-0.8885,-0.8885,-0.8885,-0.8885,-0.8885,-0.8885,-0.8885,-0.8885,-0.8816,-0.8689,-0.8566,-0.6493,-0.4704,-0.3585,-0.3374,-0.3396,-0.3561,-0.3509,-0.3952,-0.517,-0.5123,-0.5071,-0.5071,-0.3967,-0.397,-0.5083,-0.397,-0.397,-0.5085,-0.5221,-0.5319,-1.8641,-1.9351,-1.9825,-1.9138,-1.8701,-1.8119,-1.6904,-1.656,-1.6119,-1.4607,-1.4521,-1.463,-1.4346,-1.4298,-1.4545,-1.53,-1.5602,-1.6278,-1.7823,-1.8728,-1.9724,-2.0989,-2.155,-2.1879,-2.1919,-2.1802,-2.1626,-2.1181,-2.1151,-2.1151,-2.1151,-2.1559,-2.1766,-2.1766,-2.1766,-2.1628,-2.1214,-2.1214,-2.1006,-2.0665,-2.0665,-1.9889,-1.8331,-1.6629,-1.4967,-1.334,-1.1618,-1.0796,0.0,-1.0721,-1.0721,-1.0721,-1.0721,-1.0721,-1.0721,-1.0721,-1.0721,-1.0721,-1.0721,-1.0721,-1.0694,-1.0671,-1.067,-1.0714,-1.0896,-1.0745,-1.0547,-1.0365,-1.0183,-1.0051,-0.9811,-0.9673,-0.9554,-0.934,-0.9347,-0.9249,-0.91,-0.9066,-0.9042,-0.8898,-0.8885,-0.8885,-0.8885,-0.8885,-0.8885,-0.8885,-0.8885,-0.8885,-0.8885,-0.8885,-0.8885,-0.8885,-0.7396,-0.6208,-0.5696,-0.5033,-0.4659,-0.4691,-0.4693,-0.4916,-0.5361,-0.5417,-0.5417,-0.5417,-0.4916,-0.494,-0.5499,-0.5049,-0.5074,-0.5641,-0.5679,-0.6132,-1.7071,-1.7848,-1.8577,-1.7713,-1.7704,-1.7533,-1.6227,-1.6304,-1.6221,-1.4649,-1.4521,-1.4654,-1.4461,-1.4419,-1.46,-1.5137,-1.5421,-1.5988,-1.7159,-1.8082,-1.9048,-2.0146,-2.0847,-2.1239,-2.1239,-2.1239,-2.1082,-2.0696,-2.0665,-2.0665,-2.0665,-2.122,-2.149,-2.149,-2.149,-2.1352,-2.1075,-2.1075,-2.0943,-2.0665,-2.0665,-2.0104,-1.9036,-1.6837,-1.5238,-1.3951,-1.1818,-1.0796,0.0,-1.0721,-1.0721,-1.0721,-1.0721,-1.0721,-1.0721,-1.0721,-1.0721,-1.0721,-1.0721,-1.0721,-1.0704,-1.0595,-1.0527,-1.0511,-1.0759,-1.0689,-1.0487,-1.0258,-1.0122,-1.0122,-0.9883,-0.9747,-0.9635,-0.9486,-0.9449,-0.9408,-0.9309,-0.9241,-0.918,-0.9022,-0.8967,-0.8885,-0.8885,-0.8885,-0.8885,-0.8885,-0.8885,-0.8885,-0.8885,-0.8885,-0.8885,-0.8885,-0.8156,-0.7487,-0.7154,-0.6366,-0.5919,-0.5919,-0.5919,-0.6086,-0.642,-0.6505,-0.6522,-0.6522,-0.6217,-0.6268,-0.6747,-0.6343,-0.6438,-0.6864,-0.6899,-0.7444,-1.6628,-1.7086,-1.7537,-1.7485,-1.7092,-1.6561,-1.6012,-1.5686,-1.527,-1.4461,-1.4521,-1.4714,-1.4714,-1.4714,-1.4883,-1.5409,-1.6163,-1.696,-1.775,-1.8782,-1.9658,-2.0213,-2.0515,-2.0678,-2.0678,-2.0678,-2.0747,-2.0665,-2.0665,0.0,-2.0665,-2.0741,-2.0741,-2.0741,-2.0741,-2.0741,-2.0741,-2.0741,-2.0665,-2.0665,-2.0665,-2.0665,-2.0584,-1.7392,-1.5789,-1.5508,-1.2289,-1.0796,0.0,-1.0721,-1.0721,-1.0721,-1.0721,-1.0721,-1.0721,-1.0721,-1.0721,-1.0721,-1.0721,-1.0721,-1.0721,-1.0717,-1.0616,-1.0466,-1.0321,-1.0171,-0.9953,-0.9863,-0.9822,-0.9822,-0.9822,-0.9819,-0.9781,-0.9642,-0.9608,-0.9564,-0.9412,-0.9316,-0.921,-0.9207,-0.9035,-0.8885,-0.8885,-0.8885,-0.8885,-0.8885,-0.8885,-0.8885,-0.8885,-0.8885,-0.8885,-0.8885,-0.8881,-0.838,-0.721,-0.7096,-0.7096,-0.7096,-0.7096,-0.7598,-0.8826,-0.9076,-0.915,-0.915,-0.8138,-0.8145,-0.9378,-0.8148,-0.8209,-0.9384,-0.9478,-0.9623,-1.5807,-1.6133,-1.6392,-1.6392,-1.6133,-1.5789,-1.5439,-1.5155,-1.4896,-1.4636,-1.4654,-1.4775,-1.495,-1.4986,-1.5215,-1.5922,-1.6247,0.0,-1.7491,-1.8529,-1.9398,-1.9947,-2.0726,-2.1142,-2.1026,-2.0844,-2.0665,-2.0665,-2.0665,-2.0665,-2.0665,-2.0665,-2.0665,-2.0665,-2.0665,-2.0665,-2.0665,-2.0665,-2.0665,-2.0665,-2.0665,-2.0173,-1.903,-1.6815,-1.5174,-1.4011,-1.1769,-1.0765,-1.0721,-1.0721,-1.0721,-1.0721,-1.0721,-1.0721,-1.0721,-1.0721,-1.0721,-1.0721,-1.0721,-1.0721,-1.0721,-1.0721,-1.0687,-1.0619,-1.047,-1.0249,-0.9957,-0.9866,-0.9822,-0.9822,-0.9822,-0.9822,-0.9812,-0.9764,-0.9754,-0.9713,-0.9568,-0.95,-0.9401,-0.9251,-0.9173,-0.9055,-0.8898,-0.8885,-0.8885,-0.8885,-0.8885,-0.8885,-0.8885,-0.8885,-0.8885,-0.8885,-0.8885,-0.8771,-0.838,-0.8325,-0.7989,-0.7152,-0.8015,-0.8348,-0.7892,-0.8825,-0.931,-0.931,-0.9007,-0.9078,-0.9537,-0.918,-0.9225,-0.9683,-0.973,-0.9778,-1.5252,-1.5614,-1.5891,-1.5891,-1.5692,-1.5433,-1.5167,-1.4908,-1.4714,-1.4714,-1.4714,-1.4829,-1.5191,-1.5252,-1.5481,-1.6169,-1.6368,-1.6718,-1.7521,-1.8463,-1.9314,-1.9959,-2.0708,-2.1064,-2.0792,-2.0708,-2.0665,-2.0665,-2.0665,-2.0665,-2.0665,-2.0665,-2.0665,-2.0665,-2.0665,-2.0665,-2.0665,-2.0665,-2.0388,-1.982,-1.982,-1.9036,-1.7463,-1.5642,-1.4301,-1.3331,-1.1513,-1.0721,0.0,-1.0721,-1.0721,-1.0721,-1.0721,-1.0721,-1.0721,-1.0721,-1.0721,-1.0721,-1.0721,-1.0721,-1.0721,-1.0721,-1.068,-1.0605,-1.0456,-1.0243,-0.9957,-0.9866,-0.9822,-0.9822,-0.9822,-0.9822,-0.9822,-0.9822,-0.9822,-0.9795,-0.9707,-0.9646,-0.9554,-0.9361,-0.9337,-0.9211,-0.912,-0.9106,-0.9106,-0.9106,-0.9106,-0.9083,-0.9028,-0.9018,-0.9018,-0.9018,-0.9018,-0.9042,-0.9103,-0.8946,-0.8628,-0.7944,-0.8705,-0.889,-0.8196,-0.9033,-0.9466,-0.9466,-0.952,-0.9595,-0.969,-0.969,-0.9734,-0.9822,-0.9822,-0.9822,0.0,-1.5421,-1.5807,-1.5807,-1.5626,-1.5378,-1.5137,-1.4896,0.0,-1.4769,-1.4775,-1.4938,-1.5487,-1.5565,-1.5741,-1.6302,-1.6616,-1.705,-1.7823,-1.8638,-1.9452,-2.0237,-2.0551,-2.0593,-2.0327,-2.0527,-2.0665,-2.0665,-2.0665,-2.0665,-2.0665,-2.0665,-2.0665,-2.0665,-2.0665,-2.0665,-2.0665,-2.0665,-1.9959,-1.8406,-1.8406,-1.7554,-1.5905,-1.4198,-1.3352,0.0,-1.1446,-1.0721,-1.0721,-1.0721,-1.0721,-1.0721,-1.0721,-1.0721,-1.0721,-1.0721,-1.0721,-1.0721,-1.0721,-1.0721,-1.0721,-1.0721,-1.0622,-1.048,-1.0337,-1.0181,-0.9957,-0.9866,-0.9822,-0.9822,-0.9822,-0.9822,-0.9822,-0.9822,-0.9822,-0.9822,-0.9822,-0.9717,-0.9622,-0.9612,-0.9496,-0.9395,-0.9384,-0.9381,-0.9381,-0.9381,-0.9381,-0.933,-0.9245,-0.9224,-0.9224,-0.9224,-0.9224,-0.9282,-0.9367,-0.9127,-0.9028,-0.9217,-0.9234,-0.9306,-0.9391,-0.9544,-0.9625,-0.9625,-0.9754,-0.9822,-0.9822,-0.9822,-0.9822,-0.9822,-0.9822,-0.9822,-1.4455,0.0,-1.4992,-1.4992,-1.4944,-1.4883,0.0,-1.4763,-1.4829,-1.5234,-1.5318,-1.5541,-1.6284,-1.6241,-1.6404,-1.7346,-1.7557,-1.7811,-1.8408,-1.9362,-2.0213,-2.0874,-2.1001,-2.0935,-2.0605,-2.0629,-2.0665,-2.0665,-2.0665,-2.0665,-2.0665,-2.0665,-2.0665,-2.0665,-2.0665,-2.0665,-2.0665,-2.0665,-1.9959,-1.8406,-1.8406,-1.6992,-1.4361,-1.3718,-1.2803,-1.1692,-1.098,-1.0721,-1.0721,-1.0721,-1.0721,-1.0721,-1.0721,-1.0721,-1.0721,-1.0721,-1.0721,-1.0721,-1.0721,-1.0721,-1.0721,-1.0721,-1.0697,-1.0636,-1.0487,-1.0259,-0.9957,-0.9866,-0.9822,-0.9822,-0.9822,-0.9822,-0.9822,-0.9822,-0.9822,-0.9822,-0.9822,-0.9795,-0.9741,-0.9632,-0.9581,-0.9517,-0.9401,-0.9381,-0.9381,-0.9381,-0.9381,-0.9367,-0.9334,-0.9327,-0.9327,-0.9327,-0.9327,-0.9344,-0.9378,-0.9317,-0.9289,-0.9323,-0.9439,-0.9517,-0.9554,-0.9693,-0.9771,-0.9771,-0.9802,-0.9822,-0.9822,-0.9822,-0.9822,-0.9822,-0.9822,-0.9822,-1.4455,-1.4775,-1.5077,-1.5077,-1.5077,-1.5077,-1.5077,-1.4986,-1.501,-1.5415,-1.5499,-1.5704,-1.638,-1.6489,-1.6742,-1.7563,-1.7793,-1.8191,-1.9108,-1.9839,-2.0472,-2.1068,-2.1128,-2.1026,-2.0765,-2.0665,-2.0665,-2.0665,-2.0665,-2.0665,-2.0665,-2.0665,-2.0665,-2.0665,-2.0665,-2.0665,-2.0665,-2.0028,-1.8896,-1.7338,-1.6639,-1.5106,-1.2772,-1.2591,-1.1949,-1.1056,-1.0894,-1.0785,-1.0721,-1.0721,-1.0721,-1.0721,-1.0721,-1.0721,-1.0721,-1.0721,-1.0721,-1.0721,-1.0721,-1.0721,-1.0721,-1.0721,-1.0721,-1.069,-1.0538,-1.0382,-1.0222,-1.0073,-1.0032,-1.0015,-0.9944,-0.9866,-0.9849,-0.9839,-0.9822,-0.9822,-0.9822,-0.9822,-0.9798,-0.9724,-0.9707,-0.968,-0.9598,-0.9585,-0.9585,-0.9585,-0.9585,-0.9557,-0.9493,-0.9486,-0.9486,-0.9486,-0.9486,-0.9513,-0.9578,-0.9585,-0.9554,-0.949,-0.9564,-0.9639,-0.9703,-0.9781,-0.9822,-0.9822,-0.9822,-0.9822,-0.9822,-0.9822,-0.9822,-0.9822,-0.9822,-0.9859,-1.463,-1.5155,-1.5602,-1.5517,-1.5529,-1.5547,-1.5511,0.0,0.0,0.0,-1.5559,-1.5734,-1.6302,-1.6604,-1.696,-1.7569,-1.7919,-1.8547,-1.9772,-2.014,-2.0454,-2.1013,-2.1074,-2.0983,-2.069,-2.0665,-2.0665,-2.0665,-2.0665,-2.0665,-2.0665,-2.0665,-2.0665,-2.0665,-2.0457,-2.0382,-2.0382,-1.9041,-1.7484,-1.5778,-1.4486,-1.2988,-1.1389,-1.1345,-1.1185,-1.088,0.0,0.0,-1.0721,-1.0721,-1.0721,-1.0721,-1.0721,-1.0721,-1.0721,-1.0721,-1.0721,-1.0721,-1.0721,-1.0721,-1.0721,-1.0721,-1.0721,-1.0697,-1.0565,-1.0527,-1.0504,-1.0382,-1.0317,-1.0249,-1.0117,-1.0024,-0.9984,-0.9893,-0.9856,-0.9849,-0.9825,-0.9822,-0.9822,-0.9822,-0.9822,-0.9822,-0.9822,-0.9822,-0.9822,-0.9822,-0.9822,-0.9778,-0.9656,-0.9642,-0.9642,-0.9642,-0.9642,-0.969,-0.9812,-0.9822,-0.9771,-0.9649,-0.9642,-0.9696,-0.9815,-0.9822,-0.9822,-0.9822,-0.9822,-0.9822,-0.9822,-0.9842,-0.9842,-0.9822,-0.9869,-0.9947,-1.4582,-1.5421,-1.6054,-1.5608,-1.5662,-1.5771,-1.5553,-1.5469,0.0,0.0,0.0,-1.606,-1.6827,-1.7002,-1.7352,-1.8342,-1.8909,-1.9458,-2.0122,-2.0249,-2.0388,-2.069,-2.0726,-2.0783,-2.0671,-2.0665,-2.0665,-2.0665,-2.0665,-2.0665,-2.0665,-2.0665,-2.0665,-2.0665,-1.9396,-1.8762,-1.8762,-1.8552,-1.6992,-1.4231,-1.3862,-1.2943,-1.1382,-1.1131,-1.0924,-1.0873,0.0,-1.0741,-1.0721,-1.0721,-1.0721,-1.0721,-1.0721,-1.0721,-1.0721,-1.0721,-1.0721,-1.0721,-1.0721,-1.0721,-1.0721,-1.0721,-1.0721,-1.0717,-1.0694,-1.0683,-1.068,-1.066,-1.0473,-1.0276,-1.0253,-1.0246,-1.0205,-0.999,-0.9953,-0.9916,-0.9849,-0.9822,-0.9822,-0.9822,-0.9822,-0.9822,-0.9822,-0.9822,-0.9822,-0.9822,-0.9822,-0.9815,-0.9791,-0.9788,-0.9788,-0.9788,-0.9788,-0.9798,-0.9819,-0.9822,-0.9812,-0.9788,-0.9788,-0.9798,-0.9819,-0.9822,-0.9822,-0.9822,-0.9822,-0.9822,-0.9822,-0.9889,-0.9886,-0.9829,-1.0086,-1.0151,-1.4383,-1.5264,-1.6048,-1.5958,-1.6241,-1.6452,-1.616,-1.5969,-1.5849,0.0,0.0,-1.6186,-1.6715,-1.7009,-1.7571,-1.8366,-1.8924,-1.9393,-1.9929,-2.0143,-2.0376,-2.0635,-2.0665,-2.0665,-2.0665,-2.0665,-2.0665,-2.0665,-2.0665,-2.0665,-2.0665,-2.0665,-2.0312,-1.9465,-1.8762,-1.763,-1.6004,-1.6004,-1.5296,-1.388,-1.3022,-1.2125,-1.1267,-1.1212,-1.1056,-1.0759,0.0,-1.0799,-1.0721,-1.0721,-1.0721,-1.0721,-1.0721,-1.0721,-1.0721,-1.0721,-1.0721,-1.0721,-1.0721,-1.0721,-1.0721,-1.0721,-1.0721,-1.0721,-1.0721,-1.0721,-1.0721,-1.0721,-1.0622,-1.0497,-1.0415,-1.0395,-1.0358,-1.0209,-1.011,-0.9967,-0.9899,-0.988,-0.9822,-0.9822,-0.9822,-0.9822,-0.9822,-0.9822,-0.9822,-0.9822,-0.9822,-0.9822,-0.9822,-0.9822,-0.9822,-0.9822,-0.9822,-0.9822,-0.9822,-0.9822,-0.9822,-0.9822,-0.9822,-0.9822,-0.9822,-0.9822,-0.9822,-0.9822,-0.9097,-0.8761,-0.8761,-0.8899,-0.8929,-0.8872,-0.9829,-1.0283,-1.4292,-1.5083,-1.5897,-1.6302,-1.6652,-1.6879,-1.6655,-1.6364,-1.6156,0.0,0.0,-1.631,-1.6463,-1.7026,-1.7721,-1.8365,-1.8829,-1.916,-1.9621,-1.9959,-2.0236,-2.0509,-2.0533,-2.0596,-2.0665,-2.0665,-2.0665,-2.0665,-2.0665,-2.0665,-2.0665,-2.0328,-1.9588,-1.8395,-1.7687,-1.621,-1.389,-1.3508,-1.3389,-1.3317,-1.2109,-1.1389,-1.1234,-1.1212,-1.1046,-1.0727,-1.0779,-1.0762,-1.0721,-1.0721,-1.0721,-1.0721,-1.0721,-1.0721,-1.0721,-1.0721,-1.0721,-1.0721,-1.0721,-1.0721,-1.0721,-1.0721,-1.0721,-1.0721,-1.0721,-1.0721,-1.0721,-1.0721,-1.0721,-1.0694,-1.0575,-1.0544,-1.051,-1.0365,-1.0239,-1.0081,-1.0048,-0.9981,-0.9873,-0.9873,-0.9846,-0.9822,-0.9822,-0.9822,-0.9822,-0.9822,-0.9822,-0.9822,-0.9822,-0.9822,-0.9822,-0.9822,-0.9822,-0.9822,-0.9822,-0.9515,-0.9329,-0.9329,-0.9636,-0.9822,-0.9822,-0.9822,-0.9653,-0.9381,-0.8426,-0.7739,-0.7449,-0.7946,-0.8119,-0.8159,-0.9704,-1.0422,-1.4479,-1.5101,-1.571,-1.6483,-1.6501,-1.6416,-1.6584,-1.637,0.0,-1.6389,0.0,-1.6492,-1.6473,-1.7131,-1.7937,-1.865,-1.897,-1.9278,-1.9548,-1.9657,-1.9802,-2.011,-2.0116,-2.0324,-2.0665,-2.0665,-2.0665,-2.0665,-2.0665,-2.0665,-2.0665,-1.9244,-1.8347,-1.821,-1.5505,-1.3908,-1.3698,-1.2394,-1.176,-1.1756,-1.1401,-1.1255,-1.1224,-1.0887,-1.0751,-1.0721,-1.0731,-1.0731,-1.0721,-1.0721,-1.0721,-1.0721,-1.0721,-1.0721,-1.0721,-1.0721,-1.0721,-1.0721,-1.0721,-1.0721,-1.0721,-1.0721,-1.0721,-1.0721,-1.0721,-1.0721,-1.0721,-1.0721,-1.0721,-1.0717,-1.0707,-1.0704,-1.0666,-1.0514,-1.047,-1.0426,-1.0293,-1.0141,-0.997,-0.997,-0.9856,-0.9822,-0.9822,-0.9822,-0.9822,-0.9822,-0.9822,-0.9822,-0.9822,-0.9822,-0.9822,-0.9822,-0.9822,-0.9822,-0.9822,-0.8714,-0.8041,-0.8041,-0.9147,-0.9822,-0.9822,-0.9822,-0.9268,-0.8084,-0.797,-0.7335,-0.6157,-0.7614,-0.8267,-0.8161,-0.9898,-1.0619,-1.4087,-1.4817,-1.5506,-1.5862,-1.6051,0.0,0.0,-1.6452,-1.6352,-1.6398,-1.6519,0.0,-1.6848,-1.7102,-1.7449,-1.8028,-1.8401,-1.8806,-1.9136,-1.9471,-1.968,-1.9756,-1.9756,-1.9901,-2.0318,-2.0318,-2.0463,-2.0671,-1.982,-1.9258,-1.9169,-1.7612,-1.626,-1.5234,-1.4134,-1.3104,-1.2139,-1.165,-1.1335,-1.1335,-1.1314,-1.1253,-1.1155,-1.0955,-1.0809,-1.0721,-1.0721,-1.0721,-1.0721,-1.0721,-1.0721,-1.0721,-1.0721,-1.0721,-1.0721,-1.0721,-1.0721,-1.0721,-1.0721,-1.0721,-1.0721,-1.0721,-1.0721,-1.0721,-1.0721,-1.0721,-1.0721,-1.0721,-1.0721,-1.0721,-1.0721,-1.0721,-1.0707,-1.0649,-1.0561,-1.0477,-1.0422,-1.0297,-1.0195,-1.0195,-1.0148,-1.0107,-1.0107,-1.0107,-1.0073,-0.9916,-0.9903,-0.9866,-0.9832,-0.91,-0.8591,-0.8591,-0.791,-0.7396,-0.7378,-0.681,-0.6388,-0.6333,-0.6999,-0.7365,-0.7365,-0.7372,-0.7055,-0.6342,-0.5565,-0.4794,-0.4169,-0.5747,-0.6037,-0.5084,-0.7597,-0.8214,-1.3285,-1.4171,-1.5144,-1.505,0.0,0.0,-1.5834,-1.6183,-1.6425,-1.6515,-1.6656,-1.6672,-1.6467,-1.6706,-1.6947,-1.7021,-1.7644,-1.8292,-1.8712,-1.9058,-1.9267,-1.9407,-1.9401,-1.9547,-1.9901,-1.9471,-1.9326,-1.9599,-1.8185,-1.7237,-1.7146,-1.5767,-1.441,-1.3202,-1.2793,-1.2114,-1.1094,-1.1138,-1.1231,-1.1231,-1.1223,-1.1196,-1.109,-1.0945,-1.0819,-1.0721,-1.0721,-1.0721,-1.0721,-1.0721,-1.0721,-1.0721,-1.0721,-1.0721,-1.0721,-1.0721,-1.0721,-1.0721,-1.0721,-1.0721,-1.0721,-1.0721,-1.0721,-1.0721,-1.0721,-1.0721,-1.0721,-1.0721,-1.0721,-1.0721,-1.0721,-1.0721,-1.0721,-1.0721,-1.0639,-1.0565,-1.0565,-1.0449,-1.0348,-1.0348,-0.9924,-0.9634,-0.9634,-0.9249,-0.8895,-0.8743,-0.8729,-0.8693,-0.8603,-0.7856,-0.7272,-0.7144,-0.6383,-0.5797,-0.5615,-0.5032,-0.4663,-0.4619,-0.449,-0.4727,-0.5567,-0.5585,-0.5262,-0.465,-0.3773,-0.3031,-0.2384,-0.3941,-0.4159,-0.329,-0.5698,-0.6299,-1.2121,-1.3159,-1.4476,-1.4055,-1.3769,-1.376,-1.4446,-1.5494,-1.6524,-1.692,-1.6824,-1.6286,-1.507,-1.5846,-1.6443,-1.5707,-1.6761,-1.7816,-1.8288,-1.8358,-1.8498,-1.8912,-1.8982,-1.9117,-1.9535,-1.818,-1.7253,-1.7253,-1.583,-1.4894,-1.4766,-1.3563,-1.2786,-1.2677,-1.1546,-1.088,-1.088,-1.1087,-1.1227,-1.1158,-1.1016,-1.088,-1.0877,-1.0792,-1.0721,-1.0721,-1.0721,-1.0721,-1.0721,-1.0721,-1.0721,-1.0721,-1.0721,-1.0721,-1.0721,-1.0721,-1.0721,-1.0721,-1.0721,-1.0721,-1.0721,-1.0721,-1.0721,-1.0721,-1.0721,-1.0721,-1.0721,-1.0721,-1.0721,-1.0721,-1.0721,-1.0721,-1.0654,-1.0721,-1.0721,-1.0654,-1.0654,-1.0533,-1.0429,-1.0429,-0.9144,-0.8095,-0.8095,-0.694,-0.5977,-0.5977,-0.5977,-0.5977,-0.5976,-0.5976,-0.5847,-0.5525,-0.5459,-0.5267,-0.4878,-0.3727,-0.2958,-0.2958,-0.1739,-0.2174,-0.4774,-0.4841,-0.4268,-0.3022,-0.2958,-0.2385,-0.1077,-0.2486,-0.3156,-0.3223,-0.4695,-0.5364,-1.145,-1.1919,-1.2435,-1.2867,-1.2735,-1.2599,-1.2774,-1.404,0.0,0.0,-1.4721,-1.3848,-1.3513,-1.3739,-1.3932,-1.3914,-1.4235,-1.4661,-1.4913,-1.4949,-1.5018,-1.5151,-1.5151,-1.5284,-1.5692,-1.5344,-1.5137,-1.5412,-1.4035,-1.306,-1.289,-1.1557,-1.0863,-1.0919,-1.0585,-1.0521,-1.0789,-1.0829,-1.085,-1.085,-1.0809,-1.0779,-1.0877,-1.0792,-1.0721,-1.0721,-1.0721,-1.0721,-1.0721,-1.0721,-1.0721,-1.0721,-1.0721,-1.0721,-1.0721,-1.0721,-1.0721,-1.0721,-1.0721,-1.0721,-1.0721,-1.0721,-1.0721,-1.0721,-1.0721,-1.0721,-1.0721,-1.0721,-1.0721,-1.0721,-1.0721,-0.9981,-0.9446,-1.0452,-0.9915,-0.9244,-0.9244,-0.8344,-0.7587,-0.7587,-0.7233,-0.6883,-0.6883,-0.6551,-0.6267,-0.6143,-0.6133,-0.5678,-0.4374,-0.4048,-0.346,-0.2419,-0.2375,-0.2369,-0.2192,-0.1625,-0.1238,-0.1226,-0.0651,-0.0845,-0.2112,-0.214,-0.19,-0.1251,-0.1263,-0.0938,-0.0337,-0.1748,-0.1949,-0.1009,-0.2418,-0.2553,-1.0216,-1.067,-1.1258,-1.1498,-1.1371,-1.1223,-1.1457,-1.2766,-1.3911,-1.4027,-1.339,-1.2598,-1.2076,-1.2405,-1.2724,-1.244,-1.2807,-1.3271,-1.3448,-1.3472,-1.3472,-1.3472,-1.3472,-1.3605,-1.3806,-1.3327,-1.3054,-1.3259,-1.1895,-1.0943,-1.0796,-1.0051,-0.9725,-0.9791,-1.0057,-1.0323,-1.0522,-1.0654,-1.0721,-1.0721,-1.0721,-1.0768,-1.0789,-1.0761,-1.0721,-1.0721,-1.0721,-1.0721,-1.0721,-1.0721,-1.0721,-1.0721,-1.0721,-1.0721,-1.0721,-1.0721,-1.0721,-1.0721,-1.0721,-1.0721,-1.0721,-1.0721,-1.0721,-1.0721,-1.0721,-1.0721,-1.0721,-1.0721,-1.0721,-1.0585,-0.9981,-0.9244,-0.8842,-0.9646,-0.8773,-0.7702,-0.7702,-0.7034,-0.6433,-0.6433,-0.5832,-0.5366,-0.5366,-0.4762,-0.4282,-0.4182,-0.4176,-0.3779,-0.2654,-0.2389,-0.1859,-0.093,-0.087,-0.0802,-0.0591,-0.0397,-0.0331,-0.0328,-0.0132,-0.0199,-0.0591,-0.0595,-0.0532,-0.0332,-0.0268,-0.0202,0.0,-0.0874,-0.0807,0.0,-0.0874,-0.0807,-0.8603,-0.9398,-1.0444,-1.0178,-0.9928,-0.9816,-1.0412,-1.1487,-1.2467,-1.2598,-1.2533,-1.201,-1.0767,-1.1552,-1.206,-1.1011,-1.1978,-1.2839,-1.3058,-1.3082,-1.3082,-1.3082,-1.3082,-1.3082,-1.3082,-1.1787,-1.097,-1.097,-0.967,-0.887,-0.8758,-0.9089,-0.9171,-0.912,-0.9721,-1.0123,-1.0127,-1.0522,-1.0654,-1.0654,-1.0721,-1.0721,-1.0721,-1.0721,-1.0721,-1.0721,-1.0721,-1.0721,-1.0721,-1.0721,-1.0721,-1.0721,-1.0721,-1.0721,-1.0721,-1.0721,-1.0721,-1.0721,-1.0721,-1.0721,-1.0721,-1.0721,-1.0721,-1.0721,-1.0721,-1.0721,-1.0654,-1.0518,-1.0518,-1.0183,-0.8773,-0.8307,-0.824,-0.824,-0.7169,-0.6233,-0.6233,-0.6099,-0.6032,-0.6032,-0.4765,-0.3628,-0.3628,-0.2219,-0.1144,-0.1077,-0.1077,-0.1077,-0.1077,-0.101,-0.0875,-0.0471,-0.0471,-0.0337,0.0,0.0,0.0,0.0,0.0,0.0,0.0,0.0,0.0,0.0,0.0,0.0,0.0,0.0,0.0,0.0,0.0,0.0,-0.8095,-0.8224,-0.842,-0.9408,-0.9266,-0.8884,-0.9033,-0.9313,-0.9842,-1.0899,-1.0303,-0.938,-0.9117,-0.9313,-0.9455,-0.9151,-0.9422,-0.9631,-0.9658,-0.9661,-0.9661,-0.9661,-0.9661,-0.9661,-0.9661,-0.9332,-0.9131,-0.9131,-0.8865,-0.8655,-0.8628,-0.8695,-0.8881,-0.9117,-0.925,-0.9522,-0.9794,-1.0127,-1.0323,-1.0323,-1.0588,-1.0721,-1.0721,-1.0721,-1.0721,-1.0721,-1.0721,-1.0721,-1.0721,-1.0721,-1.0721,-1.0721,-1.0721,-1.0721,-1.0721,-1.0721,-1.0721,-1.0721,-1.0721,-1.0721,-1.0721,-1.0721,-1.0721,-1.0721,-1.0721,-1.0721,-1.0452,-0.9377,-0.9042,-0.8706,-0.7234,-0.6034,-0.5237,-0.5237,-0.4969,-0.4768,-0.4768,-0.3897,-0.3093,-0.3093,-0.2826,-0.2422,-0.2153,-0.175,-0.1414,-0.1144,-0.0808,-0.0606,-0.0606,-0.0404,-0.0202,-0.0135,-0.0135,-0.0067,0.0,0.0,0.0,0.0,0.0,0.0,0.0,0.0,0.0,0.0,0.0,0.0,0.0,0.0,0.0,0.0,0.0,0.0,-0.7427,-0.7543,-0.7646,-0.8614,-0.8767,-0.8587,-0.8587,-0.8587,-0.8787,-0.9513,-0.9117,-0.8587,-0.8587,-0.8587,-0.8587,-0.8587,-0.8587,-0.8587,-0.8587,-0.8587,-0.8587,-0.8587,-0.8587,-0.8587,-0.8587,-0.8587,-0.8587,-0.8587,-0.8587,-0.8587,-0.8587,-0.8587,-0.8653,-0.8851,-0.8984,-0.9186,-0.9389,-0.9794,-1.006,-1.0193,-1.0389,-1.0522,-1.0721,-1.0721,-1.0721,-1.0721,-1.0721,-1.0721,-1.0721,-1.0721,-1.0721,-1.0721,-1.0721,-1.0721,-1.0721,-1.0721,-1.0721,-1.0721,-1.0721,-1.0721,-1.0721,-1.0721,-1.0721,-1.0721,-1.0721,-1.025,-0.9513,-0.8776,-0.8105,-0.7236,-0.5767,-0.4833,-0.41,-0.343,-0.3295,-0.3295,-0.3295,-0.2692,-0.2155,-0.1953,-0.175,-0.1548,-0.1144,-0.0942,-0.0808,-0.0606,-0.0404,-0.0269,-0.0269,-0.0135,0.0,0.0,0.0,0.0,0.0,0.0,0.0,0.0,0.0,0.0,0.0,0.0,0.0,0.0,0.0,0.0,0.0,0.0,0.0,0.0,0.0,0.0,-0.6771,-0.7124,-0.7449,-0.8027,-0.8399,-0.8562,-0.8584,-0.8587,-0.8587,-0.8587,-0.8587,-0.8587,-0.8587,-0.8587,-0.8587,-0.8587,-0.8587,-0.8587,-0.8587,-0.8587,-0.8587,-0.8587,-0.8587,-0.8587,-0.8587,-0.8587,-0.8587,-0.8587,-0.8587,-0.8587,-0.8587,-0.8587,-0.8587,-0.8587,-0.8853,-0.8984,-0.8984,-0.9392,-0.9724,-0.999,-1.006,-1.0259,-1.0522,-1.0588,-1.0654,-1.0721,-1.0721,-1.0721,-1.0721,-1.0721,-1.0721,-1.0721,-1.0721,-1.0721,-1.0721,-1.0721,-1.0721,-1.0721,-1.0721,-1.0721,-1.0721,-1.0721,-1.0721,-1.0651,-1.0386,-0.951,-0.8507,-0.7971,-0.6969,-0.5633,-0.4233,-0.3763,-0.3429,-0.2289,-0.202,-0.202,-0.2155,-0.2087,-0.1953,-0.1683,-0.1279,-0.0875,-0.0538,-0.0202,0.0,0.0,0.0,0.0,0.0,0.0,0.0,0.0,0.0,0.0,0.0,0.0,0.0,0.0,0.0,0.0,0.0,0.0,0.0,0.0,0.0,0.0,0.0,0.0,0.0,0.0,0.0,0.0,-0.6437,-0.6991,-0.7614,-0.8048,-0.8339,-0.8467,-0.8565,-0.8587,-0.8587,-0.8587,-0.8587,-0.8587,-0.8587,-0.8587,-0.8587,-0.8587,-0.8587,-0.8587,-0.8587,-0.8587,-0.8587,-0.8587,-0.8587,-0.8587,-0.8587,-0.8587,-0.8587,-0.8587,-0.8587,-0.8587,-0.8587,-0.8587,-0.8587,-0.8587,-0.8653,-0.8653,-0.8653,-0.8987,-0.9186,-0.925,-0.9591,-0.9794,-0.9861,-1.0123,-1.0455,-1.0721,-1.0721,-1.0721,-1.0721,-1.0721,-1.0721,-1.0721,-1.0721,-1.0721,-1.0721,-1.0721,-1.0721,-1.0721,-1.0721,-1.0721,-1.0721,-1.0721,-1.0721,-1.0452,-0.9244,-0.8776,-0.8107,-0.557,-0.45,-0.3828,-0.2354,-0.175,-0.1481,-0.1279,-0.1279,-0.1414,-0.2087,-0.1683,-0.1346,-0.1548,-0.1077,-0.0538,-0.0538,-0.0202,0.0,0.0,0.0,0.0,0.0,0.0,0.0,0.0,0.0,0.0,0.0,0.0,0.0,0.0,0.0,0.0,0.0,0.0,0.0,0.0,0.0,0.0,0.0,0.0,0.0,0.0,0.0,0.0,-0.6521,-0.697,-0.7429,-0.791,-0.8125,-0.8263,-0.8448,-0.8492,-0.8511,-0.8573,-0.8587,-0.8587,-0.8587,-0.8587,-0.8587,-0.8587,-0.8587,-0.8587,-0.8587,-0.8587,-0.8587,-0.8587,-0.8587,-0.8587,-0.8587,-0.8587,-0.8587,-0.8587,-0.8587,-0.8587,-0.8587,-0.8587,-0.8587,-0.8587,-0.8587,-0.8587,-0.8587,-0.872,-0.8917,-0.9117,-0.9525,-0.9728,-0.9728,-0.9861,-1.0127,-1.0455,-1.0588,-1.0721,-1.0721,-1.0721,-1.0721,-1.0721,-1.0721,-1.0721,-1.0721,-1.0721,-1.0721,-1.0585,-0.9782,-0.951,-0.9377,-0.8573,-0.8304,-0.8171,-0.7305,-0.6569,-0.5566,-0.4096,-0.3024,-0.2152,-0.1481,-0.1212,-0.1077,-0.1077,-0.0942,-0.0942,-0.1481,-0.1346,-0.1077,-0.101,-0.0538,-0.0202,-0.0202,-0.0067,0.0,0.0,0.0,0.0,0.0,0.0,0.0,0.0,0.0,0.0,0.0,0.0,0.0,0.0,0.0,0.0,0.0,0.0,0.0,0.0,0.0,0.0,0.0,0.0,0.0,0.0,0.0,0.0,-0.6472,-0.6793,-0.7086,-0.7626,-0.7889,-0.8027,-0.8272,-0.8372,-0.8443,-0.8527,-0.8568,-0.8587,-0.8587,-0.8587,-0.8587,-0.8587,-0.8587,-0.8587,-0.8587,-0.8587,-0.8587,-0.8587,-0.8587,-0.8587,-0.8587,-0.8587,-0.8587,-0.8587,-0.8587,-0.8587,-0.8587,-0.8587,-0.8587,-0.8587,-0.8587,-0.8587,-0.8587,-0.8587,-0.872,-0.8984,-0.9259,-0.9395,-0.9392,-0.9525,-0.9658,-0.9921,-1.0389,-1.0588,-1.0588,-1.0654,-1.0721,-1.0721,-1.0721,-1.0721,-1.0651,-1.0316,-1.0183,-0.9981,-0.8507,-0.7971,-0.7772,-0.67,-0.6297,-0.6032,-0.5501,-0.4564,-0.3492,-0.2821,-0.1815,-0.0942,-0.0942,-0.0875,-0.0808,-0.0808,-0.0606,-0.0471,-0.074,-0.0875,-0.0808,-0.0471,-0.0202,0.0,0.0,0.0,0.0,0.0,0.0,0.0,0.0,0.0,0.0,0.0,0.0,0.0,0.0,0.0,0.0,0.0,0.0,0.0,0.0,0.0,0.0,0.0,0.0,0.0,0.0,0.0,0.0,0.0,0.0,0.0,-0.6021,-0.6295,-0.6589,-0.7125,-0.7459,-0.7782,-0.8081,-0.8253,-0.8418,-0.8424,-0.8513,-0.8587,-0.8587,-0.8587,-0.8587,-0.8587,-0.8587,-0.8587,-0.8587,-0.8587,-0.8587,-0.8587,-0.8587,-0.8587,-0.8587,-0.8587,-0.8587,-0.8587,-0.8587,-0.8587,-0.8587,-0.8587,-0.8587,-0.8587,-0.8587,-0.8587,-0.8587,-0.8587,-0.8587,-0.8653,-0.8653,-0.8653,-0.8653,-0.8984,-0.9117,-0.9183,-0.9921,-1.0256,-1.0256,-1.0588,-1.0721,-1.0721,-1.0721,-1.0721,-1.0518,-0.9175,-0.8706,-0.8507,-0.7034,-0.6301,-0.6103,-0.6299,-0.5964,-0.523,-0.423,-0.3559,-0.2956,-0.1615,-0.0875,-0.0538,-0.0538,-0.0269,-0.0067,-0.0067,-0.0067,0.0,-0.0067,-0.0337,-0.0404,-0.0067,0.0,0.0,0.0,0.0,0.0,0.0,0.0,0.0,0.0,0.0,0.0,0.0,0.0,0.0,0.0,0.0,0.0,0.0,0.0,0.0,0.0,0.0,0.0,0.0,0.0,0.0,0.0,0.0,0.0,0.0,0.0,0.0,-0.5988,-0.6149,-0.6328,-0.6809,-0.7086,-0.7323,-0.7638,-0.7896,-0.8111,-0.8269,-0.8397,-0.8503,-0.8573,-0.8587,-0.8587,-0.8587,-0.8587,-0.8587,-0.8587,-0.8587,-0.8587,-0.8587,-0.8587,-0.8587,-0.8587,-0.8587,-0.8587,-0.8587,-0.8587,-0.8587,-0.8587,-0.8587,-0.8587,-0.8587,-0.8587,-0.8587,-0.8587,-0.8516,-0.8516,-0.8587,-0.8513,-0.8516,-0.8587,-0.872,-0.8784,-0.8787,-0.9319,-0.9655,-0.9861,-0.9994,-1.006,-0.999,-0.9045,-0.8776,-0.8778,-0.7169,-0.6702,-0.6635,-0.4962,-0.4294,-0.4028,-0.3223,-0.2821,-0.2554,-0.1882,-0.1614,-0.1345,-0.0606,-0.0269,-0.0202,-0.0202,-0.0067,0.0,0.0,0.0,0.0,0.0,-0.0067,-0.0135,0.0,0.0,0.0,0.0,0.0,0.0,0.0,0.0,0.0,0.0,0.0,0.0,0.0,0.0,0.0,0.0,0.0,0.0,0.0,0.0,0.0,0.0,0.0,0.0,0.0,0.0,0.0,0.0,0.0,0.0,0.0,0.0,0.0,-0.588,-0.5996,-0.613,-0.657,-0.6771,-0.6967,-0.7366,-0.7644,-0.7869,-0.807,-0.8277,-0.844,-0.8516,-0.8562,-0.8587,-0.8587,-0.8587,-0.8587,-0.8587,-0.8587,-0.8587,-0.8587,-0.8587,-0.8587,-0.8587,-0.8587,-0.8587,-0.8587,-0.8587,0.0,-0.8587,-0.8587,-0.8587,-0.8587,-0.8587,-0.8587,-0.8587,-0.8475,-0.8456,-0.853,-0.8454,-0.8456,-0.8532,-0.8571,-0.8587,-0.8587,-0.8315,-0.8717,-0.9458,-0.912,-0.8984,-0.8851,-0.7369,-0.6902,-0.6902,-0.5297,-0.4897,-0.4966,-0.309,-0.2486,-0.2352,-0.1413,-0.0942,-0.0673,-0.0538,-0.0404,-0.0269,-0.0067,0.0,0.0,0.0,0.0,0.0,0.0,0.0,0.0,0.0,0.0,0.0,0.0,0.0,0.0,0.0,0.0,0.0,0.0,0.0,0.0,0.0,0.0,0.0,0.0,0.0,0.0,0.0,0.0,0.0,0.0,0.0,0.0,0.0,0.0,0.0,0.0,0.0,0.0,0.0,0.0,0.0,0.0,0.0,0.0,0.0,0.0,0.0,-0.6284,-0.6462,-0.6728,-0.7147,-0.7497,-0.7703,-0.7831,-0.8141,-0.8394,-0.8405,-0.85,-0.8579,-0.8581,-0.8584,-0.8587,-0.8587,-0.8587,-0.8587,-0.8587,-0.8587,-0.8587,-0.8587,-0.8587,-0.8587,-0.8587,-0.8587,-0.8587,-0.8587,-0.8587,-0.8587,-0.8587,-0.8587,-0.8587,-0.8587,-0.8473,-0.8413,-0.8418,-0.8413,-0.8416,-0.8421,-0.8469,-0.852,-0.8454,-0.6978,-0.731,-0.8848,-0.7838,-0.7436,-0.7234,-0.5832,-0.5297,-0.5163,-0.3624,-0.3358,-0.3426,-0.1682,-0.1077,-0.1077,-0.1077,-0.0606,-0.0067,-0.0404,-0.0269,0.0,0.0,0.0,0.0,0.0,0.0,0.0,0.0,0.0,0.0,0.0,0.0,0.0,0.0,0.0,0.0,0.0,0.0,0.0,0.0,0.0,0.0,0.0,0.0,0.0,0.0,0.0,0.0,0.0,0.0,0.0,0.0,0.0,0.0,0.0,0.0,0.0,0.0,0.0,0.0,0.0,0.0,0.0,0.0,0.0,0.0,-0.5648,0.0,0.0,0.0,0.0,0.0,-0.6573,-0.6759,-0.7027,-0.7407,-0.7635,-0.7847,-0.8106,-0.8253,-0.8361,-0.8451,-0.8532,-0.8587,-0.8587,-0.8587,-0.8587,-0.8587,-0.8587,-0.8587,-0.8587,-0.8587,-0.8587,0.0,-0.8587,-0.8587,-0.8587,-0.8587,-0.8587,-0.8587,-0.8587,-0.8587,-0.8587,-0.8388,-0.8331,-0.8416,-0.8329,-0.8331,-0.8356,-0.7403,-0.6978,-0.6911,-0.5501,-0.5165,-0.5631,-0.5297,-0.5163,-0.5029,-0.3557,-0.3224,-0.3225,-0.1546,-0.1076,-0.1278,-0.0538,-0.0337,-0.0337,-0.0337,-0.0135,0.0,-0.0135,-0.0067,0.0,0.0,0.0,0.0,0.0,0.0,0.0,0.0,0.0,0.0,0.0,0.0,0.0,0.0,0.0,0.0,0.0,0.0,0.0,0.0,0.0,0.0,0.0,0.0,0.0,0.0,0.0,0.0,0.0,0.0,0.0,0.0,0.0,0.0,0.0,0.0,0.0,0.0,0.0,0.0,0.0,0.0,0.0,0.0,0.0,0.0,0.0,0.0,0.0,0.0,0.0,0.0,-0.6518,-0.6608,-0.6728,-0.7111,-0.7326,-0.7521,-0.7782,-0.7932,-0.8068,-0.8239,-0.8364,-0.8475,-0.8573,-0.8587,-0.8587,-0.8587,-0.8587,-0.8587,-0.8587,-0.8587,-0.8587,-0.8587,-0.8587,-0.8587,-0.8587,-0.8587,-0.8587,-0.8587,-0.8587,-0.8565,-0.8516,-0.8329,-0.8244,-0.8266,-0.8193,-0.7901,-0.7428,-0.6674,-0.6072,-0.5434,-0.4026,-0.3357,-0.3357,-0.2752,-0.282,-0.3223,-0.1815,-0.1345,-0.1412,-0.0404,-0.0202,-0.0471,-0.0135,-0.0067,-0.0202,-0.0067,0.0,0.0,0.0,0.0,0.0,0.0,0.0,0.0,0.0,0.0,0.0,0.0,0.0,0.0,0.0,0.0,0.0,0.0,0.0,0.0,0.0,0.0,0.0,0.0,0.0,0.0,0.0,0.0,0.0,0.0,0.0,0.0,0.0,0.0,0.0,0.0,0.0,0.0,0.0,0.0,0.0,0.0,0.0,0.0,0.0,0.0,0.0,0.0,0.0,0.0,-0.5944,-0.5923,0.0,0.0,-0.6257,0.0,-0.6627,-0.6638,-0.6627,-0.6858,-0.7073,-0.7263,-0.7413,-0.754,-0.7698,-0.7996,-0.8089,-0.8269,-0.853,-0.8579,-0.8587,-0.8587,-0.8587,-0.8587,-0.8587,-0.8587,-0.8587,-0.8587,-0.8587,-0.8587,-0.8587,-0.8587,-0.8587,-0.8587,-0.8587,-0.8532,-0.8418,-0.8296,-0.811,-0.7864,-0.7864,-0.7163,-0.5851,-0.5873,-0.5164,-0.3959,-0.2486,-0.1882,-0.1748,-0.0538,-0.074,-0.1748,-0.0471,0.0,0.0,0.0,-0.0202,-0.0404,-0.0135,-0.0202,-0.0404,-0.0067,0.0,0.0,0.0,0.0,0.0,0.0,0.0,0.0,0.0,0.0,0.0,0.0,0.0,0.0,0.0,0.0,0.0,0.0,0.0,0.0,0.0,0.0,0.0,0.0,0.0,0.0,0.0,0.0,0.0,0.0,0.0,0.0,0.0,0.0,0.0,0.0,0.0,0.0,0.0,0.0,0.0,0.0,0.0,0.0,0.0,0.0,0.0,0.0,0.0,0.0,-0.6164,-0.6051,-0.6067,-0.6138,0.0,0.0,-0.6227,-0.6206,-0.6233,-0.6426,-0.6445,-0.6573,-0.6885,-0.7043,-0.7201,-0.7437,-0.7663,-0.7956,-0.8391,-0.853,-0.8587,-0.8587,-0.8587,-0.8587,-0.8587,-0.8587,-0.8587,-0.8587,-0.8587,-0.8587,-0.8587,-0.8587,-0.8587,-0.8587,-0.8587,-0.8532,-0.8418,-0.8296,-0.7597,-0.6475,-0.6475,-0.5766,-0.4441,-0.3397,-0.2784,-0.2419,-0.1009,-0.0404,-0.0404,-0.0135,-0.0135,-0.0404,-0.0135,0.0,0.0,0.0,-0.0067,-0.0067,0.0,-0.0067,-0.0067,0.0,0.0,0.0,0.0,0.0,0.0,0.0,0.0,0.0,0.0,0.0,0.0,0.0,0.0,0.0,0.0,0.0,0.0,0.0,0.0,0.0,0.0,0.0,0.0,0.0,0.0,0.0,0.0,0.0,0.0,0.0,0.0,0.0,0.0,0.0,0.0,0.0,0.0,0.0,0.0,0.0,0.0,0.0,0.0,0.0,0.0,0.0,0.0,0.0,0.0,0.0,-0.6546,-0.6413,-0.6395,-0.6372,0.0,0.0,0.0,-0.626,-0.6227,-0.6407,-0.635,-0.6377,-0.6736,-0.6752,-0.6809,-0.7111,-0.7364,-0.7603,-0.7845,-0.8187,-0.841,-0.841,-0.841,-0.841,-0.841,-0.8467,-0.8527,-0.8584,-0.8587,-0.8587,-0.8587,-0.8587,-0.8587,-0.8587,-0.8587,-0.8532,-0.8418,-0.7647,-0.6853,-0.61,-0.5364,-0.4328,-0.3059,-0.2361,-0.1658,-0.1009,-0.0337,0.0,0.0,0.0,0.0,0.0,0.0,0.0,0.0,0.0,0.0,0.0,0.0,0.0,0.0,0.0,0.0,0.0,0.0,0.0,0.0,0.0,0.0,0.0,0.0,0.0,0.0,0.0,0.0,0.0,0.0,0.0,0.0,0.0,0.0,0.0,0.0,0.0,0.0,0.0,0.0,0.0,0.0,0.0,0.0,0.0,0.0,0.0,0.0,0.0,0.0,0.0,0.0,0.0,0.0,0.0,0.0,0.0,0.0,0.0,0.0,0.0,0.0,0.0,0.0,0.0,0.0,0.0,0.0,0.0,0.0,-0.6404,0.0,0.0,0.0,-0.6488,-0.6366,-0.6328,-0.6643,-0.6537,-0.6507,-0.6828,0.0,0.0,0.0,-0.7693,0.0,-0.8092,-0.8136,-0.8166,-0.8166,-0.8255,-0.8369,-0.8508,-0.8497,-0.8505,-0.8552,-0.8576,-0.8587,-0.8587,-0.832,-0.8132,-0.8024,-0.6561,-0.5672,-0.5269,-0.413,-0.2886,-0.1645,-0.1645,-0.0995,0.0,0.0,0.0,0.0,0.0,0.0,0.0,0.0,0.0,0.0,0.0,0.0,0.0,0.0,0.0,0.0,0.0,0.0,0.0,0.0,0.0,0.0,0.0,0.0,0.0,0.0,0.0,0.0,0.0,0.0,0.0,0.0,0.0,0.0,0.0,0.0,0.0,0.0,0.0,0.0,0.0,0.0,0.0,0.0,0.0,0.0,0.0,0.0,0.0,0.0,0.0,0.0,0.0,0.0,0.0,0.0,0.0,0.0,0.0,0.0,0.0,0.0,0.0,0.0,0.0,0.0,0.0,0.0,0.0,0.0,0.0,-0.6759,0.0,0.0,0.0,-0.6327,-0.6184,0.0,-0.6151,-0.6352,0.0,0.0,0.0,0.0,0.0,-0.6864,-0.7103,-0.7358,-0.7576,-0.7785,-0.7913,-0.7913,-0.7924,-0.8027,-0.8258,-0.8176,-0.8209,-0.8426,-0.8532,-0.8587,-0.8587,-0.7314,-0.6597,-0.657,-0.5053,-0.3715,-0.2445,-0.2313,-0.149,-0.0198,-0.0198,-0.0133,0.0,0.0,0.0,0.0,0.0,0.0,0.0,0.0,0.0,0.0,0.0,0.0,0.0,0.0,0.0,0.0,0.0,0.0,0.0,0.0,0.0,0.0,0.0,0.0,0.0,0.0,0.0,0.0,0.0,0.0,0.0,0.0,0.0,0.0,0.0,0.0,0.0,0.0,0.0,0.0,0.0,0.0,0.0,0.0,0.0,0.0,0.0,0.0,0.0,0.0,0.0,0.0,0.0,0.0,0.0,0.0,0.0,0.0,0.0,0.0,0.0,0.0,0.0,0.0,0.0,0.0,0.0,0.0,0.0,0.0,0.0,0.0,0.0,-0.6558,0.0,-0.6384,0.0,0.0,0.0,0.0,0.0,0.0,0.0,-0.6584,0.0,0.0,0.0,-0.6959,0.0,0.0,0.0,-0.7652,-0.7665,-0.7766,-0.8005,-0.7975,-0.7736,-0.7126,-0.7168,-0.6916,-0.6101,-0.5501,-0.5152,-0.5121,-0.3696,-0.2634,-0.2046,-0.1245,-0.0526,0.0,0.0,0.0,0.0,0.0,0.0,0.0,0.0,0.0,0.0,0.0,0.0,0.0,0.0,0.0,0.0,0.0,0.0,0.0,0.0,0.0,0.0,0.0,0.0,0.0,0.0,0.0,0.0,0.0,0.0,0.0,0.0,0.0,0.0,0.0,0.0,0.0,0.0,0.0,0.0,0.0,0.0,0.0,0.0,0.0,0.0,0.0,0.0,0.0,0.0,0.0,0.0,0.0,0.0,0.0,0.0,0.0,0.0,0.0,0.0,0.0,0.0,0.0,0.0,0.0,0.0,0.0,0.0,0.0,0.0,-0.7904,0.0,0.0,0.0,0.0,0.0,0.0,0.0,0.0,0.0,0.0,0.0,0.0,0.0,0.0,0.0,0.0,-0.651,0.0,-0.6461,0.0,0.0,0.0,0.0,0.0,-0.7342,-0.7316,-0.722,-0.7212,-0.671,-0.564,-0.5691,-0.5326,-0.4334,-0.3884,-0.3691,-0.3691,-0.2261,-0.1531,-0.1479,-0.0466,0.0,0.0,0.0,0.0,0.0,0.0,0.0,0.0,0.0,0.0,0.0,0.0,0.0,0.0,0.0,0.0,0.0,0.0,0.0,0.0,0.0,0.0,0.0,0.0,0.0,0.0,0.0,0.0,0.0,0.0,0.0,0.0,0.0,0.0,0.0,0.0,0.0,0.0,0.0,0.0,0.0,0.0,0.0,0.0,0.0,0.0,0.0,0.0,0.0,0.0,0.0,0.0,0.0,0.0,0.0,0.0,0.0,0.0,0.0,0.0,0.0,0.0,0.0,0.0,0.0,0.0,0.0,0.0,0.0,0.0,0.0,0.0,0.0,0.0,-0.7705,0.0,0.0,0.0,0.0,-0.6893,0.0,0.0,0.0,0.0,0.0,0.0,0.0,0.0,0.0,0.0,0.0,0.0,0.0,0.0,0.0,0.0,-0.6896,-0.648,0.0,-0.5491,-0.5081,-0.4237,-0.431,-0.4343,-0.427,-0.2934,-0.2151,-0.2151,-0.074,-0.0067,-0.0067,0.0,0.0,0.0,0.0,0.0,0.0,0.0,0.0,0.0,0.0,0.0,0.0,0.0,0.0,0.0,0.0,0.0,0.0,0.0,0.0,0.0,0.0,0.0,0.0,0.0,0.0,0.0,0.0,0.0,0.0,0.0,0.0,0.0,0.0,0.0,0.0,0.0,0.0,0.0,0.0,0.0,0.0,0.0,0.0,0.0,0.0,0.0,0.0,0.0,0.0,0.0,0.0,0.0,0.0,0.0,0.0,0.0,0.0,0.0,0.0,0.0,0.0,0.0,0.0,0.0,0.0,0.0,0.0,0.0,0.0,0.0,0.0,0.0,0.0,-0.8438,-0.8037,0.0,0.0,0.0,0.0,0.0,0.0,0.0,0.0,0.0,0.0,0.0,0.0,0.0,0.0,0.0,0.0,0.0,0.0,0.0,0.0,0.0,0.0,0.0,0.0,-0.4627,0.0,-0.2661,-0.271,-0.2398,-0.1513,-0.1001,-0.074,-0.074,-0.0269,0.0,0.0,0.0,0.0,0.0,0.0,0.0,0.0,0.0,0.0,0.0,0.0,0.0,0.0,0.0,0.0,0.0,0.0,0.0,0.0,0.0,0.0,0.0,0.0,0.0,0.0,0.0,0.0,0.0,0.0,0.0,0.0,0.0,0.0,0.0,0.0,0.0,0.0,0.0,0.0,0.0,0.0,0.0,0.0,0.0,0.0,0.0,0.0,0.0,0.0,0.0,0.0,0.0,0.0,0.0,0.0,0.0,0.0,0.0,0.0,0.0,0.0,0.0,0.0,0.0,0.0,0.0,0.0,0.0,0.0,0.0,0.0,0.0,0.0,-0.8577,-0.8676,0.0,-0.8325,-0.8263,0.0,-0.7743,0.0,-0.7579,0.0,0.0,0.0,0.0,0.0,0.0,0.0,0.0,0.0,0.0,-0.6053,0.0,0.0,0.0,0.0,0.0,0.0,-0.4667,-0.3953,-0.3266,0.0,0.0,-0.1238,-0.0897,0.0,0.0,0.0,0.0,0.0,0.0,0.0,0.0,0.0,0.0,0.0,0.0,0.0,0.0,0.0,0.0,0.0,0.0,0.0,0.0,0.0,0.0,0.0,0.0,0.0,0.0,0.0,0.0,0.0,0.0,0.0,0.0,0.0,0.0,0.0,0.0,0.0,0.0,0.0,0.0,0.0,0.0,0.0,0.0,0.0,0.0,0.0,0.0,0.0,0.0,0.0,0.0,0.0,0.0,0.0,0.0,0.0,0.0,0.0,0.0,0.0,0.0,0.0,0.0,0.0,0.0,0.0,0.0,0.0,0.0,0.0,0.0,0.0,0.0,0.0,0.0,0.0,0.0,0.0]},{"header":{"parameterUnit":"m.s-1","parameterCategory":1,"la1":30.6,"la2":29.2853,"lo1":-89.7004,"lo2":-87.6739,"dy":0.0162,"dx":0.0183,"nx":112,"ny":82,"refTime":"2024-08-18T12:00:00:Z","depth":0,"parameterNumber":3,"parameterNumberName":"V-component_of_WINDS"},"data":[0.0,0.0,0.0,0.0,0.0,0.0,0.0,0.0,0.0,0.0,0.0,0.0,0.0,0.0,0.0,0.0,0.0,0.0,0.0,0.0,0.0,0.0,0.0,0.0,0.0,0.0,0.0,0.0,0.0,0.0,0.0,0.0,0.0,0.0,0.0,0.0,0.0,0.0,0.0,0.0,0.0,0.0,0.0,0.0,0.0,0.0,0.0,0.0,0.0,0.0,0.0,0.0,0.0,0.0,0.0,0.0,0.0,0.0,0.0,0.0,0.0,0.0,0.0,0.0,0.0,0.0,0.0,0.0,0.0,0.0,0.0,0.0,0.0,0.0,0.0,0.0,0.0,0.0,0.0,0.0,0.0,0.0,0.0,0.0,0.0,0.0,0.0,0.0,0.0,0.0,3.3233,3.4984,3.687,3.8043,3.8109,3.8202,3.6863,3.3623,0.0,0.0,0.0,0.0,0.0,0.0,0.0,0.0,0.0,0.0,0.0,0.0,0.0,0.0,0.0,0.0,0.0,0.0,0.0,0.0,0.0,0.0,0.0,0.0,0.0,0.0,0.0,0.0,0.0,0.0,0.0,0.0,0.0,0.0,0.0,0.0,0.0,0.0,0.0,0.0,0.0,0.0,0.0,0.0,0.0,0.0,0.0,0.0,0.0,0.0,0.0,0.0,0.0,0.0,0.0,0.0,0.0,0.0,0.0,0.0,0.0,0.0,0.0,0.0,0.0,0.0,0.0,0.0,0.0,0.0,0.0,0.0,0.0,0.0,0.0,0.0,0.0,0.0,0.0,0.0,0.0,0.0,0.0,0.0,0.0,0.0,0.0,0.0,0.0,0.0,0.0,0.0,0.0,0.0,0.0,0.0,0.0,0.0,0.0,0.0,0.0,0.0,0.0,0.0,3.4383,3.7339,3.7375,3.7209,3.7289,3.7439,3.6124,3.278,0.0,0.0,0.0,0.0,0.0,0.0,0.0,0.0,0.0,0.0,0.0,0.0,0.0,0.0,0.0,0.0,0.0,0.0,0.0,0.0,0.0,0.0,0.0,0.0,0.0,0.0,0.0,0.0,0.0,0.0,0.0,0.0,0.0,0.0,0.0,0.0,0.0,0.0,0.0,0.0,0.0,0.0,0.0,0.0,0.0,0.0,0.0,0.0,0.0,0.0,0.0,0.0,0.0,0.0,0.0,0.0,0.0,0.0,0.0,0.0,0.0,0.0,0.0,0.0,0.0,0.0,0.0,0.0,0.0,0.0,0.0,0.0,0.0,0.0,0.0,0.0,0.0,0.0,0.0,0.0,0.0,0.0,0.0,0.0,0.0,0.0,0.0,0.0,0.0,0.0,0.0,0.0,0.0,0.0,0.0,0.0,0.0,0.0,0.0,0.0,0.0,0.0,0.0,3.2542,3.4461,3.7249,3.6816,3.6542,3.7007,3.6765,3.5553,3.3092,3.1427,0.0,0.0,0.0,0.0,0.0,0.0,0.0,0.0,0.0,0.0,0.0,0.0,0.0,0.0,0.0,0.0,0.0,0.0,0.0,0.0,0.0,0.0,0.0,0.0,0.0,0.0,0.0,0.0,0.0,0.0,0.0,0.0,0.0,0.0,0.0,0.0,0.0,0.0,0.0,0.0,0.0,0.0,0.0,0.0,0.0,0.0,0.0,0.0,0.0,0.0,0.0,0.0,0.0,0.0,0.0,0.0,0.0,0.0,0.0,0.0,0.0,0.0,0.0,0.0,0.0,0.0,0.0,0.0,0.0,0.0,0.0,0.0,0.0,0.0,0.0,0.0,0.0,0.0,0.0,0.0,0.0,0.0,0.0,0.0,0.0,0.0,0.0,0.0,0.0,0.0,0.0,0.0,0.0,0.0,0.0,0.0,0.0,0.0,0.0,0.0,0.0,0.0,3.3954,3.4534,3.6759,3.6109,3.5838,3.6651,3.5726,3.4524,3.3208,3.0779,0.0,0.0,0.0,0.0,0.0,0.0,0.0,0.0,0.0,0.0,0.0,0.0,0.0,0.0,0.0,0.0,0.0,0.0,0.0,0.0,0.0,0.0,0.0,0.0,0.0,0.0,0.0,0.0,0.0,0.0,0.0,0.0,0.0,0.0,0.0,0.0,0.0,0.0,0.0,0.0,0.0,0.0,0.0,0.0,0.0,0.0,0.0,0.0,0.0,0.0,0.0,0.0,0.0,0.0,0.0,0.0,0.0,0.0,0.0,0.0,0.0,0.0,0.0,0.0,0.0,0.0,0.0,0.0,0.0,0.0,0.0,0.0,0.0,0.0,0.0,0.0,0.0,0.0,0.0,0.0,0.0,0.0,0.0,0.0,0.0,0.0,0.0,0.0,0.0,0.0,0.0,0.0,0.0,0.0,0.0,0.0,0.0,0.0,0.0,0.0,0.0,0.0,3.4099,3.515,3.6814,3.5602,3.5007,3.5822,3.3956,3.2607,3.2303,2.9564,0.0,0.0,0.0,0.0,0.0,0.0,0.0,0.0,0.0,0.0,0.0,0.0,0.0,0.0,0.0,0.0,0.0,0.0,0.0,0.0,0.0,0.0,0.0,0.0,0.0,0.0,0.0,0.0,0.0,0.0,0.0,0.0,0.0,0.0,0.0,0.0,0.0,0.0,0.0,0.0,0.0,0.0,0.0,0.0,0.0,0.0,0.0,0.0,0.0,0.0,0.0,0.0,0.0,0.0,0.0,0.0,0.0,0.0,0.0,0.0,0.0,0.0,0.0,0.0,0.0,0.0,0.0,0.0,0.0,0.0,0.0,0.0,0.0,0.0,0.0,0.0,0.0,0.0,0.0,0.0,0.0,0.0,0.0,0.0,0.0,0.0,0.0,0.0,0.0,0.0,0.0,0.0,0.0,0.0,0.0,0.0,0.0,0.0,0.0,0.0,0.0,0.0,3.323,3.396,0.0,3.4998,3.4615,3.6039,3.4031,3.2608,3.2392,0.0,0.0,0.0,0.0,0.0,0.0,0.0,0.0,0.0,0.0,0.0,0.0,0.0,0.0,0.0,0.0,0.0,0.0,0.0,0.0,0.0,0.0,0.0,0.0,0.0,0.0,0.0,0.0,0.0,0.0,0.0,0.0,0.0,0.0,0.0,0.0,0.0,0.0,0.0,0.0,0.0,0.0,0.0,0.0,0.0,0.0,0.0,0.0,0.0,0.0,0.0,0.0,0.0,0.0,0.0,0.0,0.0,0.0,0.0,0.0,0.0,0.0,0.0,0.0,0.0,0.0,0.0,0.0,0.0,0.0,0.0,0.0,0.0,0.0,0.0,0.0,0.0,0.0,0.0,0.0,0.0,0.0,0.0,0.0,0.0,0.0,0.0,0.0,0.0,0.0,0.0,0.0,0.0,0.0,0.0,0.0,0.0,0.0,0.0,0.0,0.0,0.0,3.2578,3.2831,3.3458,0.0,3.4559,3.4393,3.5887,3.3561,3.209,3.2168,0.0,0.0,0.0,0.0,0.0,0.0,0.0,0.0,0.0,0.0,0.0,0.0,0.0,0.0,0.0,0.0,0.0,0.0,0.0,0.0,0.0,0.0,0.0,0.0,0.0,0.0,0.0,0.0,0.0,0.0,0.0,0.0,0.0,0.0,0.0,0.0,0.0,0.0,0.0,0.0,0.0,0.0,0.0,0.0,0.0,0.0,0.0,0.0,0.0,0.0,0.0,0.0,0.0,0.0,0.0,0.0,0.0,0.0,0.0,0.0,0.0,0.0,0.0,0.0,0.0,0.0,0.0,0.0,0.0,0.0,0.0,0.0,0.0,0.0,0.0,0.0,0.0,0.0,0.0,0.0,0.0,0.0,0.0,0.0,0.0,0.0,0.0,0.0,0.0,0.0,0.0,0.0,0.0,0.0,0.0,0.0,0.0,0.0,0.0,0.0,0.0,0.0,3.189,3.3081,3.4009,3.4832,3.4365,3.433,3.5148,3.2256,3.0711,0.0,0.0,0.0,0.0,0.0,0.0,0.0,0.0,0.0,0.0,0.0,0.0,0.0,0.0,0.0,0.0,0.0,0.0,0.0,0.0,0.0,0.0,0.0,0.0,0.0,0.0,0.0,0.0,0.0,0.0,0.0,0.0,0.0,0.0,0.0,0.0,0.0,0.0,0.0,0.0,0.0,0.0,0.0,0.0,0.0,0.0,0.0,0.0,0.0,0.0,0.0,0.0,0.0,0.0,0.0,0.0,0.0,0.0,0.0,0.0,0.0,0.0,0.0,0.0,0.0,0.0,0.0,0.0,0.0,0.0,0.0,0.0,0.0,0.0,0.0,0.0,0.0,0.0,0.0,0.0,0.0,0.0,0.0,0.0,0.0,0.0,0.0,0.0,0.0,0.0,0.0,0.0,0.0,0.0,0.0,0.0,0.0,0.0,0.0,0.0,0.0,0.0,0.0,3.21,3.3293,3.4273,3.5216,3.4662,3.4623,3.56,3.3175,3.1181,3.0153,0.0,0.0,0.0,0.0,0.0,0.0,0.0,0.0,0.0,0.0,0.0,0.0,0.0,0.0,0.0,0.0,0.0,0.0,0.0,0.0,0.0,0.0,0.0,0.0,0.0,0.0,0.0,0.0,0.0,0.0,0.0,0.0,0.0,0.0,0.0,0.0,0.0,0.0,0.0,0.0,0.0,0.0,0.0,0.0,0.0,0.0,0.0,0.0,0.0,0.0,0.0,0.0,0.0,0.0,0.0,0.0,0.0,0.0,0.0,0.0,0.0,0.0,0.0,0.0,0.0,0.0,0.0,0.0,0.0,0.0,0.0,0.0,0.0,0.0,0.0,0.0,0.0,0.0,0.0,0.0,0.0,0.0,0.0,0.0,0.0,0.0,0.0,0.0,0.0,0.0,0.0,0.0,0.0,0.0,0.0,0.0,0.0,0.0,0.0,0.0,0.0,0.0,3.1748,3.3259,3.4346,3.4958,3.4661,3.4678,3.5323,3.3682,3.1887,3.0158,0.0,0.0,0.0,0.0,0.0,0.0,0.0,0.0,0.0,0.0,0.0,0.0,0.0,0.0,0.0,0.0,0.0,0.0,0.0,0.0,0.0,0.0,0.0,0.0,0.0,0.0,0.0,0.0,0.0,0.0,0.0,0.0,0.0,0.0,0.0,0.0,0.0,0.0,0.0,0.0,0.0,0.0,0.0,0.0,0.0,0.0,0.0,0.0,0.0,0.0,0.0,0.0,0.0,0.0,0.0,0.0,0.0,0.0,0.0,0.0,0.0,0.0,0.0,0.0,0.0,0.0,0.0,0.0,0.0,0.0,0.0,0.0,0.0,0.0,0.0,0.0,0.0,0.0,0.0,0.0,0.0,0.0,0.0,0.0,0.0,0.0,0.0,0.0,0.0,0.0,0.0,0.0,0.0,0.0,0.0,0.0,0.0,0.0,0.0,0.0,0.0,0.0,3.117,3.3166,3.4421,3.4347,3.4495,3.4612,3.4612,3.3926,3.2751,3.1006,0.0,0.0,0.0,0.0,0.0,0.0,0.0,0.0,0.0,0.0,0.0,0.0,0.0,0.0,0.0,0.0,0.0,0.0,0.0,0.0,0.0,0.0,0.0,0.0,0.0,0.0,0.0,0.0,0.0,0.0,0.0,0.0,0.0,0.0,0.0,0.0,0.0,0.0,0.0,0.0,0.0,0.0,0.0,0.0,0.0,0.0,0.0,0.0,0.0,0.0,0.0,0.0,0.0,0.0,0.0,0.0,0.0,0.0,0.0,0.0,3.3684,0.0,0.0,0.0,0.0,0.0,0.0,0.0,0.0,0.0,0.0,0.0,0.0,0.0,0.0,0.0,0.0,0.0,0.0,0.0,0.0,0.0,0.0,0.0,0.0,0.0,0.0,0.0,0.0,0.0,0.0,0.0,0.0,0.0,0.0,0.0,0.0,0.0,0.0,0.0,0.0,0.0,3.1704,3.3994,3.5297,3.4603,3.4561,3.4612,3.4612,3.4433,3.3362,3.1043,2.9645,0.0,0.0,0.0,0.0,0.0,0.0,0.0,0.0,0.0,0.0,0.0,0.0,0.0,0.0,0.0,0.0,0.0,0.0,0.0,0.0,0.0,0.0,0.0,0.0,0.0,0.0,0.0,0.0,0.0,0.0,0.0,0.0,0.0,0.0,0.0,0.0,0.0,0.0,0.0,0.0,0.0,0.0,0.0,0.0,0.0,0.0,0.0,0.0,0.0,0.0,0.0,0.0,0.0,0.0,0.0,0.0,0.0,0.0,0.0,0.0,3.5397,0.0,0.0,0.0,0.0,0.0,0.0,0.0,0.0,0.0,0.0,0.0,0.0,0.0,0.0,0.0,0.0,0.0,0.0,0.0,0.0,0.0,0.0,0.0,0.0,0.0,0.0,0.0,0.0,0.0,0.0,0.0,0.0,0.0,0.0,0.0,0.0,0.0,0.0,0.0,0.0,3.1845,3.3885,3.509,3.465,3.4612,3.4612,3.4612,3.4612,3.3888,3.2207,3.095,0.0,0.0,0.0,0.0,0.0,0.0,0.0,0.0,0.0,0.0,0.0,0.0,0.0,0.0,0.0,0.0,0.0,0.0,0.0,0.0,0.0,0.0,0.0,0.0,0.0,0.0,0.0,0.0,0.0,0.0,0.0,0.0,0.0,0.0,0.0,0.0,0.0,0.0,0.0,0.0,0.0,0.0,0.0,0.0,0.0,0.0,0.0,0.0,0.0,0.0,0.0,0.0,0.0,4.325,4.3597,4.3834,4.3981,4.3926,4.3469,4.0121,3.911,3.9619,3.7338,0.0,0.0,0.0,0.0,0.0,0.0,0.0,0.0,0.0,0.0,0.0,0.0,0.0,0.0,0.0,0.0,0.0,0.0,0.0,0.0,0.0,0.0,0.0,0.0,3.788,3.7922,0.0,0.0,0.0,0.0,0.0,0.0,0.0,0.0,0.0,0.0,0.0,0.0,3.2496,3.3907,3.4827,3.4827,3.4677,3.4612,3.4612,3.4733,3.447,3.3663,3.2301,3.1185,0.0,0.0,0.0,0.0,0.0,0.0,0.0,0.0,0.0,0.0,0.0,0.0,0.0,0.0,0.0,0.0,0.0,0.0,0.0,0.0,0.0,0.0,0.0,0.0,0.0,0.0,0.0,0.0,0.0,0.0,0.0,0.0,3.6512,3.815,0.0,0.0,0.0,0.0,0.0,0.0,0.0,0.0,0.0,0.0,0.0,0.0,0.0,4.3196,4.4615,4.6451,4.7059,4.6526,4.8974,4.9099,4.72,4.7961,4.7529,4.6177,4.5652,0.0,4.1379,4.0999,0.0,0.0,0.0,0.0,0.0,0.0,0.0,0.0,0.0,0.0,0.0,0.0,0.0,0.0,0.0,0.0,0.0,0.0,0.0,0.0,0.0,0.0,4.1376,4.117,4.0827,4.0152,0.0,3.5882,3.3161,3.1524,3.1865,0.0,0.0,0.0,0.0,0.0,0.0,0.0,3.5252,3.5585,3.5728,3.5728,3.5052,3.4612,3.4612,3.5296,3.5353,3.4489,3.4226,3.3757,3.2949,3.14,0.0,0.0,0.0,0.0,0.0,0.0,0.0,0.0,0.0,0.0,0.0,0.0,0.0,0.0,0.0,0.0,0.0,0.0,0.0,0.0,0.0,0.0,0.0,0.0,0.0,0.0,0.0,0.0,0.0,3.6745,3.9212,4.0364,4.0178,3.9746,0.0,0.0,0.0,0.0,0.0,0.0,0.0,0.0,0.0,4.5602,4.6151,4.6981,4.8126,4.9545,5.0079,4.9745,5.0984,5.0998,4.9987,5.0379,5.017,4.9475,4.8989,4.7692,4.5742,4.3675,4.177,4.0003,0.0,0.0,0.0,0.0,3.7706,3.7904,3.9294,3.956,3.9172,3.8724,0.0,0.0,0.0,0.0,0.0,0.0,0.0,0.0,0.0,0.0,4.2731,4.2731,4.2806,4.2656,4.1849,4.0038,3.7642,0.0,3.471,3.4206,3.0883,0.0,0.0,0.0,0.0,3.4656,3.5097,3.5991,3.6404,3.5953,3.5559,3.5127,3.4639,3.494,3.5015,3.462,3.4612,3.4245,3.3427,3.2695,3.1917,0.0,0.0,0.0,0.0,0.0,0.0,0.0,0.0,0.0,0.0,0.0,0.0,0.0,0.0,0.0,0.0,0.0,0.0,0.0,0.0,0.0,0.0,0.0,0.0,0.0,0.0,0.0,0.0,3.9532,4.1578,4.2147,4.2824,4.2728,0.0,0.0,0.0,0.0,0.0,0.0,4.6506,4.7547,4.8589,4.9646,5.0348,5.1091,5.1893,5.2598,5.2838,5.2614,5.2614,5.2407,5.2032,5.2032,5.1937,5.1711,5.1058,5.0441,4.9636,4.6206,4.4218,4.3197,4.1702,4.0627,4.0031,4.0784,4.107,4.127,4.2554,4.2882,4.2529,4.1538,4.0762,3.9903,3.8368,0.0,0.0,0.0,0.0,4.0459,4.1049,4.2439,4.3649,4.3649,4.4146,4.438,4.3583,4.2893,4.1393,0.0,3.7467,3.681,3.3869,0.0,0.0,0.0,0.0,3.5401,3.5814,3.6584,3.696,3.6554,3.6329,3.5935,3.5277,3.5052,3.4921,3.4921,3.4714,3.432,3.3738,3.3926,3.3655,3.2812,0.0,0.0,0.0,0.0,0.0,0.0,0.0,0.0,0.0,0.0,0.0,0.0,0.0,0.0,0.0,0.0,0.0,0.0,0.0,0.0,0.0,0.0,0.0,0.0,0.0,0.0,0.0,0.0,0.0,4.389,4.6134,0.0,0.0,0.0,0.0,4.5172,4.7274,4.9018,4.9996,5.1597,5.3273,5.4969,5.5062,5.5473,5.6276,5.6332,5.594,5.5118,5.5118,5.435,5.2941,5.2941,5.2544,5.1895,5.1839,5.1802,5.156,4.887,4.6825,4.5346,4.5316,4.4822,4.4125,4.4238,4.4266,4.4285,4.4379,4.3891,4.338,4.406,4.2557,4.0588,4.1241,4.0378,0.0,0.0,4.1683,4.3112,4.3149,4.3896,4.4623,4.4623,4.4764,4.4674,4.3853,4.3644,4.3005,0.0,3.9965,3.8913,3.7148,0.0,3.7774,3.6922,3.6885,3.7561,3.9138,3.803,3.7392,3.8112,3.7493,3.7016,3.6979,3.6273,3.5841,3.5841,3.5052,3.4594,3.4526,3.5334,3.5407,3.4676,3.3015,0.0,0.0,0.0,0.0,0.0,0.0,0.0,0.0,0.0,0.0,0.0,0.0,0.0,0.0,0.0,0.0,0.0,0.0,0.0,0.0,0.0,0.0,0.0,0.0,0.0,0.0,0.0,0.0,4.7213,4.9144,0.0,4.9038,4.9519,4.9967,5.0176,5.1464,5.2638,5.3532,5.4652,5.5529,5.6145,5.622,5.6369,5.665,5.6761,5.6629,5.6329,5.6329,5.5748,5.4676,5.4676,5.4243,5.3489,5.2963,5.2754,5.2625,5.1115,4.9543,4.7968,4.6896,4.6329,4.6067,4.6096,4.6096,4.6021,4.5472,4.5078,4.4815,4.4576,4.3854,4.3123,4.3404,4.3105,4.2711,4.2992,4.3627,4.4199,4.4199,4.4511,4.4821,4.4821,4.4877,4.4819,4.4516,4.4471,4.4264,4.3573,4.2351,4.0889,3.9255,3.9157,3.8893,3.7562,3.7713,3.8222,3.8825,3.8773,3.8613,3.8338,3.8037,3.7713,3.7333,3.651,3.6068,3.6149,3.5334,3.487,3.4926,3.5221,3.5276,3.5073,3.3966,3.273,0.0,0.0,0.0,0.0,0.0,0.0,0.0,0.0,0.0,0.0,0.0,0.0,0.0,0.0,0.0,0.0,0.0,0.0,0.0,0.0,0.0,0.0,0.0,0.0,0.0,4.5944,4.872,4.9531,5.1898,5.3112,5.2183,5.2873,5.349,5.3735,5.4744,5.5622,5.6239,5.7043,5.7492,5.751,5.7548,5.7585,5.7585,5.7658,5.7563,5.73,5.73,5.6868,5.6025,5.5724,5.5311,5.4766,5.3939,5.3599,5.3543,5.2682,5.1705,5.0579,4.8908,4.8082,4.7819,4.7519,4.7406,4.7274,4.643,4.596,4.5604,4.5078,4.4749,4.4565,4.4565,4.4592,4.4632,4.4632,4.4712,4.4776,4.4776,4.4858,4.4955,4.4955,4.4991,4.5026,4.5026,4.5026,4.5026,4.5026,4.3847,4.2492,4.1423,4.0975,4.0366,3.9253,3.9266,3.9392,3.9346,3.9545,3.9484,3.8889,3.8882,3.8756,3.8335,3.7547,3.6994,3.6799,3.6254,3.5823,3.5581,3.5829,3.602,3.6116,3.5338,3.4109,3.2436,0.0,0.0,0.0,0.0,0.0,0.0,0.0,0.0,0.0,0.0,0.0,0.0,0.0,0.0,0.0,0.0,0.0,0.0,0.0,0.0,0.0,0.0,0.0,4.4624,4.8765,5.1591,5.0779,5.4379,5.5933,5.3359,5.534,5.6425,5.5585,5.6968,5.7903,5.8035,5.8784,5.9234,5.9309,5.929,5.929,5.929,5.929,5.8915,5.8127,5.8127,5.7732,5.6906,5.6043,5.5649,5.5593,5.4803,5.4446,5.4371,5.3581,5.3224,5.3036,5.1383,5.0241,4.9434,4.8589,4.8232,4.8082,4.7312,4.6467,4.5749,4.5749,4.5288,4.4749,4.4749,4.4821,4.4895,4.4895,4.4895,4.4914,4.4914,4.501,4.5114,4.5114,4.5203,4.5307,4.5307,4.5307,4.5307,4.5307,4.4467,4.3755,4.3755,4.3035,4.242,4.2277,4.1673,0.0,4.1076,4.042,3.9976,3.9949,4.0058,4.012,4.011,3.9416,3.8618,3.7805,3.7771,3.7414,3.6592,3.7295,3.7775,3.7921,3.7192,3.6027,3.4433,0.0,0.0,0.0,0.0,0.0,0.0,0.0,0.0,0.0,0.0,0.0,0.0,0.0,0.0,0.0,0.0,0.0,0.0,0.0,0.0,0.0,4.7858,4.9872,4.9005,5.1659,5.4056,5.5014,5.6682,5.7714,5.7565,5.8165,5.8484,5.824,5.8634,5.8897,5.8934,5.914,5.929,5.929,5.929,5.929,5.929,5.929,5.9196,5.8971,5.8971,5.8558,5.7769,5.7507,5.7094,5.6512,5.563,5.5255,5.5199,5.4409,5.3714,5.3092,5.2006,5.1086,5.0335,5.0106,4.9242,4.8157,4.795,4.7385,4.6788,4.6788,4.6318,4.5792,4.5792,4.5382,4.4895,4.4895,4.4967,4.5057,4.5057,4.5148,4.5254,4.5254,4.5275,4.5307,4.5307,4.5307,4.5307,4.5307,4.5063,4.4848,4.4848,4.4143,4.355,4.3518,4.277,0.0,4.2161,4.1908,4.1521,4.0963,4.0948,4.0807,4.0415,3.9095,3.8483,3.8975,3.7842,3.7314,3.7718,3.795,3.8121,3.8262,3.7444,3.7104,0.0,0.0,0.0,0.0,0.0,0.0,0.0,0.0,0.0,0.0,0.0,0.0,0.0,0.0,0.0,0.0,0.0,0.0,0.0,0.0,0.0,0.0,5.1192,5.3321,5.351,5.4924,5.6305,5.73,5.8107,5.8802,5.9253,5.929,5.929,5.929,5.929,5.929,5.929,5.929,5.929,5.929,5.929,5.929,5.929,5.929,5.929,5.929,5.929,5.9065,5.8596,5.8239,5.7845,5.7356,5.6512,5.6155,5.608,5.5254,5.4685,0.0,0.0,0.0,0.0,0.0,4.9954,4.884,4.8894,4.8419,4.7789,4.7789,4.7327,4.6719,4.6384,4.5946,4.5487,4.5156,4.5125,4.5181,4.5181,4.5235,4.5307,4.5307,4.5307,4.5307,4.5307,4.5307,4.5307,4.5307,4.5307,0.0,4.5307,4.4876,4.4531,4.4459,4.3743,4.3158,4.3115,4.2834,4.2487,4.2059,4.1747,4.1466,4.1151,3.9939,0.0,0.0,0.0,3.8655,3.882,3.9155,0.0,0.0,0.0,0.0,0.0,0.0,0.0,0.0,3.9389,3.9927,0.0,0.0,0.0,0.0,0.0,0.0,0.0,0.0,0.0,0.0,0.0,0.0,0.0,0.0,0.0,0.0,5.3909,5.5879,5.7501,5.7997,5.8184,5.8221,5.8877,5.929,5.929,5.929,5.929,5.929,5.929,5.929,5.929,5.929,0.0,0.0,0.0,5.929,5.929,5.929,5.929,5.929,5.929,5.929,5.9271,5.8576,5.8257,5.8219,5.7429,5.7089,5.7014,5.6151,5.5858,5.5746,5.3941,5.2766,5.2011,5.1322,5.0556,4.9868,4.999,0.0,0.0,4.8768,4.8321,4.7631,4.6915,4.6603,4.6347,4.564,4.5383,4.5307,4.5307,4.5307,4.5307,4.5307,4.5307,4.5307,4.5307,4.5307,4.5307,4.5307,4.5307,4.5307,4.5307,4.5307,4.5265,4.5148,4.4584,4.4119,4.4007,4.358,4.3255,4.3184,0.0,0.0,4.2174,4.1489,4.0771,4.0165,4.081,4.0869,4.0165,4.081,4.1199,4.1199,4.1956,4.2772,4.3646,4.4423,4.4443,4.3724,4.1471,4.1568,0.0,0.0,0.0,0.0,0.0,0.0,0.0,0.0,0.0,0.0,0.0,0.0,0.0,0.0,0.0,5.3558,5.5484,5.7161,5.8375,5.8624,5.8762,5.9028,5.9215,5.929,5.929,5.929,5.929,5.929,5.929,5.929,5.929,5.929,5.929,5.929,5.929,5.929,5.929,5.929,5.929,5.929,0.0,0.0,5.929,5.9322,5.93,5.9261,5.8566,5.8273,5.8216,5.7399,5.6658,5.5894,5.4197,5.3425,5.3179,5.2394,5.1575,5.0837,5.0865,5.0396,4.9822,4.9822,4.9358,4.8789,4.8617,4.7586,0.0,4.6309,4.5793,4.5307,4.5307,4.5307,4.5307,4.5307,4.5307,4.5307,4.5307,4.5307,4.5307,4.5307,4.5307,4.5307,4.5307,4.5307,4.5297,4.5275,4.5133,4.507,4.517,4.5092,4.4833,4.4341,4.4163,4.3852,4.3266,4.2432,4.217,4.2728,4.2903,4.2923,4.2767,4.2903,4.3005,4.3005,4.3161,4.3685,4.4559,4.4715,4.5045,4.5491,4.5006,4.4695,0.0,0.0,0.0,0.0,0.0,0.0,0.0,0.0,0.0,0.0,0.0,4.8196,5.0538,0.0,5.3752,5.6205,5.7183,5.8045,5.9102,5.9047,5.8985,5.9272,5.929,5.929,5.929,5.929,5.929,5.929,5.929,5.929,5.929,5.929,5.929,5.929,5.929,5.9364,5.9455,5.9455,5.9509,5.9597,5.9597,5.9597,5.9597,5.97,5.9753,5.9715,5.9398,5.9241,5.92,5.846,5.7407,5.6173,5.5403,5.4491,5.3566,5.3262,5.2588,5.1785,5.1471,5.1117,5.0779,5.034,4.9957,4.9633,4.9224,4.8487,4.7627,4.6748,4.6214,4.5812,4.5392,4.5307,4.5307,4.5307,4.5307,4.5307,4.5307,4.5307,4.5307,4.5307,4.5307,4.5307,4.5307,4.5307,4.5307,4.5307,4.5307,4.5339,4.5485,4.5566,4.551,4.528,4.491,4.455,4.4185,4.3355,4.3044,4.3466,4.3505,4.3505,4.3505,4.3918,4.4151,4.4151,4.4559,4.4967,4.5394,4.5394,4.5613,4.6002,4.6002,4.5788,0.0,0.0,0.0,0.0,0.0,0.0,0.0,4.621,4.7415,4.9149,5.0175,5.1508,5.4058,5.4766,5.5824,5.841,5.8668,5.8823,5.9531,5.9311,5.9112,5.9177,5.9234,5.929,5.929,5.929,5.9365,5.9534,5.9553,5.9609,5.9778,5.9816,5.9834,5.9834,5.9889,5.9904,5.9894,5.9894,5.9887,5.9902,5.9902,5.9902,5.9902,5.9918,5.9934,5.995,5.9982,5.9998,5.9941,5.9227,5.8144,5.6901,5.6681,5.5595,5.4183,5.4199,5.3649,5.2819,5.2271,5.1868,5.1486,5.0779,5.0436,5.0187,4.9519,4.9224,4.8823,4.7398,4.6882,4.6557,4.5755,4.5526,4.5488,4.5345,4.5307,4.5307,4.5307,4.5307,4.5307,4.5307,4.5307,4.5307,4.5307,4.5328,4.5319,4.5307,4.5309,4.539,4.5522,4.566,4.5791,4.5919,4.5395,4.5025,4.5025,4.4384,4.3996,4.3996,4.3996,4.3996,4.3996,4.4656,4.5025,4.5025,4.5672,4.6002,4.6002,4.6002,4.6002,4.6002,4.6002,4.6002,4.1122,4.2971,4.4492,4.5703,4.6407,4.7919,0.0,5.2194,5.1914,5.4137,5.5316,5.6021,5.6278,5.7476,5.8573,5.892,5.9457,5.9694,5.9467,5.9393,5.9194,5.8793,5.9081,5.929,5.929,5.929,5.9628,6.0398,6.0454,6.0773,6.1468,6.1676,6.1786,6.1786,6.1965,6.169,6.0949,6.093,6.057,5.9902,5.9902,5.9902,5.9902,6.0026,6.0087,6.0087,6.027,6.0347,6.0289,5.9444,5.8967,5.8642,5.7179,5.6459,5.6185,5.5492,5.469,5.3907,5.3855,5.2862,5.157,5.1486,5.0932,5.0283,5.0187,4.9671,4.9071,4.8861,4.8258,4.7463,4.6596,4.6366,4.6194,4.5468,4.5307,4.5307,4.5307,4.5307,4.5307,4.5307,4.5307,4.5307,4.5307,4.54,4.5448,4.5328,4.5409,4.5531,4.5668,4.5791,4.5899,4.5975,4.5919,4.5866,4.5866,4.5788,4.573,4.573,4.573,4.573,4.573,4.5808,4.5866,4.5866,4.5944,4.6002,4.6002,4.6002,4.6002,4.6002,4.6002,4.6002,4.3322,4.5334,4.675,4.7999,4.9838,5.1775,5.3353,5.3904,5.4509,5.5911,5.6887,5.7478,5.7437,5.8367,5.926,5.9736,6.006,6.0243,6.0236,5.9821,5.9324,5.8768,5.8862,5.9042,5.929,5.9509,5.9989,6.0838,6.0895,6.1254,6.2103,6.2212,6.2265,6.2265,6.2353,6.2264,6.1983,6.1508,6.1137,6.0887,6.041,6.0182,6.0182,6.0256,6.027,6.0285,6.0375,6.0403,6.037,6.0007,5.9568,5.8994,5.781,5.7046,5.6492,5.5708,5.5174,5.4791,5.4276,5.3645,5.29,5.1926,5.1353,5.0971,5.0455,5.0073,4.9691,4.9243,4.8831,4.8353,4.7483,4.6882,4.6424,4.608,4.564,4.5307,4.5307,4.5307,4.5307,4.5307,4.5307,4.5307,4.5307,4.5419,4.5476,4.5419,4.5457,4.5549,4.5692,4.5754,4.5834,4.5986,4.6002,4.6002,4.6002,4.6002,4.6002,4.6002,4.6002,4.6002,4.6002,4.6002,4.6002,4.6002,4.6002,4.6002,4.6002,4.6002,4.6002,4.6021,4.6521,4.6754,4.4259,4.6475,4.8411,4.9738,5.2428,5.4638,5.4289,5.5262,5.6418,5.7005,5.7593,5.7997,5.7997,5.8657,5.9459,6.0272,6.0584,6.073,6.0692,6.0181,5.9475,5.8616,5.8596,5.8784,5.9082,5.949,6.0203,6.1363,6.1475,6.1949,6.3012,6.3137,6.3135,6.3135,6.3204,6.3172,6.3032,6.246,6.1987,6.1593,6.1,6.0599,6.0403,6.0403,6.0403,6.0403,6.0403,6.0403,6.0403,6.0403,6.0026,5.9376,5.8555,5.7848,5.716,5.6129,5.5594,5.5307,5.4677,5.4295,5.3894,5.269,5.1971,5.1486,5.0856,5.0493,5.0187,4.9595,4.9423,4.9232,4.8372,4.7685,4.7092,4.6615,4.6042,4.5564,4.5364,4.5307,4.5307,4.5307,4.5307,4.5307,4.5307,4.5438,4.5549,4.5504,4.5566,4.5651,4.5746,4.5764,4.5848,4.5986,4.6002,4.6002,4.6002,4.6002,4.6002,4.6002,4.6002,4.6002,4.6002,4.6002,4.6002,4.6002,4.6002,4.6002,4.6002,4.6002,4.6002,4.6021,4.689,4.7434,4.3385,4.6015,4.9395,5.0875,5.3423,5.5757,5.6528,5.7336,5.7923,5.796,5.7978,5.7997,5.7997,5.8657,5.9459,6.0272,6.1043,6.1282,6.0511,6.0382,5.9777,5.8203,5.8369,5.8607,5.8628,5.9045,6.015,6.2199,6.2366,6.3086,6.4737,6.4947,6.5028,6.5028,6.5207,6.4955,6.4153,6.4133,6.3274,6.1593,6.1573,6.1153,6.0403,6.0403,6.0403,6.0403,6.0403,6.0403,6.0403,6.0403,6.037,6.0255,5.9396,5.9038,5.8822,5.716,5.6071,5.5403,5.5365,5.4811,5.4085,5.4046,5.2919,5.1589,5.1582,5.0971,5.0283,5.0264,5.0264,5.0073,4.927,4.9052,4.8594,4.6901,4.6481,4.6252,4.5468,4.5307,4.5307,4.5307,4.5307,4.5307,4.5307,4.5522,4.566,4.5522,4.5723,4.5893,4.5893,4.596,4.5997,4.6002,4.6002,4.6002,4.6002,4.6002,4.6002,4.6002,4.6002,4.6002,4.6002,4.6002,4.6002,4.6002,4.6002,4.6002,4.6002,4.6002,4.6002,4.6021,4.689,4.7745,4.6163,4.8443,5.0822,5.3011,5.5055,5.6732,5.7541,5.7882,5.785,5.7317,5.7207,5.7042,5.651,5.7501,5.8676,5.9483,6.0731,6.1502,6.1227,6.119,6.0603,5.9006,5.8924,5.8892,5.8621,5.8968,6.0112,6.2178,6.2345,6.3168,6.5147,6.5267,6.5298,6.5298,6.5364,6.5261,6.4993,6.4458,6.3618,6.2452,6.1344,6.0656,6.0403,6.0403,6.0403,6.0403,6.0403,6.0403,6.0403,6.0403,6.0403,6.0313,5.9434,5.9095,5.8962,5.7867,5.6931,5.611,5.5594,5.5212,5.4868,5.4295,5.332,5.2308,5.1773,5.099,5.0302,5.0302,5.0302,5.0245,4.9977,4.95,4.8957,4.8353,4.778,4.7131,4.629,4.6099,4.5946,4.5392,4.5307,4.5307,4.5307,4.5438,4.5599,4.5746,4.5833,4.59,4.59,4.5966,4.6002,4.6002,4.6002,4.6002,4.6002,4.6002,4.6002,4.6002,4.6002,4.6002,4.6002,4.6002,4.6002,4.6002,4.6002,4.6002,4.6002,4.6002,4.6307,4.689,4.7764,4.8638,4.7949,4.9679,5.1256,5.358,5.5489,5.6914,5.7428,5.7602,5.7422,5.6614,5.5945,5.5372,5.484,5.5592,5.684,5.851,5.9887,6.0933,6.152,6.1594,6.1117,5.9771,5.9648,5.9527,5.9272,5.9499,6.0298,6.1952,6.2347,6.3209,6.4837,6.5085,6.5185,6.5185,6.5333,6.5394,6.5394,6.4879,6.4038,6.2892,6.1497,6.0676,6.0403,6.0403,6.0403,6.0403,6.0403,6.0403,6.0403,6.0403,6.0403,6.0346,5.9778,5.9568,5.9453,5.8631,5.7963,5.7332,5.6224,5.5651,5.5307,5.4753,5.397,5.3168,5.2652,5.1677,5.076,5.076,5.055,5.0302,5.0302,4.992,4.9461,4.9167,4.8659,4.8028,4.7139,4.6729,4.6347,4.5863,4.5519,4.5338,4.5339,4.5457,4.5624,4.5867,4.5925,4.5931,4.5931,4.5964,4.6002,4.6002,4.6002,4.6002,4.6002,4.6002,4.6002,4.6002,4.6002,4.6002,4.6002,4.6002,4.6002,4.6002,4.6002,4.6002,4.6002,4.6307,4.6754,4.7331,4.8502,4.9363,4.8642,4.9759,5.082,5.2736,5.4761,5.628,5.6359,5.663,5.6632,5.5807,5.4265,5.3059,5.2968,5.3096,5.4234,5.7354,5.8657,5.985,6.1502,6.1722,6.1429,6.0676,6.0548,6.0511,6.0474,6.0456,6.0817,6.1613,6.2423,6.3231,6.4059,6.452,6.4757,6.4757,6.5169,6.5364,6.5364,6.5341,6.4516,6.2892,6.2032,6.1172,6.0403,6.0403,6.0403,6.0403,6.0403,6.0403,6.0403,6.0403,6.0403,6.0403,6.0403,6.0403,6.0307,5.9472,5.9133,5.888,5.7218,5.6148,5.546,5.5422,5.4811,5.4104,5.4104,5.2957,5.1646,5.1608,5.1009,5.0359,5.0302,5.0302,5.0111,4.9328,4.9167,4.8907,4.8048,4.7226,4.6645,4.667,4.6049,4.5524,4.5477,4.5587,4.5723,4.5859,4.5931,4.5997,4.6007,4.6007,4.6007,4.6007,4.6007,4.6007,4.6007,4.6007,4.6007,4.6007,4.6007,4.6007,4.6007,4.6007,4.6007,4.6007,4.6046,4.6065,4.6065,4.6959,4.7381,4.7478,4.9135,4.9932,4.9521,5.0642,5.1622,5.3129,5.4113,5.4861,5.5523,5.5474,5.4877,5.3476,5.231,5.1185,4.9987,5.1696,5.3934,5.5956,5.8423,6.0878,6.3135,6.3447,6.3374,6.3172,6.2585,6.1961,6.1355,6.1282,6.1403,6.1602,6.2131,6.2923,6.4039,6.4215,6.4273,6.4273,6.4721,6.4949,6.4949,6.466,6.3962,6.2892,6.2032,6.1172,6.0403,6.0403,6.0403,6.0403,6.0403,6.0403,6.0403,6.0403,6.0403,6.0403,6.0403,6.0403,6.037,6.0141,5.9663,5.8956,5.7925,5.7008,5.6205,5.5594,5.4811,5.4104,5.4104,5.3359,5.2365,5.1773,5.1448,5.1123,5.0474,5.0302,5.0245,5.0034,4.9996,4.9767,4.8945,4.8582,4.8261,4.7684,4.7449,4.7135,4.6474,4.6482,4.6364,4.5762,4.578,4.591,4.6111,4.6146,4.6146,4.6146,4.6146,4.6146,4.6146,4.6146,4.6146,4.6146,4.6146,4.6146,4.6146,4.6146,4.6146,4.6146,4.673,4.7042,4.7042,4.7922,4.8682,4.932,4.9712,5.0242,5.027,5.1104,5.1733,5.228,5.3135,5.3822,5.3585,5.3613,5.3114,5.1174,4.9769,4.8624,4.772,4.9565,5.1996,5.4354,5.7424,6.0512,6.3309,6.3959,6.4301,6.4669,6.3913,6.3191,6.2732,6.2346,6.2126,6.2126,6.2374,6.2822,6.3502,6.372,6.3846,6.3846,6.4254,6.4483,6.4483,6.4266,6.3812,6.3159,6.2665,6.1904,6.0924,6.0924,6.0761,6.0444,0.0,6.0431,6.0485,6.0417,6.0417,6.0444,6.0403,6.0403,6.0403,6.0403,6.0083,5.9548,5.8727,5.7886,5.6969,5.5785,5.5078,5.4677,5.4677,5.4065,5.3206,5.2365,5.1868,5.141,5.0531,5.0302,5.0302,5.0302,5.0302,5.0187,4.971,4.935,4.8879,4.8121,4.8029,4.7895,4.7395,4.7385,4.7274,4.6822,4.6824,4.6959,4.7184,4.6569,4.6138,4.6196,4.6199,4.6199,4.6199,4.6199,4.6199,4.6199,4.6199,4.6199,4.6199,4.655,4.6722,4.6722,4.7544,4.7972,4.7972,4.8849,4.9512,5.0014,5.0341,5.0776,5.0805,5.1211,5.1408,5.1008,5.2072,5.2865,5.1298,5.1454,5.1269,4.8971,4.7216,4.6056,4.5945,4.7294,4.9529,5.2816,5.6011,5.9316,6.2862,6.3849,6.4622,6.569,6.4908,6.428,6.4255,6.3374,6.278,6.278,6.278,6.278,6.278,6.3205,6.3422,6.349,6.3846,6.4036,6.4135,6.4135,6.3898,6.3472,6.3472,6.2862,6.1736,6.1621,6.1239,6.0684,6.0502,6.0499,6.0591,6.0472,6.0458,6.0512,6.0444,6.0431,6.0431,6.0431,6.0431,6.0302,5.9423,5.8678,5.7817,5.611,5.5498,5.5403,5.5403,5.4868,5.4097,5.3218,5.2485,5.1739,5.0746,5.0497,5.0459,5.0344,5.0325,5.0325,5.0325,4.9797,4.9126,4.8528,4.8433,4.8414,4.8279,4.827,4.8257,4.8197,4.8245,4.8322,4.8463,4.7137,4.6231,4.6344,4.6264,4.6252,4.6388,4.6388,4.6427,4.6544,4.6544,4.6544,4.6544,4.7226,4.7596,4.7596,4.8435,4.8886,4.8886,4.976,5.0185,5.0205,5.0961,5.1308,5.0805,5.0954,5.1008,5.0918,5.1201,5.1276,5.033,4.979,0.0,4.7257,4.6127,4.5238,4.4514,4.6175,4.877,5.2045,5.4704,5.8168,6.3453,6.4297,6.5152,6.7244,6.6162,6.5209,6.5099,6.3704,6.278,6.278,6.278,6.278,6.278,6.288,6.3086,6.349,6.3561,6.3825,6.4273,6.4273,6.3954,6.3331,6.3331,6.3017,6.2395,6.1675,6.1459,6.1626,6.0885,0.0,6.0604,6.0578,6.0578,6.0578,6.0565,6.0565,6.0565,6.0565,6.0565,6.0431,5.9569,5.9166,5.8751,5.697,5.5938,5.5403,5.5403,5.5288,5.5,5.419,5.39,5.3487,5.1935,5.1532,5.136,5.0651,5.0468,5.0468,5.0468,5.0396,5.0314,5.0189,5.0201,5.001,4.9308,4.9183,4.8923,4.821,4.8123,4.8174,4.8322,4.7639,4.7171,4.7182,4.6652,4.6564,4.7303,4.7362,4.7635,4.832,4.8359,4.8359,4.8359,4.8476,4.8554,4.8554,4.9411,4.9859,4.9859,5.0738,5.1167,5.1167,5.13,5.1385,5.1468,5.1633,5.1633,5.1633,5.1407,5.0786,4.9346,0.0,0.0,4.5681,4.5249,4.5026,4.4153,4.5628,4.7764,5.0175,5.2603,5.6029,6.1326,6.2757,6.4295,6.7153,6.6745,6.6024,6.5568,6.4365,6.3462,6.3039,6.3021,6.2947,6.2823,6.278,6.2886,6.3134,6.3134,6.3285,6.3627,6.3627,6.3614,6.3607,6.3607,6.3483,6.3204,6.2785,6.2356,6.1921,6.146,6.1064,6.0704,6.0629,6.0629,6.0655,6.0617,6.0604,6.0604,6.0604,6.0604,6.0546,6.0125,5.9684,5.9089,5.7787,5.6792,5.5989,5.5549,5.5396,5.5224,5.442,5.4207,5.3974,5.2743,5.2102,5.168,5.1278,5.0837,5.0511,5.0542,5.0582,5.0613,5.0643,5.0692,5.0577,5.0144,5.0067,4.9933,4.951,4.9452,4.9489,4.9532,4.8959,4.8405,4.8015,4.7719,4.7722,4.8131,4.8198,4.8378,4.8739,4.8786,4.8788,4.8758,4.9215,4.9481,4.9481,5.034,5.0789,5.0789,5.1199,5.1394,5.1394,5.1403,5.1615,5.2104,5.2281,5.2281,5.2281,5.1683,5.0565,4.8648,4.8179,0.0,4.4573,4.4692,4.5026,4.4153,4.5082,4.6605,4.8574,5.0841,5.411,5.9178,6.1415,6.3641,6.671,6.7006,6.6624,6.578,6.4912,6.4081,6.3268,6.3213,6.3117,6.2898,6.2898,6.2898,6.2898,6.2898,6.2953,6.3075,6.3099,6.334,6.3851,6.3851,6.3852,6.3875,6.3788,6.3165,6.2158,6.2004,6.1523,6.08,6.0692,6.066,6.0729,6.0667,6.0642,6.0642,6.0642,6.0642,6.0642,6.0642,6.0194,5.9484,5.8654,5.7627,5.6549,5.5696,5.5434,5.5306,5.4666,5.451,5.4342,5.3544,5.2845,5.2269,5.1905,5.131,5.0783,5.0652,5.0623,5.0633,5.0683,5.0712,5.0712,5.0712,5.0712,5.0712,5.0712,5.0712,5.0712,5.0712,5.0196,4.9606,4.9026,4.8773,4.874,4.8935,4.9012,4.9095,4.9235,4.9285,4.9285,4.9203,4.9907,5.0285,5.0285,5.0981,5.1335,5.1302,5.1335,5.1335,5.1322,5.1517,5.1895,5.2218,5.2281,5.2281,5.2281,5.1468,5.0226,4.8578,0.0,4.7038,4.4525,4.4692,4.5026,4.4153,4.4135,4.5249,4.8389,5.0376,5.3478,5.9125,6.1964,6.4369,6.6809,6.7105,6.6723,6.5786,6.4912,6.4081,6.3268,6.3213,6.3189,6.3165,6.3165,6.3165,6.3165,6.3165,6.3237,6.3377,6.3359,6.3447,6.3624,6.3624,6.3835,6.4158,6.3724,6.3231,6.2706,6.2273,6.1589,0.0,6.0788,6.0788,6.08,6.0788,6.0788,6.0788,6.0788,6.0788,6.0788,6.0788,6.0731,6.0507,5.9583,5.8141,5.6635,5.5761,5.5527,5.5573,5.5477,5.5522,5.5374,5.4577,5.4308,5.3846,5.2278,5.1836,5.1567,5.0856,5.0683,5.0683,5.0712,5.0712,5.0712,5.0712,5.0712,5.0712,5.0712,5.0712,5.0712,5.0712,5.0645,5.0567,5.0509,4.932,4.8856,4.9715,4.9808,5.0139,5.093,5.0973,5.0921,5.0792,5.0875,5.092,5.092,5.1116,5.1155,5.1036,5.1155,5.1155,5.1056,5.1847,5.2249,5.2097,5.2629,5.2849,5.3122,5.191,5.0293,4.8919,4.7923,4.6649,4.4459,4.4692,4.5026,4.4153,4.4005,4.4766,4.7088,4.8017,5.0098,5.4853,5.7639,6.0478,6.3886,6.5593,6.6349,6.5986,6.5634,6.4869,6.3535,6.3442,6.3442,6.3442,6.3284,6.3213,6.3213,6.3213,6.326,6.34,6.34,6.347,6.3602,6.3602,6.3808,6.4192,6.3725,6.3253,6.2758,6.2305,6.162,0.0,6.08,6.08,6.08,6.08,6.08,6.08,6.08,6.08,6.08,6.08,6.08,6.0646,5.9758,5.9004,5.8162,5.6717,5.593,5.5551,5.5585,5.5618,5.5583,5.5288,5.4857,5.4184,5.2972,5.2673,5.2452,5.1606,5.1414,5.1279,5.0789,5.0712,5.0712,5.0712,5.0712,5.0712,5.0712,5.0712,5.0712,5.0712,5.0712,5.0712,5.0712,5.024,5.0105,5.048,5.0531,5.0704,5.1054,5.1074,5.1053,5.1008,5.1002,5.1002,5.1002,5.1053,5.1306,5.1779,5.1844,5.2097,5.2569,5.2919,5.3301,5.177,5.2766,5.3383,5.3717,5.2341,5.0562,4.921,4.8031,4.6614,4.4424,4.4692,4.5101,4.4506,4.4376,4.4934,4.6587,4.746,4.9206,5.281,5.5652,5.8624,6.2004,6.4159,6.5366,6.5366,6.5366,6.4883,6.3695,6.3602,6.3602,6.3602,6.3419,6.3307,6.3307,6.3307,6.3354,6.3447,6.3447,6.3511,6.3602,6.3602,6.3761,6.4007,6.3671,6.3168,6.2605,6.2247,6.162,0.0,6.08,6.08,6.08,6.08,6.08,6.08,6.08,6.08,6.08,6.08,6.08,6.0704,6.0089,5.9704,5.9231,5.7697,5.6637,5.59,5.5684,5.5629,5.5629,5.5692,5.528,5.4645,5.3799,5.3587,5.3356,5.2462,5.2077,5.1731,5.1164,5.0856,5.0712,5.0712,5.0712,5.0712,5.0712,5.0712,5.0712,5.0712,5.0712,5.0712,5.0712,5.0775,5.0858,5.0906,5.0932,5.0966,5.0966,5.0966,5.0946,5.0905,5.1131,5.1266,5.1266,5.156,5.1987,5.2577,5.2607,5.291,5.3487,5.3758,5.4257,5.1175,5.2587,5.3775,5.3813,5.2605,5.0971,4.928,4.8277,4.6995,4.4506,4.4692,4.5287,4.5287,4.5287,4.5807,4.7423,4.9745,5.2197,5.463,5.7806,6.05,6.2209,6.3137,6.3639,6.3639,6.3639,6.3616,6.3602,6.3602,0.0,6.3602,6.3598,6.3598,6.3598,6.3598,6.3598,6.3598,6.3598,6.3602,6.3602,6.3602,6.3602,6.3587,6.3521,6.3033,6.2197,6.2136,6.162,0.0,6.08,6.08,6.08,6.08,6.08,6.08,6.08,6.08,6.08,6.08,6.08,6.08,6.0781,6.0204,5.9358,5.8531,5.7684,5.681,5.5934,5.5703,5.5703,5.5703,5.5684,5.5472,5.4684,5.4491,5.4241,5.3376,5.25,5.1904,5.1885,5.1241,5.0712,5.0712,5.0712,5.0712,5.0712,5.0712,5.0712,5.0712,5.0712,5.0712,5.0712,5.0693,5.0758,5.0898,5.0894,5.0894,5.0894,5.0894,5.0841,5.0702,5.1471,5.1895,5.1895,5.2873,5.3307,5.3183,5.3326,5.3337,5.3222,5.4098,5.4925,4.8649,4.9652,5.045,5.045,4.9652,4.8593,4.7516,4.6643,4.5844,4.5045,4.5101,4.5472,4.6011,4.6122,4.6828,4.9002,5.0005,0.0,5.3831,5.7026,5.9701,6.1391,6.3788,6.5069,6.447,6.3913,6.3602,6.3602,6.3602,6.3602,6.3602,6.3602,6.3602,6.3602,6.3602,6.3602,6.3602,6.3602,6.3602,6.3602,6.3602,6.3739,6.3988,6.303,6.2601,6.2552,6.162,6.105,6.08,6.08,6.08,6.08,6.08,6.08,6.08,6.08,6.08,6.08,6.08,6.08,6.08,6.08,6.0608,6.0223,5.9377,5.8127,5.683,5.5953,5.5703,5.5703,5.5703,5.5703,5.5645,5.5376,5.5318,5.5088,5.426,5.3876,5.3318,5.2135,5.1692,5.1356,5.0789,5.0712,5.0712,5.0712,5.0712,5.0712,5.0712,5.0712,5.0712,5.0712,5.0712,5.0712,5.0758,5.0767,5.0801,5.0887,5.1331,5.1614,5.1647,5.2387,5.2799,5.2799,5.3109,5.3532,5.4087,5.4129,5.4399,5.4914,5.5184,5.5453,4.694,4.8054,4.8909,4.8909,4.8296,4.7497,4.668,4.5881,4.5287,4.5287,4.5287,4.5639,4.6754,4.694,4.7646,4.9763,5.0376,5.1454,5.3924,5.6822,5.9441,6.1428,6.3732,6.4828,6.3992,6.3732,6.3602,6.3602,6.3602,6.3602,6.3602,6.3602,6.3602,6.3602,6.3602,6.3602,6.3602,6.3602,6.3691,6.383,6.383,6.4007,6.4332,6.3029,6.2566,6.272,6.1371,6.08,0.0,6.08,6.08,6.08,6.08,6.08,6.08,6.08,6.08,6.08,6.08,6.08,6.08,6.08,6.0569,6.0146,5.93,5.8088,5.683,5.5953,5.5703,5.5703,5.5703,5.5703,5.5703,5.5703,5.5703,5.5549,5.5049,5.4703,5.4184,5.3087,5.2615,5.2241,5.1722,5.1645,5.1645,5.1645,5.1645,5.151,5.1202,5.1144,5.1144,5.1144,5.1144,5.1279,5.1625,5.1058,5.0875,5.1243,5.1674,5.2079,5.2489,5.3263,5.3683,5.3683,5.3991,5.4414,5.4953,5.4953,5.5203,5.5703,5.5703,5.5703,0.0,4.746,4.8649,4.8649,4.8091,4.733,4.6587,4.5844,0.0,4.5454,4.5472,4.5974,4.7664,4.7906,4.8444,5.0172,5.1138,5.2475,5.4853,5.736,5.9868,6.2283,6.3249,6.3379,6.2562,6.3175,6.3602,6.3602,6.3602,6.3602,6.3602,6.3602,6.3602,6.3602,6.3602,6.3602,6.3602,6.3602,6.3786,6.419,6.419,6.4388,6.4694,6.339,6.2815,0.0,6.1383,6.08,6.08,6.08,6.08,6.08,6.08,6.08,6.08,6.08,6.08,6.08,6.08,6.08,6.08,6.08,6.0242,5.9435,5.8627,5.7742,5.683,5.5953,5.5703,5.5703,5.5703,5.5703,5.5703,5.5703,5.5703,5.5703,5.5703,5.5107,5.4568,5.4511,5.3857,5.328,5.3222,5.3203,5.3203,5.3203,5.3203,5.2914,5.2096,5.1981,5.1981,5.1981,5.1981,5.2308,5.3126,5.176,5.1202,5.1942,5.2038,5.2442,5.326,5.4126,5.4587,5.4587,5.5318,5.5703,5.5703,5.5703,5.5703,5.5703,5.5703,5.5703,4.4488,0.0,4.6141,4.6141,4.5992,4.5807,0.0,4.5435,4.5639,4.6884,4.7144,4.7831,5.0116,4.9986,5.0488,5.3385,5.4035,5.4816,5.6655,5.9589,6.2209,6.4006,6.4396,6.4192,6.3416,6.349,6.3602,6.3602,6.3602,6.3602,6.3602,6.3602,6.3602,6.3602,6.3602,6.3602,6.3602,6.3602,6.3786,6.419,6.419,6.4539,6.5115,6.3516,6.2929,6.3086,6.1488,6.08,6.08,6.08,6.08,6.08,6.08,6.08,6.08,6.08,6.08,6.08,6.08,6.08,6.08,6.08,6.0666,6.0319,5.9473,5.8184,5.683,5.5953,5.5703,5.5703,5.5703,5.5703,5.5703,5.5703,5.5703,5.5703,5.5703,5.5549,5.5241,5.4626,5.4337,5.3972,5.3318,5.3203,5.3203,5.3203,5.3203,5.3126,5.2933,5.2895,5.2895,5.2895,5.2895,5.2991,5.3183,5.2837,5.2683,5.2876,5.353,5.3972,5.4184,5.4972,5.5415,5.5415,5.5588,5.5703,5.5703,5.5703,5.5703,5.5703,5.5703,5.5703,4.4488,4.5472,4.6401,4.6401,4.6401,4.6401,4.6401,4.6122,4.6197,4.7441,4.7701,4.8333,5.0413,5.0748,5.1528,5.4054,5.476,5.5986,5.8809,6.1057,6.3007,6.46,6.4786,6.447,6.3672,6.3602,6.3602,6.3602,6.3602,6.3602,6.3602,6.3602,6.3602,6.3602,6.3602,6.3602,6.3602,6.3764,6.4048,6.4426,6.4631,6.4785,6.4947,6.4028,6.3316,6.2704,6.1781,6.1166,6.08,6.08,6.08,6.08,6.08,6.08,6.08,6.08,6.08,6.08,6.08,6.08,6.08,6.08,6.08,6.0627,5.9762,5.8877,5.7973,5.7126,5.6896,5.6799,5.6395,5.631,5.6214,5.5799,5.5703,5.5703,5.5703,5.5703,5.5568,5.5145,5.5049,5.4895,5.4434,5.4357,5.4357,5.4357,5.4357,5.4203,5.3837,5.3799,5.3799,5.3799,5.3799,5.3953,5.4318,5.4357,5.4184,5.3818,5.4241,5.4664,5.503,5.5472,5.5703,5.5703,5.5703,5.5703,5.5703,5.5703,5.5703,5.5703,5.5703,5.5915,4.5026,4.6643,4.8017,4.7757,4.7794,4.785,4.7738,0.0,0.0,0.0,4.7887,4.8426,5.0172,5.1101,5.2197,5.4073,5.515,5.7082,6.0853,6.1986,6.2952,6.4433,6.4619,6.434,6.3676,6.3602,6.3602,6.3602,6.3602,6.3602,6.3602,6.3602,6.3602,6.3602,6.3669,6.3673,6.3673,6.4025,6.4407,6.4786,6.5007,6.4924,6.4589,6.4339,6.3435,6.2101,0.0,0.0,6.08,6.08,6.08,6.08,6.08,6.08,6.08,6.08,6.08,6.08,6.08,6.08,6.08,6.08,6.08,6.0666,5.9915,5.9704,5.9569,5.8877,5.8511,5.8127,5.7376,5.7214,5.6983,5.6107,5.5895,5.5857,5.5722,5.5703,5.5703,5.5703,5.5703,5.5703,5.5703,5.5703,5.5703,5.5703,5.5703,5.5453,5.4761,5.4684,5.4684,5.4684,5.4684,5.4953,5.5645,5.5703,5.5415,5.4722,5.4684,5.4991,5.5665,5.5703,5.5703,5.5703,5.5703,5.5703,5.5703,5.5818,5.5818,5.5703,5.5972,5.6415,4.4878,4.746,4.941,4.8036,4.8203,4.8537,4.7868,4.7608,0.0,0.0,0.0,4.9429,5.1788,5.2327,5.3404,5.645,5.8196,5.9887,6.193,6.232,6.2747,6.3676,6.3788,6.3728,6.362,6.3602,6.3602,6.3602,6.3602,6.3602,6.3602,6.3602,6.3602,6.3602,6.3939,6.4108,6.4108,6.4169,6.4539,6.5203,6.4524,6.4336,6.4551,6.3128,6.2351,6.2062,0.0,6.0916,6.08,6.08,6.08,6.08,6.08,6.08,6.08,6.08,6.08,6.08,6.08,6.08,6.08,6.08,6.08,6.0781,6.0646,6.0589,6.0569,6.0454,5.9396,5.828,5.8146,5.8107,5.7877,5.7022,5.681,5.6599,5.5857,5.5703,5.5703,5.5703,5.5703,5.5703,5.5703,5.5703,5.5703,5.5703,5.5703,5.5665,5.553,5.5511,5.5511,5.5511,5.5511,5.5568,5.5684,5.5703,5.5645,5.5511,5.5511,5.5568,5.5684,5.5703,5.5703,5.5703,5.5703,5.5703,5.5703,5.6445,5.6426,5.5742,5.7203,5.7569,4.4265,4.6977,4.9392,4.9113,4.9986,5.0821,5.0484,5.0074,4.9887,0.0,0.0,5.0948,5.3013,5.374,5.5098,5.8472,5.9566,6.0585,6.2259,6.2457,6.271,6.3509,6.3602,6.3602,6.3602,6.3602,6.3602,6.3602,6.3602,6.3602,6.3602,6.3602,6.3695,6.3918,6.4108,6.4388,6.4791,6.4791,6.4962,6.5299,6.5097,6.4634,6.3897,6.3589,6.2704,6.1408,0.0,6.1243,6.08,6.08,6.08,6.08,6.08,6.08,6.08,6.08,6.08,6.08,6.08,6.08,6.08,6.08,6.08,6.08,6.08,6.08,6.08,6.08,6.0242,5.9531,5.9069,5.8954,5.8742,5.7896,5.7338,5.6887,5.6503,5.603,5.5703,5.5703,5.5703,5.5703,5.5703,5.5703,5.5703,5.5703,5.5703,5.5703,5.5703,5.5703,5.5703,5.5703,5.5703,5.5703,5.5703,5.5703,5.5703,5.5703,5.5703,5.5703,5.5703,5.5703,5.5703,5.5703,5.6242,5.6512,5.6512,5.74,5.7593,5.7226,5.7961,5.8319,4.3986,4.642,4.8927,5.0172,5.1249,5.2141,5.2622,5.21,5.1633,0.0,0.0,5.2526,5.3848,5.5044,5.6853,6.0068,6.064,6.1232,6.2705,6.2824,6.2981,6.3591,6.3665,6.3624,6.3602,6.3602,6.3602,6.3602,6.3602,6.3602,6.3602,6.3505,6.3574,6.3889,6.4048,6.4417,6.4997,6.5297,6.5441,6.5456,6.5333,6.4589,6.3308,6.3589,6.2647,6.0839,6.1524,6.1427,6.08,6.08,6.08,6.08,6.08,6.08,6.08,6.08,6.08,6.08,6.08,6.08,6.08,6.08,6.08,6.08,6.08,6.08,6.08,6.08,6.08,6.0646,5.9973,5.98,5.9608,5.8781,5.8069,5.7541,5.7349,5.6607,5.5992,5.5992,5.5838,5.5703,5.5703,5.5703,5.5703,5.5703,5.5703,5.5703,5.5703,5.5703,5.5703,5.5703,5.5703,5.5703,5.5703,5.5737,5.5748,5.5748,5.5716,5.5703,5.5703,5.5703,5.5812,5.6056,5.68,5.7331,5.7547,5.8387,5.8699,5.8516,5.8775,5.9108,4.4562,4.6475,4.8351,5.0729,5.0785,5.071,5.2399,5.2118,0.0,5.3605,0.0,5.3941,5.409,5.6033,5.8442,6.1002,6.2048,6.2811,6.3689,6.3798,6.3774,6.378,6.3798,6.3732,6.3602,6.3602,6.3602,6.3602,6.3602,6.3602,6.3602,6.3189,6.2947,6.2987,6.3666,6.4054,6.4099,6.5279,6.5853,6.5833,6.425,6.3423,6.325,6.1743,6.0973,6.08,6.0858,6.0858,6.08,6.08,6.08,6.08,6.08,6.08,6.08,6.08,6.08,6.08,6.08,6.08,6.08,6.08,6.08,6.08,6.08,6.08,6.08,6.08,6.08,6.0781,6.0723,6.0704,6.0492,5.9627,5.9377,5.9127,5.8377,5.7511,5.6907,5.6907,5.6252,5.5703,5.5703,5.5703,5.5703,5.5703,5.5703,5.5703,5.5703,5.5703,5.5703,5.5703,5.5703,5.5703,5.5703,5.5808,5.5889,5.5889,5.5778,5.5703,5.5703,5.5703,5.6134,5.7067,5.7162,5.766,5.8583,5.9338,5.929,5.8535,5.995,6.0223,4.3355,4.6115,4.8807,4.9739,5.0908,0.0,0.0,5.3811,5.4331,5.5581,5.5769,0.0,5.6425,5.7735,5.9384,6.1351,6.1872,6.2485,6.3834,6.3937,6.3873,6.387,6.387,6.3845,6.3714,6.3714,6.3688,6.362,6.383,6.3736,6.3192,6.3238,6.3155,6.2848,6.3104,6.3346,6.3558,6.4027,6.4282,6.4282,6.4166,6.382,6.3262,6.2127,6.13,6.08,6.08,6.08,6.08,6.08,6.08,6.08,6.08,6.08,6.08,6.08,6.08,6.08,6.08,6.08,6.08,6.08,6.08,6.08,6.08,6.08,6.08,6.08,6.08,6.08,6.08,6.08,6.0723,6.0396,5.9896,5.9415,5.9108,5.8396,5.7819,5.7819,5.755,5.7319,5.7319,5.7319,5.7126,5.6599,5.6522,5.631,5.5761,5.6261,5.6637,5.6637,5.719,5.714,5.604,5.6485,5.6613,5.6128,5.599,5.5943,5.5943,5.6474,5.6947,5.7326,5.8466,5.9259,5.962,6.0372,6.0618,6.0392,6.0777,6.0854,4.3117,4.5991,4.8961,4.9807,0.0,0.0,5.4769,5.5298,5.5898,5.7357,5.7377,5.7434,5.8386,5.8745,5.959,6.1638,6.1788,6.2251,6.3939,6.4081,6.4019,6.3977,6.3958,6.3934,6.3845,6.3937,6.396,6.3857,6.4213,6.4049,6.3163,6.324,6.3042,6.2448,6.2533,6.2688,6.2916,6.3166,6.3288,6.3288,6.3647,6.3493,6.2897,6.207,6.1358,6.08,6.08,6.08,6.08,6.08,6.08,6.08,6.08,6.08,6.08,6.08,6.08,6.08,6.08,6.08,6.08,6.08,6.08,6.08,6.08,6.08,6.08,6.08,6.08,6.08,6.08,6.08,6.08,6.08,6.0339,5.9915,5.9915,5.9261,5.8684,5.8684,5.852,5.8351,5.8351,5.8393,5.8211,5.7641,5.7545,5.7313,5.6714,5.7256,5.7668,5.7664,5.8284,5.8208,5.7009,5.7515,5.7644,5.7098,5.705,5.6894,5.6523,5.7346,5.7965,5.8272,5.9548,6.0353,6.0676,6.1143,6.1402,6.1494,6.1278,6.122,4.4269,4.6271,4.8674,5.1333,5.2764,5.4178,5.6624,5.6346,5.6236,5.8765,5.8671,5.8478,5.9609,5.8881,5.9042,6.1845,6.2013,6.2389,6.4041,6.4286,6.4245,6.4104,6.4083,6.4023,6.3897,6.4194,6.4389,6.4389,6.4693,6.4514,6.3641,6.313,6.2494,6.162,6.1921,6.2101,6.2101,6.2878,6.3269,6.3281,6.2474,6.2101,6.2082,6.1204,6.08,6.08,6.08,6.08,6.08,6.08,6.08,6.08,6.08,6.08,6.08,6.08,6.08,6.08,6.08,6.08,6.08,6.08,6.08,6.08,6.08,6.08,6.08,6.08,6.08,6.08,6.08,6.08,6.0812,6.08,6.08,6.0812,6.0812,6.0119,5.9523,5.9523,5.8983,5.8525,5.8525,5.8634,5.872,5.872,5.872,5.872,5.87,5.87,5.8713,5.8725,5.8711,5.8729,5.8704,5.8827,5.891,5.891,5.9037,5.8592,5.7458,5.8256,5.9182,6.0178,6.022,6.0695,6.1709,6.1571,6.1501,6.1497,6.1363,6.1309,4.3297,4.6505,5.0342,5.0435,5.3043,5.5962,5.7324,5.7651,0.0,0.0,5.9595,5.9684,6.0021,5.9809,6.0045,6.1492,6.1659,6.1961,6.3025,6.3177,6.3161,6.3109,6.3109,6.3057,6.2936,6.3002,6.3052,6.2985,6.3307,6.3136,6.2313,6.2356,6.2005,6.1142,6.1201,6.1231,6.1185,6.1416,6.1531,6.1531,6.13,6.1524,6.2082,6.1204,6.08,6.08,6.08,6.08,6.08,6.08,6.08,6.08,6.08,6.08,6.08,6.08,6.08,6.08,6.08,6.08,6.08,6.08,6.08,6.08,6.08,6.08,6.08,6.08,6.08,6.08,6.08,6.0867,6.0932,6.0827,6.0877,6.0943,6.0943,6.0817,6.0699,6.0699,6.0546,6.041,6.041,6.0427,6.0261,5.9704,5.9607,5.9652,5.9742,5.9765,5.9783,5.9892,6.0442,6.0305,5.908,5.9587,5.9714,5.9147,5.9684,5.9584,5.8634,5.9434,6.0048,6.0338,6.0944,6.1399,6.1698,6.1616,6.159,6.1632,6.1554,6.1549,4.5148,4.8128,5.1579,5.2406,5.467,5.7071,5.8597,5.9106,5.9368,5.9863,6.0089,6.024,6.0366,6.03,6.0512,6.1488,6.1573,6.1774,6.2595,6.271,6.271,6.271,6.271,6.2661,6.2597,6.2701,6.2758,6.2715,6.3028,6.2863,6.2016,6.2142,6.1837,6.0957,6.0914,6.0869,6.0835,6.0812,6.08,6.08,6.08,6.1069,6.1581,6.1031,6.08,6.08,6.08,6.08,6.08,6.08,6.08,6.08,6.08,6.08,6.08,6.08,6.08,6.08,6.08,6.08,6.08,6.08,6.08,6.08,6.08,6.08,6.08,6.08,6.08,6.0804,6.0867,6.0943,6.0983,6.0901,6.0974,6.1079,6.1079,6.114,6.1206,6.1206,6.1266,6.1328,6.1328,6.1358,6.1237,6.0755,6.0677,6.0703,6.0782,6.0793,6.0831,6.0911,6.138,6.1264,6.0212,6.0604,6.0702,6.0214,6.0644,6.0683,6.0153,6.0641,6.0916,6.0917,6.1425,6.1699,6.1699,6.1654,6.1655,6.1699,6.1654,6.1655,4.8481,5.0401,5.2506,5.5937,5.7033,5.7884,6.02,6.0501,6.0267,6.024,6.0253,6.0379,6.0673,6.0489,6.0628,6.1661,6.162,6.1726,6.2438,6.2553,6.2553,6.2553,6.2553,6.2553,6.2553,6.283,6.3017,6.3017,6.3289,6.311,6.2317,6.221,6.1823,6.1021,6.0948,6.0903,6.0922,6.0835,6.0812,6.0812,6.08,6.08,6.08,6.08,6.08,6.08,6.08,6.08,6.08,6.08,6.08,6.08,6.08,6.08,6.08,6.08,6.08,6.08,6.08,6.08,6.08,6.08,6.08,6.08,6.08,6.08,6.0812,6.0816,6.0816,6.0853,6.0974,6.1039,6.1048,6.1048,6.1143,6.1226,6.1226,6.124,6.1246,6.1246,6.1397,6.1514,6.1514,6.162,6.1708,6.1709,6.1709,6.169,6.169,6.1691,6.1693,6.1697,6.1697,6.1698,6.1699,6.1699,6.1699,6.1699,6.1699,6.1699,6.1699,6.1699,6.1699,6.1699,6.1699,6.1699,6.1699,6.1699,6.1699,6.1699,6.1699,6.1699,4.7419,5.015,5.3541,5.5477,5.8094,6.0345,6.0896,6.0953,6.085,6.0649,6.0754,6.0942,6.1002,6.0953,6.099,6.1234,6.1213,6.1239,6.1413,6.1432,6.1432,6.1432,6.1432,6.1432,6.1432,6.1523,6.1553,6.1553,6.1611,6.1582,6.1389,6.1379,6.1254,6.1002,6.0982,6.098,6.0976,6.0922,6.0869,6.0869,6.0823,6.08,6.08,6.08,6.08,6.08,6.08,6.08,6.08,6.08,6.08,6.08,6.08,6.08,6.08,6.08,6.08,6.08,6.08,6.08,6.08,6.08,6.08,6.08,6.08,6.08,6.0827,6.0923,6.0954,6.0983,6.1116,6.1266,6.1398,6.1398,6.142,6.1436,6.1436,6.1517,6.1582,6.1582,6.1634,6.1652,6.1661,6.1674,6.1702,6.1708,6.1694,6.1696,6.1696,6.1698,6.1699,6.1699,6.1699,6.1699,6.1699,6.1699,6.1699,6.1699,6.1699,6.1699,6.1699,6.1699,6.1699,6.1699,6.1699,6.1699,6.1699,6.1699,6.1699,6.1699,6.1699,6.1699,4.7904,5.0474,5.3558,5.6377,5.9099,6.1099,6.1099,6.1099,6.107,6.0922,6.1002,6.1099,6.1099,6.1099,6.1099,6.1099,6.1099,6.1099,6.1099,6.1099,6.1099,6.1099,6.1099,6.1099,6.1099,6.1099,6.1099,6.1099,6.1099,6.1099,6.1099,6.1099,6.1089,6.1041,6.1022,6.1011,6.1,6.0976,6.0933,6.0911,6.0858,6.0835,6.08,6.08,6.08,6.08,6.08,6.08,6.08,6.08,6.08,6.08,6.08,6.08,6.08,6.08,6.08,6.08,6.08,6.08,6.08,6.08,6.08,6.08,6.08,6.0842,6.0922,6.0993,6.1046,6.1136,6.1292,6.1412,6.1524,6.1584,6.1591,6.1591,6.1591,6.166,6.1701,6.1707,6.1694,6.1699,6.1708,6.1692,6.1694,6.1696,6.1698,6.1698,6.1698,6.1699,6.1699,6.1699,6.1699,6.1699,6.1699,6.1699,6.1699,6.1699,6.1699,6.1699,6.1699,6.1699,6.1699,6.1699,6.1699,6.1699,6.1699,6.1699,6.1699,6.1699,6.1699,6.1699,4.8179,5.0693,5.3428,5.7568,5.9764,6.0925,6.1079,6.1099,6.1099,6.1099,6.1099,6.1099,6.1099,6.1099,6.1099,6.1099,6.1099,6.1099,6.1099,6.1099,6.1099,6.1099,6.1099,6.1099,6.1099,6.1099,6.1099,6.1099,6.1099,6.1099,6.1099,6.1099,6.1099,6.1099,6.1061,6.1022,6.1022,6.102,6.0967,6.0924,6.0933,6.09,6.0835,6.0823,6.0812,6.08,6.08,6.08,6.08,6.08,6.08,6.08,6.08,6.08,6.08,6.08,6.08,6.08,6.08,6.08,6.08,6.08,6.08,6.0793,6.0839,6.0902,6.1011,6.1064,6.1167,6.1304,6.1495,6.1526,6.1565,6.1676,6.1705,6.1705,6.1701,6.1703,6.1707,6.1696,6.1705,6.1693,6.1697,6.1699,6.1699,6.1699,6.1699,6.1699,6.1699,6.1699,6.1699,6.1699,6.1699,6.1699,6.1699,6.1699,6.1699,6.1699,6.1699,6.1699,6.1699,6.1699,6.1699,6.1699,6.1699,6.1699,6.1699,6.1699,6.1699,6.1699,6.1699,6.1699,4.58,4.9745,5.4175,5.7723,5.9339,6.0248,6.0944,6.1099,6.1099,6.1099,6.1099,6.1099,6.1099,6.1099,6.1099,6.1099,6.1099,6.1099,6.1099,6.1099,6.1099,6.1099,6.1099,6.1099,6.1099,6.1099,6.1099,6.1099,6.1099,6.1099,6.1099,6.1099,6.1099,6.1099,6.1089,6.1089,6.1089,6.1041,6.1011,6.0982,6.0989,6.0976,6.0965,6.0903,6.0846,6.08,6.08,6.08,6.08,6.08,6.08,6.08,6.08,6.08,6.08,6.08,6.08,6.08,6.08,6.08,6.08,6.08,6.08,6.0827,6.0943,6.0993,6.1066,6.1349,6.1456,6.1482,6.1635,6.1674,6.1681,6.1705,6.1705,6.1702,6.1703,6.1696,6.1704,6.1699,6.169,6.1697,6.1697,6.1699,6.1699,6.1699,6.1699,6.1699,6.1699,6.1699,6.1699,6.1699,6.1699,6.1699,6.1699,6.1699,6.1699,6.1699,6.1699,6.1699,6.1699,6.1699,6.1699,6.1699,6.1699,6.1699,6.1699,6.1699,6.1699,6.1699,6.1699,6.1699,4.6399,4.9591,5.2859,5.6283,5.7811,5.8797,6.0112,6.0422,6.0557,6.1002,6.1099,6.1099,6.1099,6.1099,6.1099,6.1099,6.1099,6.1099,6.1099,6.1099,6.1099,6.1099,6.1099,6.1099,6.1099,6.1099,6.1099,6.1099,6.1099,6.1099,6.1099,6.1099,6.1099,6.1099,6.1099,6.1099,6.1099,6.108,6.1032,6.1002,6.0999,6.0987,6.0987,6.0965,6.0922,6.0846,6.0823,6.08,6.08,6.08,6.08,6.08,6.08,6.08,6.08,6.08,6.08,6.0804,6.0899,6.0902,6.0923,6.1002,6.1019,6.1037,6.1147,6.1211,6.131,6.1465,6.1547,6.1622,6.1681,6.1707,6.1709,6.1709,6.1692,6.1692,6.1701,6.1704,6.1709,6.1691,6.1697,6.1699,6.1699,6.1699,6.1699,6.1699,6.1699,6.1699,6.1699,6.1699,6.1699,6.1699,6.1699,6.1699,6.1699,6.1699,6.1699,6.1699,6.1699,6.1699,6.1699,6.1699,6.1699,6.1699,6.1699,6.1699,6.1699,6.1699,6.1699,6.1699,6.1699,6.1699,4.6051,4.8333,5.0422,5.3837,5.5694,5.7114,5.8855,5.9571,6.0074,6.0673,6.0963,6.1099,6.1099,6.1099,6.1099,6.1099,6.1099,6.1099,6.1099,6.1099,6.1099,6.1099,6.1099,6.1099,6.1099,6.1099,6.1099,6.1099,6.1099,6.1099,6.1099,6.1099,6.1099,6.1099,6.1099,6.1099,6.1099,6.1099,6.108,6.1022,6.104,6.1039,6.102,6.0999,6.0978,6.0916,6.0858,6.0823,6.0823,6.0812,6.08,6.08,6.08,6.08,6.0793,6.0831,6.0853,6.0867,6.1011,6.1064,6.109,6.1177,6.12,6.1246,6.1336,6.1413,6.1502,6.1537,6.1614,6.1692,6.1692,6.1693,6.1694,6.1694,6.1696,6.1697,6.1695,6.1693,6.1694,6.1697,6.1699,6.1699,6.1699,6.1699,6.1699,6.1699,6.1699,6.1699,6.1699,6.1699,6.1699,6.1699,6.1699,6.1699,6.1699,6.1699,6.1699,6.1699,6.1699,6.1699,6.1699,6.1699,6.1699,6.1699,6.1699,6.1699,6.1699,6.1699,6.1699,6.1699,6.1699,6.1699,4.2841,4.4794,4.6883,5.0299,5.3072,5.5374,5.7048,5.872,5.9899,5.9938,6.0576,6.1099,6.1099,6.1099,6.1099,6.1099,6.1099,6.1099,6.1099,6.1099,6.1099,6.1099,6.1099,6.1099,6.1099,6.1099,6.1099,6.1099,6.1099,6.1099,6.1099,6.1099,6.1099,6.1099,6.1099,6.1099,6.1099,6.1099,6.1099,6.1089,6.1089,6.1089,6.1089,6.1022,6.1002,6.0992,6.0916,6.088,6.088,6.0823,6.08,6.08,6.08,6.08,6.0816,6.0934,6.0983,6.1011,6.114,6.1239,6.1279,6.122,6.1234,6.132,6.1456,6.1499,6.153,6.1658,6.1693,6.1697,6.1697,6.1698,6.1699,6.1699,6.1699,6.1699,6.1699,6.1698,6.1698,6.1699,6.1699,6.1699,6.1699,6.1699,6.1699,6.1699,6.1699,6.1699,6.1699,6.1699,6.1699,6.1699,6.1699,6.1699,6.1699,6.1699,6.1699,6.1699,6.1699,6.1699,6.1699,6.1699,6.1699,6.1699,6.1699,6.1699,6.1699,6.1699,6.1699,6.1699,6.1699,6.1699,4.2609,4.375,4.5026,4.845,5.0422,5.2105,5.4349,5.6186,5.7714,5.8836,5.9745,6.0499,6.1002,6.1099,6.1099,6.1099,6.1099,6.1099,6.1099,6.1099,6.1099,6.1099,6.1099,6.1099,6.1099,6.1099,6.1099,6.1099,6.1099,6.1099,6.1099,6.1099,6.1099,6.1099,6.1099,6.1099,6.1099,6.0596,6.0596,6.1099,6.0576,6.0596,6.1099,6.108,6.1051,6.107,6.0991,6.0959,6.0965,6.0944,6.0933,6.0924,6.0973,6.0993,6.1012,6.1143,6.1196,6.1204,6.1342,6.1412,6.145,6.1497,6.1537,6.1568,6.1612,6.1619,6.1645,6.1696,6.1698,6.1699,6.1699,6.1699,6.1699,6.1699,6.1699,6.1699,6.1699,6.1699,6.1699,6.1699,6.1699,6.1699,6.1699,6.1699,6.1699,6.1699,6.1699,6.1699,6.1699,6.1699,6.1699,6.1699,6.1699,6.1699,6.1699,6.1699,6.1699,6.1699,6.1699,6.1699,6.1699,6.1699,6.1699,6.1699,6.1699,6.1699,6.1699,6.1699,6.1699,6.1699,6.1699,6.1699,4.1835,4.2667,4.3614,4.6748,4.8179,4.9571,5.2414,5.4387,5.5993,5.7424,5.8894,6.0054,6.0596,6.0925,6.1099,6.1099,6.1099,6.1099,6.1099,6.1099,6.1099,6.1099,6.1099,6.1099,6.1099,6.1099,6.1099,6.1099,6.1099,0.0,6.1099,6.1099,6.1099,6.1099,6.1099,6.1099,6.1099,6.0306,6.017,6.0692,6.0151,6.017,6.0712,6.0983,6.1099,6.1099,6.1097,6.106,6.1009,6.1021,6.1022,6.1041,6.112,6.1174,6.1174,6.1314,6.1367,6.1381,6.1524,6.1571,6.1576,6.1663,6.1692,6.1695,6.1697,6.1698,6.1698,6.1699,6.1699,6.1699,6.1699,6.1699,6.1699,6.1699,6.1699,6.1699,6.1699,6.1699,6.1699,6.1699,6.1699,6.1699,6.1699,6.1699,6.1699,6.1699,6.1699,6.1699,6.1699,6.1699,6.1699,6.1699,6.1699,6.1699,6.1699,6.1699,6.1699,6.1699,6.1699,6.1699,6.1699,6.1699,6.1699,6.1699,6.1699,6.1699,6.1699,6.1699,6.1699,6.1699,6.1699,6.1699,0.0,0.0,0.0,4.5072,4.6348,4.7869,5.1262,5.3343,5.4813,5.5722,5.7927,5.9725,5.9803,6.048,6.1041,6.106,6.1079,6.1099,6.1099,6.1099,6.1099,6.1099,6.1099,6.1099,6.1099,6.1099,6.1099,6.1099,6.1099,6.1099,6.1099,6.1099,6.1099,6.1099,6.1099,6.1099,6.1099,6.0286,5.9861,5.9899,5.9861,5.988,5.9919,6.074,6.1108,6.1117,6.1244,6.1186,6.1022,6.1081,6.1112,6.1116,6.1266,6.1314,6.1326,6.1456,6.151,6.1526,6.1657,6.1709,6.1709,6.1709,6.1696,6.1699,6.1698,6.1698,6.1699,6.1699,6.1699,6.1699,6.1699,6.1699,6.1699,6.1699,6.1699,6.1699,6.1699,6.1699,6.1699,6.1699,6.1699,6.1699,6.1699,6.1699,6.1699,6.1699,6.1699,6.1699,6.1699,6.1699,6.1699,6.1699,6.1699,6.1699,6.1699,6.1699,6.1699,6.1699,6.1699,6.1699,6.1699,6.1699,6.1699,6.1699,6.1699,6.1699,6.1699,6.1699,6.1699,6.1699,6.1699,6.1699,4.0507,0.0,0.0,0.0,0.0,0.0,4.7142,4.8476,4.9997,5.2705,5.4329,5.5838,5.7675,5.872,5.9493,6.0132,6.0712,6.1099,6.1099,6.1099,6.1099,6.1099,6.1099,6.1099,6.1099,6.1099,6.1099,0.0,6.1099,6.1099,6.1099,6.1099,6.1099,6.1099,6.1099,6.1099,6.1099,5.9687,5.9281,5.988,5.9261,5.9281,5.9928,6.084,6.1244,6.1252,6.1336,6.1345,6.1285,6.1314,6.1326,6.1337,6.146,6.1517,6.1537,6.1602,6.1631,6.1647,6.1697,6.1698,6.1698,6.1698,6.1699,6.1699,6.1699,6.1699,6.1699,6.1699,6.1699,6.1699,6.1699,6.1699,6.1699,6.1699,6.1699,6.1699,6.1699,6.1699,6.1699,6.1699,6.1699,6.1699,6.1699,6.1699,6.1699,6.1699,6.1699,6.1699,6.1699,6.1699,6.1699,6.1699,6.1699,6.1699,6.1699,6.1699,6.1699,6.1699,6.1699,6.1699,6.1699,6.1699,6.1699,6.1699,6.1699,6.1699,6.1699,6.1699,6.1699,6.1699,6.1699,6.1699,0.0,0.0,0.0,0.0,0.0,0.0,4.638,4.7018,4.7869,5.0596,5.2124,5.3517,5.5374,5.6437,5.7404,5.8623,5.9513,6.0306,6.1002,6.1099,6.1099,6.1099,6.1099,6.1099,6.1099,6.1099,6.1099,6.1099,6.1099,6.1099,6.1099,6.1099,6.1099,6.1099,6.1099,6.0944,6.0596,5.9261,5.8662,5.8816,5.8294,5.8532,5.942,6.0335,6.0968,6.1342,6.1431,6.149,6.149,6.1501,6.1517,6.1497,6.1594,6.1645,6.1644,6.1698,6.1699,6.1697,6.1699,6.1699,6.1699,6.1699,6.1699,6.1699,6.1699,6.1699,6.1699,6.1699,6.1699,6.1699,6.1699,6.1699,6.1699,6.1699,6.1699,6.1699,6.1699,6.1699,6.1699,6.1699,6.1699,6.1699,6.1699,6.1699,6.1699,6.1699,6.1699,6.1699,6.1699,6.1699,6.1699,6.1699,6.1699,6.1699,6.1699,6.1699,6.1699,6.1699,6.1699,6.1699,6.1699,6.1699,6.1699,6.1699,6.1699,6.1699,6.1699,6.1699,6.1699,6.1699,6.1699,6.1699,4.1964,4.2144,0.0,0.0,4.4523,0.0,4.7154,4.7231,4.7154,4.8798,5.0326,5.1679,5.2743,5.3652,5.4774,5.6448,5.7559,5.8836,6.0692,6.1041,6.1099,6.1099,6.1099,6.1099,6.1099,6.1099,6.1099,6.1099,6.1099,6.1099,6.1099,6.1099,6.1099,6.1099,6.1099,6.0712,5.9899,5.9029,5.8168,5.7314,5.7314,5.782,5.8752,5.9633,6.0542,6.1435,6.1551,6.1612,6.1616,6.1677,6.1656,6.1616,6.1678,6.1699,6.1699,6.1699,6.1699,6.1698,6.1699,6.1699,6.1698,6.1699,6.1699,6.1699,6.1699,6.1699,6.1699,6.1699,6.1699,6.1699,6.1699,6.1699,6.1699,6.1699,6.1699,6.1699,6.1699,6.1699,6.1699,6.1699,6.1699,6.1699,6.1699,6.1699,6.1699,6.1699,6.1699,6.1699,6.1699,6.1699,6.1699,6.1699,6.1699,6.1699,6.1699,6.1699,6.1699,6.1699,6.1699,6.1699,6.1699,6.1699,6.1699,6.1699,6.1699,6.1699,6.1699,6.1699,6.1699,6.1699,6.1699,6.1699,4.3175,4.3053,4.3169,4.3672,0.0,0.0,4.4311,4.4156,4.4349,4.5367,4.5858,4.6767,4.8991,5.0113,5.1235,5.2917,5.4523,5.6611,5.9706,6.0692,6.1099,6.1099,6.1099,6.1099,6.1099,6.1099,6.1099,6.1099,6.1099,6.1099,6.1099,6.1099,6.1099,6.1099,6.1099,6.0712,5.9899,5.9029,5.8197,5.739,5.739,5.7897,5.8895,5.9825,6.0717,6.1573,6.1652,6.1678,6.1678,6.1699,6.1699,6.1678,6.1699,6.1699,6.1699,6.1699,6.1699,6.1699,6.1699,6.1699,6.1699,6.1699,6.1699,6.1699,6.1699,6.1699,6.1699,6.1699,6.1699,6.1699,6.1699,6.1699,6.1699,6.1699,6.1699,6.1699,6.1699,6.1699,6.1699,6.1699,6.1699,6.1699,6.1699,6.1699,6.1699,6.1699,6.1699,6.1699,6.1699,6.1699,6.1699,6.1699,6.1699,6.1699,6.1699,6.1699,6.1699,6.1699,6.1699,6.1699,6.1699,6.1699,6.1699,6.1699,6.1699,6.1699,6.1699,6.1699,6.1699,6.1699,6.1699,6.1699,4.4126,4.3889,4.4109,4.4981,0.0,0.0,0.0,4.4543,4.4311,4.5587,4.5181,4.5374,4.7927,4.8043,4.845,5.0596,5.2395,5.4097,5.5818,5.8255,5.9841,5.9841,5.9841,5.9841,5.9841,6.0248,6.0673,6.1079,6.1099,6.1099,6.1099,6.1099,6.1099,6.1099,6.1099,6.0712,5.9899,5.9077,5.8447,5.804,5.7681,5.8238,5.9609,6.009,6.0798,6.1652,6.1698,6.1699,6.1699,6.1699,6.1699,6.1699,6.1699,6.1699,6.1699,6.1699,6.1699,6.1699,6.1699,6.1699,6.1699,6.1699,6.1699,6.1699,6.1699,6.1699,6.1699,6.1699,6.1699,6.1699,6.1699,6.1699,6.1699,6.1699,6.1699,6.1699,6.1699,6.1699,6.1699,6.1699,6.1699,6.1699,6.1699,6.1699,6.1699,6.1699,6.1699,6.1699,6.1699,6.1699,6.1699,6.1699,6.1699,6.1699,6.1699,6.1699,6.1699,6.1699,6.1699,6.1699,6.1699,6.1699,6.1699,6.1699,6.1699,6.1699,6.1699,6.1699,6.1699,6.1699,6.1699,6.1699,0.0,0.0,0.0,0.0,0.0,4.5568,0.0,0.0,0.0,4.6167,4.5297,4.5026,4.727,4.6515,4.6303,4.8585,0.0,0.0,0.0,5.4735,0.0,5.7579,5.7888,5.8101,5.8101,5.8739,5.9551,6.0538,6.046,6.0518,6.0847,6.1021,6.1099,6.1099,6.1136,6.0747,5.9934,5.9306,5.8907,5.8748,5.8154,5.8738,6.0309,6.0309,6.0812,6.1699,6.1699,6.1699,6.1699,6.1699,6.1699,6.1699,6.1699,6.1699,6.1699,6.1699,6.1699,6.1699,6.1699,6.1699,6.1699,6.1699,6.1699,6.1699,6.1699,6.1699,6.1699,6.1699,6.1699,6.1699,6.1699,6.1699,6.1699,6.1699,6.1699,6.1699,6.1699,6.1699,6.1699,6.1699,6.1699,6.1699,6.1699,6.1699,6.1699,6.1699,6.1699,6.1699,6.1699,6.1699,6.1699,6.1699,6.1699,6.1699,6.1699,6.1699,6.1699,6.1699,6.1699,6.1699,6.1699,6.1699,6.1699,6.1699,6.1699,6.1699,6.1699,6.1699,6.1699,6.1699,6.1699,6.1699,0.0,0.0,0.0,0.0,4.6977,0.0,0.0,0.0,4.5381,4.4001,0.0,4.3769,4.4845,0.0,0.0,0.0,0.0,0.0,4.8836,5.0538,5.2356,5.3904,5.5393,5.6302,5.6302,5.6379,5.7114,5.8758,5.8178,5.841,5.9957,6.0712,6.1099,6.1099,6.1225,6.0854,5.9993,6.0022,5.9669,5.8953,5.888,5.9376,6.039,6.039,6.0879,6.1699,6.1699,6.1699,6.1699,6.1699,6.1699,6.1699,6.1699,6.1699,6.1699,6.1699,6.1699,6.1699,6.1699,6.1699,6.1699,6.1699,6.1699,6.1699,6.1699,6.1699,6.1699,6.1699,6.1699,6.1699,6.1699,6.1699,6.1699,6.1699,6.1699,6.1699,6.1699,6.1699,6.1699,6.1699,6.1699,6.1699,6.1699,6.1699,6.1699,6.1699,6.1699,6.1699,6.1699,6.1699,6.1699,6.1699,6.1699,6.1699,6.1699,6.1699,6.1699,6.1699,6.1699,6.1699,6.1699,6.1699,6.1699,6.1699,6.1699,6.1699,6.1699,6.1699,6.1699,6.1699,6.1699,6.1699,0.0,0.0,0.0,0.0,0.0,0.0,4.6296,0.0,4.5787,0.0,0.0,0.0,0.0,0.0,0.0,0.0,4.6844,0.0,0.0,0.0,4.9513,0.0,0.0,0.0,5.4445,5.4542,5.5258,5.696,5.6747,5.7312,5.9103,6.0003,6.0701,6.1259,6.1336,6.119,6.082,6.0434,6.0333,6.0493,6.0046,6.0271,6.1152,6.1152,6.1348,6.1699,6.1699,6.1699,6.1699,6.1699,6.1699,6.1699,6.1699,6.1699,6.1699,6.1699,6.1699,6.1699,6.1699,6.1699,6.1699,6.1699,6.1699,6.1699,6.1699,6.1699,6.1699,6.1699,6.1699,6.1699,6.1699,6.1699,6.1699,6.1699,6.1699,6.1699,6.1699,6.1699,6.1699,6.1699,6.1699,6.1699,6.1699,6.1699,6.1699,6.1699,6.1699,6.1699,6.1699,6.1699,6.1699,6.1699,6.1699,6.1699,6.1699,6.1699,6.1699,6.1699,6.1699,6.1699,6.1699,6.1699,6.1699,6.1699,6.1699,6.1699,6.1699,6.1699,6.1699,6.1699,6.1699,6.1699,4.6303,0.0,0.0,0.0,0.0,0.0,0.0,0.0,0.0,0.0,0.0,0.0,0.0,0.0,0.0,0.0,0.0,4.6322,0.0,4.5974,0.0,0.0,0.0,0.0,0.0,5.224,5.2895,5.4839,5.4781,5.5652,5.7909,5.9102,6.0116,6.1018,6.1303,6.1452,6.1452,6.0934,6.0996,6.1623,6.1033,6.1094,6.1699,6.1699,6.1699,6.1699,6.1699,6.1699,6.1699,6.1699,6.1699,6.1699,6.1699,6.1699,6.1699,6.1699,6.1699,6.1699,6.1699,6.1699,6.1699,6.1699,6.1699,6.1699,6.1699,6.1699,6.1699,6.1699,6.1699,6.1699,6.1699,6.1699,6.1699,6.1699,6.1699,6.1699,6.1699,6.1699,6.1699,6.1699,6.1699,6.1699,6.1699,6.1699,6.1699,6.1699,6.1699,6.1699,6.1699,6.1699,6.1699,6.1699,6.1699,6.1699,6.1699,6.1699,6.1699,6.1699,6.1699,6.1699,6.1699,6.1699,6.1699,6.1699,6.1699,6.1699,6.1699,6.1699,6.1699,6.1699,6.1699,6.1699,0.0,0.0,0.0,4.6356,0.0,0.0,0.0,0.0,4.6819,0.0,0.0,0.0,0.0,0.0,0.0,0.0,0.0,0.0,0.0,0.0,0.0,0.0,0.0,0.0,0.0,4.9068,4.9637,0.0,5.1701,5.2764,5.6188,5.8004,5.9314,6.0122,6.1082,6.1583,6.1583,6.1636,6.168,6.1699,6.168,6.168,6.1699,6.1699,6.1699,6.1699,6.1699,6.1699,6.1699,6.1699,6.1699,6.1699,6.1699,6.1699,6.1699,6.1699,6.1699,6.1699,6.1699,6.1699,6.1699,6.1699,6.1699,6.1699,6.1699,6.1699,6.1699,6.1699,6.1699,6.1699,6.1699,6.1699,6.1699,6.1699,6.1699,6.1699,6.1699,6.1699,6.1699,6.1699,6.1699,6.1699,6.1699,6.1699,6.1699,6.1699,6.1699,6.1699,6.1699,6.1699,6.1699,6.1699,6.1699,6.1699,6.1699,6.1699,6.1699,6.1699,6.1699,6.1699,6.1699,6.1699,6.1699,6.1699,6.1699,6.1699,6.1699,6.1699,6.1699,6.1699,6.1699,6.1699,0.0,0.0,4.9104,4.7707,0.0,0.0,0.0,0.0,0.0,0.0,0.0,0.0,0.0,0.0,0.0,0.0,0.0,0.0,0.0,0.0,0.0,0.0,0.0,0.0,0.0,0.0,0.0,0.0,5.0962,0.0,5.5405,5.7729,5.9385,6.0274,6.1183,6.1675,6.1675,6.1698,6.1699,6.1699,6.1699,6.1699,6.1699,6.1699,6.1699,6.1699,6.1699,6.1699,6.1699,6.1699,6.1699,6.1699,6.1699,6.1699,6.1699,6.1699,6.1699,6.1699,6.1699,6.1699,6.1699,6.1699,6.1699,6.1699,6.1699,6.1699,6.1699,6.1699,6.1699,6.1699,6.1699,6.1699,6.1699,6.1699,6.1699,6.1699,6.1699,6.1699,6.1699,6.1699,6.1699,6.1699,6.1699,6.1699,6.1699,6.1699,6.1699,6.1699,6.1699,6.1699,6.1699,6.1699,6.1699,6.1699,6.1699,6.1699,6.1699,6.1699,6.1699,6.1699,6.1699,6.1699,6.1699,6.1699,6.1699,6.1699,6.1699,6.1699,6.1699,6.1699,6.1699,6.1699,4.8644,4.9202,0.0,4.845,4.8401,0.0,4.7221,0.0,4.7188,0.0,0.0,0.0,0.0,0.0,0.0,0.0,0.0,0.0,0.0,4.3073,0.0,0.0,0.0,0.0,0.0,0.0,4.7388,4.8864,4.9834,0.0,0.0,5.6744,5.8704,5.9922,6.1094,6.1699,6.1699,6.1699,6.1699,6.1699,6.1699,6.1699,6.1699,6.1699,6.1699,6.1699,6.1699,6.1699,6.1699,6.1699,6.1699,6.1699,6.1699,6.1699,6.1699,6.1699,6.1699,6.1699,6.1699,6.1699,6.1699,6.1699,6.1699,6.1699,6.1699,6.1699,6.1699,6.1699,6.1699,6.1699,6.1699,6.1699,6.1699,6.1699,6.1699,6.1699,6.1699,6.1699,6.1699,6.1699,6.1699,6.1699,6.1699,6.1699,6.1699,6.1699,6.1699,6.1699,6.1699,6.1699,6.1699,6.1699,6.1699,6.1699,6.1699,6.1699,6.1699,6.1699,6.1699,6.1699,6.1699,6.1699,6.1699,6.1699,6.1699,6.1699,6.1699,6.1699,6.1699,6.1699,6.1699,6.1699]}]]